[[{"header":{"parameterUnit":"m.s-1","parameterCategory":1,"la1":30.6,"la2":29.2853,"lo1":-89.7004,"lo2":-87.6739,"dy":0.0162,"dx":0.0183,"nx":112,"ny":82,"refTime":"2023-08-28T06:00:00:Z","depth":0,"parameterNumber":2,"parameterNumberName":"U-component_of_WINDS"},"data":[0.0,0.0,0.0,0.0,0.0,0.0,0.0,0.0,0.0,0.0,0.0,0.0,0.0,0.0,0.0,0.0,0.0,0.0,0.0,0.0,0.0,0.0,0.0,0.0,0.0,0.0,0.0,0.0,0.0,0.0,0.0,0.0,0.0,0.0,0.0,0.0,0.0,0.0,0.0,0.0,0.0,0.0,0.0,0.0,0.0,0.0,0.0,0.0,0.0,0.0,0.0,0.0,0.0,0.0,0.0,0.0,0.0,0.0,0.0,0.0,0.0,0.0,0.0,0.0,0.0,0.0,0.0,0.0,0.0,0.0,0.0,0.0,0.0,0.0,0.0,0.0,0.0,0.0,0.0,0.0,0.0,0.0,0.0,0.0,0.0,0.0,0.0,0.0,0.0,0.0,4.1506,4.2602,4.4561,4.5439,4.4498,4.3558,4.1512,3.8164,0.0,0.0,0.0,0.0,0.0,0.0,0.0,0.0,0.0,0.0,0.0,0.0,0.0,0.0,0.0,0.0,0.0,0.0,0.0,0.0,0.0,0.0,0.0,0.0,0.0,0.0,0.0,0.0,0.0,0.0,0.0,0.0,0.0,0.0,0.0,0.0,0.0,0.0,0.0,0.0,0.0,0.0,0.0,0.0,0.0,0.0,0.0,0.0,0.0,0.0,0.0,0.0,0.0,0.0,0.0,0.0,0.0,0.0,0.0,0.0,0.0,0.0,0.0,0.0,0.0,0.0,0.0,0.0,0.0,0.0,0.0,0.0,0.0,0.0,0.0,0.0,0.0,0.0,0.0,0.0,0.0,0.0,0.0,0.0,0.0,0.0,0.0,0.0,0.0,0.0,0.0,0.0,0.0,0.0,0.0,0.0,0.0,0.0,0.0,0.0,0.0,0.0,0.0,0.0,4.2902,4.5679,4.6375,4.6202,4.5164,4.4252,4.2273,3.887,0.0,0.0,0.0,0.0,0.0,0.0,0.0,0.0,0.0,0.0,0.0,0.0,0.0,0.0,0.0,0.0,0.0,0.0,0.0,0.0,0.0,0.0,0.0,0.0,0.0,0.0,0.0,0.0,0.0,0.0,0.0,0.0,0.0,0.0,0.0,0.0,0.0,0.0,0.0,0.0,0.0,0.0,0.0,0.0,0.0,0.0,0.0,0.0,0.0,0.0,0.0,0.0,0.0,0.0,0.0,0.0,0.0,0.0,0.0,0.0,0.0,0.0,0.0,0.0,0.0,0.0,0.0,0.0,0.0,0.0,0.0,0.0,0.0,0.0,0.0,0.0,0.0,0.0,0.0,0.0,0.0,0.0,0.0,0.0,0.0,0.0,0.0,0.0,0.0,0.0,0.0,0.0,0.0,0.0,0.0,0.0,0.0,0.0,0.0,0.0,0.0,0.0,0.0,4.2061,4.4288,4.7105,4.7372,4.7154,4.6652,4.523,4.3144,4.0277,3.9234,0.0,0.0,0.0,0.0,0.0,0.0,0.0,0.0,0.0,0.0,0.0,0.0,0.0,0.0,0.0,0.0,0.0,0.0,0.0,0.0,0.0,0.0,0.0,0.0,0.0,0.0,0.0,0.0,0.0,0.0,0.0,0.0,0.0,0.0,0.0,0.0,0.0,0.0,0.0,0.0,0.0,0.0,0.0,0.0,0.0,0.0,0.0,0.0,0.0,0.0,0.0,0.0,0.0,0.0,0.0,0.0,0.0,0.0,0.0,0.0,0.0,0.0,0.0,0.0,0.0,0.0,0.0,0.0,0.0,0.0,0.0,0.0,0.0,0.0,0.0,0.0,0.0,0.0,0.0,0.0,0.0,0.0,0.0,0.0,0.0,0.0,0.0,0.0,0.0,0.0,0.0,0.0,0.0,0.0,0.0,0.0,0.0,0.0,0.0,0.0,0.0,0.0,4.4565,4.6246,4.831,4.8394,4.8252,4.7995,4.6202,4.3965,4.1351,4.0207,0.0,0.0,0.0,0.0,0.0,0.0,0.0,0.0,0.0,0.0,0.0,0.0,0.0,0.0,0.0,0.0,0.0,0.0,0.0,0.0,0.0,0.0,0.0,0.0,0.0,0.0,0.0,0.0,0.0,0.0,0.0,0.0,0.0,0.0,0.0,0.0,0.0,0.0,0.0,0.0,0.0,0.0,0.0,0.0,0.0,0.0,0.0,0.0,0.0,0.0,0.0,0.0,0.0,0.0,0.0,0.0,0.0,0.0,0.0,0.0,0.0,0.0,0.0,0.0,0.0,0.0,0.0,0.0,0.0,0.0,0.0,0.0,0.0,0.0,0.0,0.0,0.0,0.0,0.0,0.0,0.0,0.0,0.0,0.0,0.0,0.0,0.0,0.0,0.0,0.0,0.0,0.0,0.0,0.0,0.0,0.0,0.0,0.0,0.0,0.0,0.0,0.0,4.6856,4.9168,4.9966,4.9968,4.9562,4.8605,4.6983,4.4593,4.1295,4.0174,0.0,0.0,0.0,0.0,0.0,0.0,0.0,0.0,0.0,0.0,0.0,0.0,0.0,0.0,0.0,0.0,0.0,0.0,0.0,0.0,0.0,0.0,0.0,0.0,0.0,0.0,0.0,0.0,0.0,0.0,0.0,0.0,0.0,0.0,0.0,0.0,0.0,0.0,0.0,0.0,0.0,0.0,0.0,0.0,0.0,0.0,0.0,0.0,0.0,0.0,0.0,0.0,0.0,0.0,0.0,0.0,0.0,0.0,0.0,0.0,0.0,0.0,0.0,0.0,0.0,0.0,0.0,0.0,0.0,0.0,0.0,0.0,0.0,0.0,0.0,0.0,0.0,0.0,0.0,0.0,0.0,0.0,0.0,0.0,0.0,0.0,0.0,0.0,0.0,0.0,0.0,0.0,0.0,0.0,0.0,0.0,0.0,0.0,0.0,0.0,0.0,0.0,4.7103,4.8925,5.0638,5.0787,5.0417,4.9565,4.8237,4.6287,4.3465,0.0,0.0,0.0,0.0,0.0,0.0,0.0,0.0,0.0,0.0,0.0,0.0,0.0,0.0,0.0,0.0,0.0,0.0,0.0,0.0,0.0,0.0,0.0,0.0,0.0,0.0,0.0,0.0,0.0,0.0,0.0,0.0,0.0,0.0,0.0,0.0,0.0,0.0,0.0,0.0,0.0,0.0,0.0,0.0,0.0,0.0,0.0,0.0,0.0,0.0,0.0,0.0,0.0,0.0,0.0,0.0,0.0,0.0,0.0,0.0,0.0,0.0,0.0,0.0,0.0,0.0,0.0,0.0,0.0,0.0,0.0,0.0,0.0,0.0,0.0,0.0,0.0,0.0,0.0,0.0,0.0,0.0,0.0,0.0,0.0,0.0,0.0,0.0,0.0,0.0,0.0,0.0,0.0,0.0,0.0,0.0,0.0,0.0,0.0,0.0,0.0,0.0,4.6005,4.8076,4.9858,5.1417,5.1564,5.1304,5.0712,4.9194,4.7388,4.515,0.0,0.0,0.0,0.0,0.0,0.0,0.0,0.0,0.0,0.0,0.0,0.0,0.0,0.0,0.0,0.0,0.0,0.0,0.0,0.0,0.0,0.0,0.0,0.0,0.0,0.0,0.0,0.0,0.0,0.0,0.0,0.0,0.0,0.0,0.0,0.0,0.0,0.0,0.0,0.0,0.0,0.0,0.0,0.0,0.0,0.0,0.0,0.0,0.0,0.0,0.0,0.0,0.0,0.0,0.0,0.0,0.0,0.0,0.0,0.0,0.0,0.0,0.0,0.0,0.0,0.0,0.0,0.0,0.0,0.0,0.0,0.0,0.0,0.0,0.0,0.0,0.0,0.0,0.0,0.0,0.0,0.0,0.0,0.0,0.0,0.0,0.0,0.0,0.0,0.0,0.0,0.0,0.0,0.0,0.0,0.0,0.0,0.0,0.0,0.0,0.0,0.0,4.655,5.0079,5.2568,5.2454,5.2338,5.2259,5.2143,4.9816,4.7645,0.0,0.0,0.0,0.0,0.0,0.0,0.0,0.0,0.0,0.0,0.0,0.0,0.0,0.0,0.0,0.0,0.0,0.0,0.0,0.0,0.0,0.0,0.0,0.0,0.0,0.0,0.0,0.0,0.0,0.0,0.0,0.0,0.0,0.0,0.0,0.0,0.0,0.0,0.0,0.0,0.0,0.0,0.0,0.0,0.0,0.0,0.0,0.0,0.0,0.0,0.0,0.0,0.0,0.0,0.0,0.0,0.0,0.0,0.0,0.0,0.0,0.0,0.0,0.0,0.0,0.0,0.0,0.0,0.0,0.0,0.0,0.0,0.0,0.0,0.0,0.0,0.0,0.0,0.0,0.0,0.0,0.0,0.0,0.0,0.0,0.0,0.0,0.0,0.0,0.0,0.0,0.0,0.0,0.0,0.0,0.0,0.0,0.0,0.0,0.0,0.0,0.0,0.0,4.8677,5.1491,5.3714,5.4778,5.433,5.3736,5.2987,5.1731,4.9779,4.6873,0.0,0.0,0.0,0.0,0.0,0.0,0.0,0.0,0.0,0.0,0.0,0.0,0.0,0.0,0.0,0.0,0.0,0.0,0.0,0.0,0.0,0.0,0.0,0.0,0.0,0.0,0.0,0.0,0.0,0.0,0.0,0.0,0.0,0.0,0.0,0.0,0.0,0.0,0.0,0.0,0.0,0.0,0.0,0.0,0.0,0.0,0.0,0.0,0.0,0.0,0.0,0.0,0.0,0.0,0.0,0.0,0.0,0.0,0.0,0.0,0.0,0.0,0.0,0.0,0.0,0.0,0.0,0.0,0.0,0.0,0.0,0.0,0.0,0.0,0.0,0.0,0.0,0.0,0.0,0.0,0.0,0.0,0.0,0.0,0.0,0.0,0.0,0.0,0.0,0.0,0.0,0.0,0.0,0.0,0.0,0.0,0.0,0.0,0.0,0.0,0.0,0.0,4.9196,5.2118,5.4411,5.5286,5.5249,5.4764,5.3829,5.2978,5.1503,4.9145,0.0,0.0,0.0,0.0,0.0,0.0,0.0,0.0,0.0,0.0,0.0,0.0,0.0,0.0,0.0,0.0,0.0,0.0,0.0,0.0,0.0,0.0,0.0,0.0,0.0,0.0,0.0,0.0,0.0,0.0,0.0,0.0,0.0,0.0,0.0,0.0,0.0,0.0,0.0,0.0,0.0,0.0,0.0,0.0,0.0,0.0,0.0,0.0,0.0,0.0,0.0,0.0,0.0,0.0,0.0,0.0,0.0,0.0,0.0,0.0,0.0,0.0,0.0,0.0,0.0,0.0,0.0,0.0,0.0,0.0,0.0,0.0,0.0,0.0,0.0,0.0,0.0,0.0,0.0,0.0,0.0,0.0,0.0,0.0,0.0,0.0,0.0,0.0,0.0,0.0,0.0,0.0,0.0,0.0,0.0,0.0,0.0,0.0,0.0,0.0,0.0,0.0,4.8901,5.2488,5.4966,5.487,5.5539,5.5649,5.4693,5.3812,5.2968,5.216,0.0,0.0,0.0,0.0,0.0,0.0,0.0,0.0,0.0,0.0,0.0,0.0,0.0,0.0,0.0,0.0,0.0,0.0,0.0,0.0,0.0,0.0,0.0,0.0,0.0,0.0,0.0,0.0,0.0,0.0,0.0,0.0,0.0,0.0,0.0,0.0,0.0,0.0,0.0,0.0,0.0,0.0,0.0,0.0,0.0,0.0,0.0,0.0,0.0,0.0,0.0,0.0,0.0,0.0,0.0,0.0,0.0,0.0,0.0,0.0,3.4991,3.3895,0.0,0.0,0.0,0.0,0.0,0.0,0.0,0.0,0.0,0.0,0.0,0.0,0.0,0.0,0.0,0.0,0.0,0.0,0.0,0.0,0.0,0.0,0.0,0.0,0.0,0.0,0.0,0.0,0.0,0.0,0.0,0.0,0.0,0.0,0.0,0.0,0.0,0.0,0.0,0.0,5.1377,5.4041,5.6261,5.7302,5.7051,5.6719,5.6308,5.5037,5.3818,5.2877,5.0748,0.0,0.0,0.0,0.0,0.0,0.0,0.0,0.0,0.0,0.0,0.0,0.0,0.0,0.0,0.0,0.0,0.0,0.0,0.0,0.0,0.0,0.0,0.0,0.0,0.0,0.0,0.0,0.0,0.0,0.0,0.0,0.0,0.0,0.0,0.0,0.0,0.0,0.0,0.0,0.0,0.0,0.0,0.0,0.0,0.0,0.0,0.0,0.0,0.0,0.0,0.0,0.0,0.0,0.0,0.0,0.0,0.0,0.0,0.0,3.6935,3.5694,0.0,0.0,0.0,0.0,0.0,0.0,0.0,0.0,0.0,0.0,0.0,0.0,0.0,0.0,0.0,0.0,0.0,0.0,0.0,0.0,0.0,0.0,0.0,0.0,0.0,0.0,0.0,0.0,0.0,0.0,0.0,0.0,0.0,0.0,0.0,0.0,0.0,0.0,0.0,0.0,5.1517,5.4843,5.7346,5.806,5.8142,5.8142,5.796,5.6867,5.5904,5.5322,5.3376,0.0,0.0,0.0,0.0,0.0,0.0,0.0,0.0,0.0,0.0,0.0,0.0,0.0,0.0,0.0,0.0,0.0,0.0,0.0,0.0,0.0,0.0,0.0,0.0,0.0,0.0,0.0,0.0,0.0,0.0,0.0,0.0,0.0,0.0,0.0,0.0,0.0,0.0,0.0,0.0,0.0,0.0,0.0,0.0,0.0,0.0,0.0,0.0,0.0,0.0,0.0,0.0,0.0,4.1332,4.141,4.141,4.141,4.1799,4.2304,3.8891,3.805,3.8882,3.6744,0.0,0.0,0.0,0.0,0.0,0.0,0.0,0.0,0.0,0.0,0.0,0.0,0.0,0.0,0.0,0.0,0.0,0.0,0.0,0.0,0.0,0.0,4.432,4.5057,4.5744,4.5889,4.4624,0.0,0.0,0.0,0.0,0.0,0.0,0.0,0.0,0.0,0.0,0.0,5.1797,5.5558,5.8289,5.8364,5.9117,5.9495,5.9208,5.8584,5.8097,5.781,5.5623,5.4328,0.0,0.0,0.0,0.0,0.0,0.0,0.0,0.0,0.0,0.0,0.0,0.0,0.0,0.0,0.0,0.0,0.0,0.0,0.0,0.0,0.0,0.0,0.0,0.0,0.0,0.0,0.0,0.0,0.0,0.0,0.0,0.0,3.5301,3.5541,0.0,0.0,0.0,0.0,0.0,0.0,0.0,0.0,0.0,0.0,0.0,0.0,0.0,4.0462,4.068,4.1353,4.184,4.2043,4.2759,4.3086,4.3086,4.3086,4.3164,4.3241,4.34,0.0,4.1655,4.1335,0.0,0.0,0.0,0.0,0.0,0.0,0.0,0.0,0.0,0.0,0.0,0.0,0.0,0.0,0.0,0.0,0.0,0.0,0.0,0.0,0.0,0.0,4.674,4.7567,4.8241,4.8861,4.928,4.6568,4.4203,4.4707,4.4864,4.506,0.0,0.0,0.0,0.0,0.0,0.0,5.5785,5.7383,5.8739,5.9942,6.0294,6.012,5.9281,5.9098,5.8637,5.7704,5.6635,5.5713,5.488,5.3671,0.0,0.0,0.0,0.0,0.0,0.0,0.0,0.0,0.0,0.0,0.0,0.0,0.0,0.0,0.0,0.0,0.0,0.0,0.0,0.0,0.0,0.0,0.0,0.0,0.0,0.0,0.0,0.0,0.0,3.4867,3.5878,3.5833,3.5955,3.586,0.0,0.0,0.0,0.0,0.0,0.0,0.0,0.0,0.0,4.1684,4.1699,4.2373,4.3792,4.415,4.4827,4.5723,4.6099,4.628,4.628,4.628,4.6242,4.6216,4.659,4.6292,4.5427,4.3557,4.2047,4.0885,0.0,0.0,0.0,0.0,4.1008,4.1519,4.2754,4.3503,4.3905,4.3749,0.0,0.0,0.0,0.0,0.0,0.0,0.0,4.4595,4.6685,4.7357,4.7947,4.9706,5.0318,5.085,5.201,5.0486,4.8633,4.7937,4.7016,4.6724,4.7831,4.8713,0.0,0.0,0.0,5.5484,5.7316,5.909,6.0367,6.1006,6.1128,6.1165,6.1227,6.0726,6.0274,5.9774,5.931,5.8312,5.6503,5.5218,5.3508,0.0,0.0,0.0,0.0,0.0,0.0,0.0,0.0,0.0,0.0,0.0,0.0,0.0,0.0,0.0,0.0,0.0,0.0,0.0,0.0,0.0,0.0,0.0,0.0,0.0,0.0,0.0,0.0,3.6338,3.7194,3.7141,3.793,3.8149,0.0,0.0,0.0,0.0,0.0,0.0,4.1957,4.1972,4.2538,4.386,4.3831,4.4704,4.6624,4.6639,4.7223,4.849,4.8463,4.8463,4.8463,4.8449,4.8421,4.8406,4.8585,4.8485,4.8,4.5503,4.3989,4.3178,4.2463,4.2048,4.2009,4.2761,4.3422,4.4096,4.5434,4.6352,4.687,4.6488,4.6237,4.6085,4.596,0.0,0.0,0.0,0.0,4.6092,4.8551,4.9027,4.9492,5.1734,5.219,5.2567,5.4129,5.3645,5.2492,5.1302,5.012,4.9601,5.0659,5.1316,0.0,5.4142,5.5794,5.7409,5.9024,6.0786,6.2071,6.2511,6.2548,6.2695,6.3099,6.2485,6.1922,6.1446,6.1346,6.0332,5.8324,5.6842,5.5348,5.3835,0.0,0.0,0.0,0.0,0.0,0.0,0.0,0.0,0.0,0.0,0.0,0.0,0.0,0.0,0.0,0.0,0.0,0.0,0.0,0.0,0.0,0.0,0.0,0.0,0.0,0.0,0.0,0.0,0.0,4.0743,4.1521,0.0,0.0,0.0,0.0,4.0852,4.0929,4.2049,4.4482,4.4569,4.5626,4.8126,4.8167,4.8231,4.8387,4.8308,4.8333,4.841,4.8338,4.8307,4.8307,4.8298,4.8304,4.8343,4.9118,4.8949,4.8105,4.8073,4.7477,4.6529,4.6509,4.5955,4.5285,4.6129,4.6434,4.6546,4.7507,4.7831,4.7673,4.6768,4.5833,4.548,4.7742,4.6679,0.0,0.0,4.8716,4.8589,5.1067,5.1678,5.2023,5.3709,5.3979,5.4317,5.5919,5.4871,5.3672,5.417,5.4285,5.4285,5.4185,0.0,5.5023,5.7409,5.7226,5.8217,6.2071,6.2658,6.3356,6.4934,6.5118,6.4824,6.409,6.398,6.3282,6.1704,6.1495,6.0993,6.0079,5.9127,5.7875,5.6234,5.5477,0.0,0.0,0.0,0.0,0.0,0.0,0.0,0.0,0.0,0.0,0.0,0.0,0.0,0.0,0.0,0.0,0.0,0.0,0.0,0.0,0.0,0.0,0.0,0.0,0.0,0.0,0.0,0.0,4.1124,4.2252,0.0,4.106,4.246,4.3432,4.3374,4.4909,4.6219,4.714,4.7132,4.7482,4.8399,4.8924,4.9459,4.9962,5.051,5.1035,5.1576,5.1541,5.1524,5.1524,5.1506,5.1527,5.1529,5.178,5.1644,5.1254,5.1254,4.9816,4.7588,4.7529,4.7317,4.7106,4.7843,4.8082,4.8289,4.963,5.0125,5.0163,5.0266,5.002,4.9778,5.053,5.0191,4.9738,5.0785,5.0836,5.0997,5.2813,5.3267,5.3644,5.5174,5.5431,5.5649,5.6763,5.6788,5.6842,5.7523,5.5564,5.4275,5.5684,5.6381,5.7373,5.9245,6.0199,6.1374,6.3392,6.409,6.464,6.5264,6.5301,6.5191,6.4897,6.4809,6.4332,6.3345,6.3035,6.2448,6.1275,6.0848,6.0091,5.8992,5.8747,5.773,0.0,0.0,0.0,0.0,0.0,0.0,0.0,0.0,0.0,0.0,0.0,0.0,0.0,0.0,0.0,0.0,0.0,0.0,0.0,0.0,0.0,0.0,0.0,0.0,0.0,4.2334,4.3617,4.281,4.42,4.4657,4.3179,4.486,4.613,4.6368,4.7934,4.9149,4.9678,4.9659,4.9784,5.0039,5.0571,5.1117,5.1657,5.2183,5.2761,5.3301,5.3282,5.3263,5.3263,5.3244,5.3205,5.3182,5.3161,5.3075,5.2924,5.29,5.1599,4.9592,4.9564,4.9503,4.9541,4.9997,5.0139,5.0304,5.1342,5.1695,5.1782,5.2201,5.2273,5.2258,5.2422,5.2309,5.2203,5.2639,5.2723,5.2956,5.4166,5.4615,5.5099,5.6434,5.6833,5.7159,5.7937,5.8622,5.93,6.0056,5.781,5.6257,5.774,5.8474,5.9171,6.0188,6.1728,6.3135,6.3929,6.5044,6.5815,6.6072,6.6109,6.6109,6.6109,6.5543,6.5154,6.5064,6.4053,6.3296,6.2682,6.1776,6.1029,6.0562,6.0525,5.9651,5.7906,0.0,0.0,0.0,0.0,0.0,0.0,0.0,0.0,0.0,0.0,0.0,0.0,0.0,0.0,0.0,0.0,0.0,0.0,0.0,0.0,0.0,0.0,0.0,4.3656,4.4336,4.522,4.5986,4.7517,4.8179,4.7327,4.8063,4.8903,4.9659,4.9775,5.048,5.2061,5.2138,5.2507,5.3262,5.3301,5.334,5.334,5.3321,5.3321,5.3417,5.3358,5.3336,5.3336,5.3272,5.3184,5.3054,5.31,5.3054,5.2933,5.3006,5.2957,5.2857,5.2755,5.2653,5.2574,5.2574,5.2612,5.265,5.2607,5.2504,5.2462,5.2462,5.2394,5.2447,5.3239,5.2837,5.2403,5.3958,5.434,5.4387,5.51,5.5844,5.6625,5.736,5.8053,5.8745,5.9566,6.0194,6.0867,6.164,6.1235,6.0672,6.0493,6.0493,6.0444,6.0347,6.1789,0.0,6.3899,6.5506,6.6843,6.7577,6.765,6.765,6.765,6.6323,6.5874,6.6648,6.4438,6.3493,6.4413,6.2056,6.0803,6.0905,6.0868,6.047,5.9789,0.0,0.0,0.0,0.0,0.0,0.0,0.0,0.0,0.0,0.0,0.0,0.0,0.0,0.0,0.0,0.0,0.0,0.0,0.0,0.0,0.0,4.4195,4.532,4.4494,4.6162,4.7559,4.7791,4.8205,4.8373,4.8111,4.9388,5.0326,5.0477,5.1619,5.2507,5.2952,5.2954,5.307,5.3205,5.378,5.4084,5.404,5.5163,5.5753,5.5777,5.6294,5.6512,5.6512,5.6512,5.6486,5.6434,5.6408,5.6382,5.6366,5.6245,5.6188,5.5931,5.3552,5.2574,5.252,5.2465,5.3205,5.4178,5.408,5.4748,5.5701,5.5701,5.522,5.4668,5.4859,5.4337,5.3856,5.4726,5.4951,5.5212,5.6548,5.6948,5.739,5.8757,5.9102,5.9419,6.0277,6.095,6.1434,6.175,6.25,6.2928,6.2254,6.2144,6.2365,6.2938,6.4457,6.5558,6.5763,6.6733,6.721,6.688,6.6843,6.6843,6.6843,6.6492,6.636,6.6684,6.6058,6.5557,6.5337,6.4757,6.414,6.3558,6.2318,6.1615,0.0,0.0,0.0,0.0,0.0,0.0,0.0,0.0,0.0,0.0,0.0,0.0,0.0,0.0,0.0,0.0,0.0,0.0,0.0,0.0,0.0,0.0,4.6448,4.7868,4.7308,4.8308,4.9304,5.0026,5.009,5.0162,5.0465,5.136,5.2043,5.2318,5.3244,5.4111,5.4744,5.4801,5.4951,5.5231,5.5708,5.5892,5.582,5.6677,5.7122,5.7122,5.7499,5.7739,5.7739,5.811,5.8044,5.7682,5.7996,5.79,5.7566,5.7438,5.7604,5.7718,0.0,0.0,0.0,0.0,5.4925,5.5692,5.5659,5.6199,5.6958,5.6958,5.6584,5.6176,5.6442,5.5956,5.5433,5.6032,5.6178,5.6323,5.7126,5.7783,5.8437,5.9361,5.9955,6.0488,6.1061,6.196,6.2781,6.3198,6.3994,0.0,6.4383,6.409,6.3906,6.4002,6.5396,6.6366,6.5983,6.699,6.7504,6.7026,6.699,6.699,6.699,6.6749,0.0,0.0,0.0,6.5989,6.5286,6.5345,0.0,0.0,0.0,6.3336,6.3845,6.2706,0.0,0.0,5.938,5.8825,0.0,0.0,0.0,0.0,0.0,0.0,0.0,0.0,0.0,0.0,0.0,0.0,0.0,0.0,0.0,0.0,4.8794,5.0902,5.0928,5.0519,5.0748,5.2229,5.2376,5.2614,5.3335,5.3397,5.3726,5.4552,5.4706,5.5412,5.6913,5.699,0.0,0.0,0.0,5.7979,5.7837,5.7815,5.7797,5.7768,5.7824,5.7802,5.787,5.8805,5.8699,5.7818,5.8698,5.8553,5.7662,5.7775,5.8197,5.8698,5.7927,5.7624,5.7527,5.7427,5.7322,5.7291,5.7256,0.0,0.0,5.715,5.7112,5.7114,5.7716,5.7305,5.6781,5.7372,5.7587,5.7575,5.7402,5.8408,5.9578,5.9762,6.0772,6.1826,6.2144,6.3272,6.4457,6.5154,6.5375,6.5668,6.6366,6.5925,6.5139,6.4302,6.5616,6.6349,6.562,6.69,6.7834,6.7834,6.7888,0.0,6.7834,6.7332,6.7362,6.812,6.6874,6.5804,6.5049,6.5079,6.5088,6.5088,6.4874,6.5207,6.6091,6.5779,6.5779,6.6017,6.1682,6.0087,0.0,0.0,0.0,0.0,0.0,0.0,0.0,0.0,0.0,0.0,0.0,0.0,0.0,0.0,0.0,4.7442,4.9512,5.1039,5.1738,5.2296,5.2738,5.3086,5.3106,5.3165,5.3321,5.3841,5.4489,5.5263,5.5907,5.6677,5.7595,5.7634,5.7657,5.7794,5.7794,5.7711,5.7566,5.8122,5.8401,5.8343,5.8959,0.0,5.9265,6.0135,6.0021,5.9269,6.078,6.0591,5.9273,6.0632,6.0896,6.0368,5.9499,5.9163,5.9163,5.9058,5.9022,5.8986,5.884,5.8803,5.884,5.8765,5.8278,5.7716,5.7791,5.7153,0.0,5.7047,5.7666,5.8289,5.8821,5.9605,6.054,6.196,6.2463,6.2952,6.431,6.4861,6.5118,6.5264,6.5815,6.6329,6.6476,6.6366,6.6219,6.5983,6.6843,6.765,6.8073,6.8495,6.8678,6.8678,6.875,6.8803,6.8678,6.8762,6.9126,6.9777,6.9156,6.847,6.7789,6.7168,6.6834,6.6834,6.6023,6.5801,6.6091,6.5949,6.5912,6.6091,6.4995,6.4624,0.0,0.0,0.0,0.0,0.0,0.0,0.0,0.0,0.0,0.0,0.0,4.2469,0.0,0.0,4.7532,4.9178,5.1202,5.282,5.3703,5.4528,5.4762,5.3995,5.4246,5.4667,5.5049,5.5791,5.6376,5.6677,5.7073,5.7634,5.8367,5.8349,5.8482,5.8843,5.8821,5.876,5.8602,5.9332,5.9647,5.9581,6.0412,6.1015,6.143,6.2333,6.2295,6.154,6.2711,6.2334,6.0902,6.2071,6.2372,6.1996,6.1958,6.0942,5.9547,5.9438,5.9665,6.0003,5.9852,6.0115,6.0414,6.0374,6.0033,5.9654,5.9984,5.9413,5.8762,5.9361,5.9575,5.9678,6.0434,6.115,6.2022,6.3272,6.381,6.4273,6.5118,6.5632,6.6035,6.6402,6.7136,6.7834,6.8238,6.8311,6.8017,6.721,6.7797,6.8458,6.8862,6.9265,6.9541,6.9595,6.9595,6.9595,6.9595,6.9757,6.9905,7.0293,7.0138,6.9887,6.9531,6.9174,6.9001,6.9001,6.8173,6.7765,6.7911,6.7321,6.7406,6.7911,6.7826,6.7158,0.0,0.0,0.0,0.0,0.0,0.0,0.0,0.0,4.12,4.2325,4.3365,4.4598,4.6313,4.8279,4.999,5.1124,5.3119,5.4802,5.5638,5.652,5.6606,5.5335,5.5758,5.6406,5.7052,5.767,5.8055,5.8131,5.8104,5.8405,5.9139,5.9201,5.952,6.0178,6.0264,6.0278,6.0138,6.0748,6.1015,6.0943,6.1808,6.256,6.3237,6.4293,6.4294,6.354,6.4104,6.3726,6.271,6.3308,6.3418,6.3381,6.4169,6.2782,6.0379,6.0304,6.0604,6.1054,6.09,6.116,6.1531,6.1446,6.1321,6.1348,6.1849,6.15,6.0995,6.1606,6.1486,6.1375,6.1861,6.2585,6.3468,6.4361,6.4934,6.5411,6.5705,6.6402,6.7173,6.7797,6.8568,6.9339,7.0,7.011,6.9669,6.8348,6.8715,6.9192,6.9376,6.9926,7.0422,7.0717,7.0662,7.0717,7.0826,7.0772,7.0698,7.0605,7.0676,7.0655,7.0507,7.0613,7.0665,7.0665,7.005,6.9767,6.9905,6.9187,6.9187,6.9955,6.9917,6.8926,3.7923,3.9128,4.0778,4.2159,4.3153,4.3936,0.0,0.0,4.5893,4.5316,4.6467,4.8105,4.966,5.0238,5.1239,5.3513,5.4718,5.5677,5.652,5.7402,5.7876,5.7659,5.7723,5.7887,5.7939,5.7915,5.8116,5.8835,5.8767,5.8995,5.9668,6.0354,6.0774,6.0783,6.15,6.1805,6.1732,6.1845,6.1808,6.1694,6.2557,6.3008,6.3158,6.47,6.4963,6.4174,6.4287,6.4582,6.5024,6.502,6.4608,6.4046,6.4823,6.4486,6.36,6.3681,6.3345,6.278,6.2541,6.201,6.1487,6.1199,6.1069,6.0974,6.1048,6.0958,6.0785,6.0766,6.1713,6.2733,6.2708,6.3319,6.4398,6.5852,6.5742,6.5705,6.71,6.8054,6.8678,6.8752,6.9412,7.0,7.0073,7.011,7.0036,6.9853,6.9889,7.022,7.0954,7.1213,7.16,7.2222,7.2521,7.2669,7.2724,7.2521,7.219,7.1562,7.1579,7.1246,7.0544,7.0507,7.0507,7.0507,7.0554,7.0568,7.0568,7.0597,7.0647,7.0772,7.0772,7.0623,4.268,4.3082,4.3542,0.0,4.5419,4.5784,4.6148,4.6551,4.6877,4.6993,4.8375,4.9759,5.0385,5.1689,5.3184,0.0,5.5618,5.6588,5.7913,5.8437,5.8819,5.9178,5.9311,5.9175,5.8678,5.9005,5.9312,5.9513,5.9906,6.0231,6.044,6.1163,6.1579,6.1543,6.177,6.1883,6.1767,6.2255,6.2703,6.3031,6.3892,6.479,6.5726,6.64,6.655,6.6175,6.5726,6.5726,6.5983,6.5983,6.5758,6.5496,6.5783,6.5715,6.5347,6.4416,6.4192,6.4262,6.4097,6.4084,6.4122,6.3461,6.3177,6.2974,6.2493,6.2576,6.2756,6.2708,6.3186,6.38,6.4127,6.4581,6.5294,6.6859,6.7283,6.7724,6.8862,6.9339,6.9743,7.022,7.0587,7.0954,7.1431,7.1505,7.1505,7.1505,7.1101,7.0917,7.1284,7.1782,7.2186,7.2459,7.2667,7.2779,7.276,7.261,7.2463,7.2188,7.2152,7.2005,7.1673,7.1839,7.1948,7.1948,7.168,7.1561,7.1561,7.1194,7.1231,7.1663,7.1764,7.1937,4.543,4.5587,0.0,4.6699,4.7162,4.7374,4.7374,4.7586,4.7951,4.8541,4.9827,5.0977,5.1346,5.2953,5.4574,5.5811,5.6511,5.7489,5.9083,5.934,5.9569,6.0023,6.0167,6.0053,5.9604,6.0137,6.0418,6.0194,6.0918,6.1306,6.1202,6.192,6.2335,6.2297,6.2408,6.2555,6.2663,6.3259,6.393,6.4668,6.5447,6.6343,6.7277,6.7502,6.7614,6.7576,6.724,6.6979,6.671,6.6934,6.6896,6.6747,6.6926,6.7,6.6896,6.5657,6.5322,6.5478,6.5389,6.5523,6.57,6.5013,6.4604,6.4362,6.3548,6.3836,6.4499,6.4241,6.4683,6.5294,6.5815,6.6198,6.6728,6.8071,6.8641,6.9119,6.9926,7.0257,7.0587,7.1211,7.1505,7.1835,7.2422,7.2496,7.2496,7.2496,7.2202,7.1872,7.1688,7.2165,7.2553,7.261,7.261,7.261,7.2496,7.2553,7.2553,7.2496,7.2553,7.2553,7.2496,7.276,7.2927,7.2927,7.2606,7.2414,7.2414,7.1886,7.1923,7.2466,7.2518,7.2904,4.3743,4.4624,4.5698,4.7274,4.8334,4.9034,4.9034,4.9685,5.0275,5.0245,5.0894,5.1953,5.3503,5.3963,5.4855,5.7159,5.7606,5.8244,5.9832,6.0061,6.0099,6.0099,6.0076,6.0285,6.0947,6.106,6.1065,6.0963,6.1651,6.2032,6.1958,6.2749,6.3123,6.3045,6.3796,6.4585,6.5373,6.5287,6.5657,6.6518,6.721,6.7128,6.6456,6.724,6.7614,6.7651,6.8473,6.8306,6.7542,6.8325,6.8176,6.7542,6.8182,6.8528,6.8623,6.8442,6.7496,6.6343,6.6209,6.5589,6.4782,6.4651,6.4413,6.407,6.326,6.4044,6.5118,6.431,6.5778,6.7577,6.7614,6.8201,6.9009,6.9816,6.9449,6.9119,6.9926,7.0734,7.1284,7.1321,7.1945,7.2459,7.2496,7.2496,7.2496,7.2496,7.312,7.334,7.2569,7.2496,7.261,7.2927,7.2704,7.2496,7.2496,7.261,7.2667,7.2496,7.261,7.2667,7.2496,7.261,7.2723,7.2723,7.289,7.2945,7.2945,7.2908,7.3017,7.3162,7.3054,7.3108,4.7566,4.8161,4.8833,5.0533,5.1167,5.1421,5.1421,5.17,5.1891,5.184,5.2119,5.2488,5.297,5.4013,5.526,5.6587,5.7768,5.8843,5.9885,6.0501,6.0621,5.9961,6.0837,6.1303,6.0861,6.0966,6.1193,6.1617,6.241,6.2824,6.2709,6.346,6.4174,6.4697,6.4353,6.4758,6.6101,6.5447,6.5769,6.7058,6.7831,6.8044,6.7784,6.8044,6.8145,6.8097,6.8394,6.8259,6.7901,6.8297,6.8259,6.8086,6.8346,6.8506,6.8554,6.8506,6.8219,6.7784,6.764,6.7406,6.7024,6.6322,6.6038,6.5841,6.4992,6.5446,6.6302,6.6559,6.7116,6.7797,6.8348,6.8715,6.9119,6.9926,7.0293,7.0734,7.1505,7.1908,7.2092,7.2092,7.2312,7.2679,7.3193,7.3303,7.3487,7.4001,7.3772,7.3699,7.4074,7.3992,7.4052,7.4228,7.4169,7.4111,7.4111,7.4169,7.4228,7.4322,7.4343,7.4343,7.4401,7.4457,7.4256,7.3739,7.3739,7.3536,7.2982,7.2982,7.3332,7.385,7.3795,7.4146,4.9997,5.0506,5.0862,5.2205,5.2574,5.2601,5.2601,5.2802,5.3031,5.3003,5.3095,5.3198,5.3384,5.4362,5.5379,5.6197,5.746,5.8753,5.983,6.0373,6.0615,6.066,6.1536,6.1956,6.1582,6.1619,6.1883,6.2372,6.3045,6.3456,6.3533,6.4203,6.4878,6.5403,6.5095,6.5571,6.6829,6.6172,6.6444,6.7629,6.7937,6.8049,6.7914,6.8,6.7951,6.7802,6.806,6.8208,6.8208,6.8259,6.8309,6.8346,6.8791,6.8902,6.8865,6.8865,6.9039,6.9187,6.8531,6.7938,6.7346,6.6679,6.6445,6.6321,6.5817,6.6478,6.7626,6.8088,6.8586,6.9119,6.9577,6.9944,7.033,7.0844,7.1358,7.1872,7.2386,7.2496,7.2496,7.2496,7.2716,7.3083,7.3597,7.3927,7.4404,7.5212,7.4799,7.4482,7.4941,7.4859,7.4799,7.4978,7.4918,7.4918,7.4918,7.4941,7.5037,7.5132,7.519,7.5248,7.5211,7.5383,7.5161,7.4551,7.4551,7.4329,7.3776,7.372,7.3978,7.4494,7.4437,7.4789,5.0995,5.1547,5.1777,5.2558,5.2748,5.2802,5.284,5.3338,5.3812,5.3832,5.3765,5.3935,0.0,0.0,5.5274,5.6095,5.7005,5.8142,5.9772,5.987,6.0405,0.0,0.0,0.0,0.0,0.0,6.3038,6.3193,6.3705,6.4075,6.4359,6.494,6.5347,6.5432,6.6051,6.6792,6.7651,6.7551,6.781,6.8346,6.774,6.7321,6.7073,6.7259,6.7173,6.7073,6.7848,6.8232,6.8333,6.837,6.8407,6.8494,6.9372,6.9669,6.9531,6.9531,7.005,7.0494,6.8925,6.742,6.6075,6.5977,6.5828,6.5764,6.5878,6.7347,6.8972,6.9009,7.0146,7.1264,7.1223,7.183,7.2496,7.2496,7.2496,7.2496,7.2496,7.2496,7.2496,7.2496,7.3193,7.378,7.3817,7.4478,7.5285,7.6056,7.6081,7.5788,7.5279,7.5088,7.5088,7.5227,7.5147,7.5028,7.5028,7.511,7.5169,7.5028,7.5359,7.5359,7.5028,7.5437,7.5513,7.5153,7.5343,7.5306,7.5117,7.4941,7.4978,7.5153,7.5014,7.5227,5.348,5.348,5.3518,5.5632,5.5708,5.5435,5.6042,5.6315,5.6095,5.4874,5.4183,5.3613,5.3139,5.4107,5.5464,5.6853,5.8824,6.0497,6.1489,6.2027,0.0,6.1921,0.0,6.3375,6.284,6.328,6.3873,6.4599,6.4903,6.5057,6.5099,6.5928,6.6641,6.7155,6.6649,6.7046,6.8409,6.8863,6.9174,6.9348,6.9656,6.9791,6.9739,6.9636,6.9252,6.8735,6.9442,6.9389,6.8963,6.9553,6.9864,6.9969,7.0309,7.0522,7.0536,7.0434,7.0531,7.0591,6.9975,6.9516,6.9184,6.9024,6.897,6.8916,6.897,6.9357,6.9926,7.0381,7.0877,7.1411,7.1882,7.2233,7.2496,7.2496,7.2496,7.2496,7.2496,7.2496,7.2496,7.2496,7.3634,7.4771,7.5395,7.6166,7.679,7.6974,7.6949,7.6876,7.6778,7.668,7.6741,7.6958,7.7017,7.7017,7.6935,7.6958,7.6958,7.6898,7.6994,7.7054,7.7076,7.7076,7.6759,7.6074,7.5978,7.5625,7.4941,7.4918,7.5271,7.6037,7.5859,7.6309,5.5404,5.5517,5.5479,5.698,5.698,5.6708,5.6853,5.7125,5.6784,5.4806,5.404,5.3585,5.2967,5.401,5.5481,0.0,0.0,0.0,6.2022,6.2372,6.2635,0.0,6.3563,0.0,6.328,6.3861,6.4525,6.4972,6.5142,6.5421,6.5881,6.6662,6.7254,6.7576,6.7448,6.7915,6.9123,6.9793,7.0101,7.005,7.0443,7.056,7.0454,7.0401,7.0089,6.9667,7.0054,6.9981,6.9667,7.0109,7.0347,7.0438,7.093,7.1131,7.1131,7.1078,7.1246,7.1505,7.0901,7.09,7.0991,6.9926,6.9559,6.9633,7.0018,7.0386,7.0807,7.15,7.1778,7.1888,7.2248,7.238,7.2496,7.2496,7.2496,7.2496,7.2496,7.2496,7.2716,7.3413,7.4294,7.5285,7.6423,7.7011,7.7304,7.7304,7.7402,7.7463,7.7463,7.7365,7.7365,7.7643,7.7643,7.7584,7.762,7.7524,7.7463,7.7463,7.7524,7.7584,7.7547,7.7643,7.7422,7.6801,7.6764,7.6484,7.5983,7.6043,7.6323,7.6764,7.6764,7.7082,5.6828,5.7234,5.7262,5.7559,5.7484,5.7219,5.6633,5.6873,5.6576,5.4141,5.3564,5.3489,5.3361,5.4103,5.5383,5.7295,0.0,6.0405,6.2251,6.2184,6.2553,6.4176,6.4083,6.3953,6.4022,6.4606,6.5039,6.5125,6.5254,6.5732,6.6662,6.7344,6.7691,6.7682,6.8283,6.9014,6.983,7.0457,7.0761,7.0655,7.0713,7.0679,7.0459,7.057,7.0441,7.0312,7.0367,7.0441,7.0477,7.0587,7.0624,7.0698,7.147,7.1765,7.1711,7.1655,7.2097,7.2556,7.1782,7.183,7.1992,7.0017,6.9376,6.9522,7.0349,7.1029,7.1615,7.2255,7.2496,7.2438,7.2358,7.238,7.2496,7.2496,7.2496,7.2532,7.2642,7.2753,7.323,7.4625,7.4992,7.5542,7.7047,7.7304,7.7304,7.7304,7.7463,7.762,7.7584,7.7463,7.7487,7.7783,7.7547,7.7463,7.7584,7.7463,7.7341,7.7304,7.7463,7.7463,7.7341,7.7547,7.7643,7.7341,7.7463,7.7463,7.7304,7.7463,7.7537,7.7488,7.75,7.7731,5.7695,5.7623,5.7397,5.9001,5.8778,5.8178,5.8089,5.7602,0.0,5.395,5.2953,5.2529,5.2439,5.324,5.5049,5.8631,6.0062,6.1536,6.3729,6.3991,6.3949,0.0,6.4083,6.4257,6.4755,6.4897,6.5523,6.676,6.6965,6.7133,6.7328,6.8073,6.8677,6.91,6.9133,6.9525,7.0338,7.1152,7.1505,7.1505,7.2005,7.2281,7.2262,7.2149,7.1782,7.1305,7.1855,7.1745,7.1305,7.1855,7.2206,7.2318,7.2465,7.2614,7.2706,7.2558,7.2613,7.263,7.2406,7.2386,7.2365,7.2018,7.1757,7.1736,7.2055,7.2202,7.2255,7.2321,7.238,7.2438,7.2358,7.238,7.2496,7.2496,7.2496,7.2679,7.334,7.4001,7.4588,7.4845,7.5432,7.6203,7.7157,7.7304,7.7304,7.7304,7.7463,7.7643,7.7762,7.7725,7.7783,7.7957,7.79,7.7842,7.7762,7.7762,7.7643,7.7304,7.7304,7.7341,7.7304,7.7365,7.7365,7.7304,7.7304,7.7304,7.7304,7.7341,7.7733,7.8517,7.7696,7.8283,5.8533,5.8535,5.8309,5.8826,5.8977,5.8641,5.7423,0.0,0.0,5.3843,5.2779,5.2364,5.2686,5.3603,5.529,5.8412,6.0031,6.1578,6.3464,6.4024,6.4206,6.4203,6.4495,6.478,6.5061,6.5837,6.6602,6.7243,6.8097,6.8357,6.8044,6.8234,6.8729,6.9392,6.9679,7.0216,7.1135,7.1839,7.2245,7.2245,7.2483,7.261,7.261,7.2496,7.2333,7.2059,7.2349,7.2333,7.2059,7.2349,7.2553,7.261,7.261,7.2667,7.276,7.261,7.261,7.261,7.2496,7.2438,7.2416,7.2496,7.2438,7.238,7.2496,7.2496,7.2496,7.238,7.2438,7.2496,7.238,7.2438,7.2496,7.2496,7.2826,7.312,7.3083,7.3707,7.4404,7.4845,7.5212,7.5873,7.7121,7.7304,7.7341,7.7463,7.7524,7.7643,7.782,7.7666,7.7666,7.7957,7.7783,7.7666,7.7703,7.7584,7.7426,7.7304,7.7304,7.7304,7.7304,7.7304,7.7304,7.7304,7.7217,7.7217,7.7217,7.7217,7.7401,7.7767,7.7364,7.7683,5.9064,5.929,5.9177,5.8646,5.8985,5.8834,5.6417,5.5734,0.0,5.3402,5.2454,5.2159,5.3112,5.3924,5.5309,5.7855,5.9359,6.094,6.2899,6.3568,6.4016,6.4284,6.487,0.0,6.5447,6.6702,6.7496,6.754,6.8766,6.9235,6.8668,6.843,6.8683,6.9442,7.0146,7.0956,7.1839,7.2392,7.2667,7.2667,7.2553,7.2496,7.2496,7.2496,7.2496,7.2496,7.2496,7.2496,7.2496,7.2496,7.2496,7.2496,7.2496,7.2496,7.2496,7.2496,7.2496,7.2496,7.2553,7.2438,7.2321,7.2496,7.2496,7.2438,7.2496,7.2496,7.2496,7.2496,7.2496,7.2496,7.2496,7.2496,7.2496,7.2496,7.312,7.3523,7.2899,7.3377,7.4184,7.4992,7.5175,7.5616,7.7084,7.7304,7.7341,7.7524,7.7584,7.7643,7.7762,7.7547,7.7487,7.79,7.7547,7.7402,7.7584,7.7463,7.7341,7.7304,7.7304,7.7304,7.7304,7.7304,7.7304,7.7304,7.7217,7.7155,7.7155,7.7092,7.7102,7.7121,7.7039,7.7222,5.906,5.9401,5.9327,5.9363,5.9326,5.8688,5.635,0.0,5.4067,5.2376,5.1463,5.1419,5.294,5.337,5.4533,5.7636,5.8274,5.9513,6.2671,6.3158,6.3496,6.4209,0.0,0.0,6.6194,6.6955,6.7682,6.8357,6.8962,6.9236,6.9057,6.9004,6.9319,7.0018,7.077,7.1578,7.2443,7.2459,7.2496,7.2496,7.2496,7.2496,7.2496,7.2496,7.2496,7.2496,7.2496,7.2496,7.2496,7.2496,7.2496,7.2496,7.2496,7.2496,7.2496,7.2496,7.2496,7.2496,7.2667,7.261,7.2496,7.2667,7.2496,7.2358,7.2438,7.2496,7.2496,7.2496,7.2496,7.2496,7.2496,7.2496,7.2496,7.2496,7.312,7.367,7.3597,7.4221,7.5028,7.5836,7.5983,7.6276,7.7157,7.7304,7.7341,7.7304,7.7463,7.7584,7.762,7.7584,7.7584,7.7643,7.7426,7.7365,7.7584,7.7584,7.7463,7.7304,7.7304,7.7304,7.7304,7.7304,7.7304,7.7304,7.7279,7.7243,7.7243,7.7155,7.7458,7.8126,7.7231,7.8098,5.9244,5.951,5.9359,5.8834,5.8648,5.8123,5.6131,0.0,5.3536,5.286,5.2102,5.1876,5.3043,5.3682,5.474,5.7,5.7824,5.8951,6.128,6.2405,6.3116,6.3416,6.494,6.6045,6.6254,6.7393,6.8453,6.9076,6.9207,6.9458,6.9814,6.9742,7.0055,7.0807,7.1138,7.1688,7.2496,7.2496,7.2496,7.2496,7.2496,7.2496,7.2496,7.2496,7.2496,7.2496,7.2496,7.2496,7.2496,7.2496,7.2496,7.2496,7.2496,7.2553,7.261,7.261,7.2667,7.2816,7.2872,7.2872,7.2816,7.2723,7.261,7.2553,7.261,7.2553,7.2496,7.261,7.2553,7.2496,7.2496,7.2496,7.2496,7.2496,7.312,7.356,7.3083,7.3597,7.4404,7.5212,7.5395,7.5799,7.7084,7.7304,7.7341,7.7463,7.7463,7.7463,7.7584,7.7524,7.7463,7.7402,7.7304,7.7304,7.7402,7.7402,7.7402,7.7341,7.7818,7.8075,7.8075,7.8552,7.8809,7.8809,7.8683,7.8583,7.8455,7.8297,7.831,7.8535,7.8244,7.8316,5.9012,5.9392,5.9395,5.8792,5.8382,5.7745,0.0,0.0,5.3193,5.2962,5.2215,5.1952,5.3043,5.3691,5.4672,5.6551,5.7339,5.8427,6.0304,6.1464,6.2323,6.2807,6.4476,6.5769,6.6164,6.7682,6.8951,6.9739,6.971,7.0048,7.0901,7.0863,7.0954,7.1321,7.1541,7.1945,7.2496,7.2496,7.2496,7.2496,7.2496,7.2496,7.2496,7.2496,7.2496,7.2496,7.2496,7.2496,7.2496,7.2496,7.2496,7.2553,7.2553,7.2667,7.2779,7.2779,7.2835,7.2927,7.3037,7.2982,7.2927,7.2835,7.2835,7.2779,7.2835,7.2723,7.261,7.2723,7.2723,7.2647,7.2647,7.261,7.2553,7.2553,7.3178,7.3597,7.3303,7.3634,7.4368,7.5432,7.5432,7.5689,7.7084,7.7304,7.7341,7.7463,7.7402,7.7341,7.7463,7.7365,7.7304,7.7402,7.7402,7.7402,7.7341,7.7304,7.7304,7.7304,7.8112,7.8589,7.8589,7.936,7.9764,7.97,7.9572,7.9406,7.9208,7.8789,7.8545,7.8408,7.8259,7.7824,5.8216,5.8942,5.951,5.9581,5.8834,5.7712,5.6161,5.4439,5.2977,5.2177,5.1318,5.118,5.2832,5.317,5.3962,5.6293,5.6815,5.7714,6.0038,6.0413,6.101,6.2496,6.3382,6.445,6.6052,6.7587,6.9076,7.036,7.0507,7.1047,7.2386,7.2496,7.2129,7.1321,7.2092,7.2496,7.2496,7.2496,7.2496,7.2496,7.2496,7.2496,7.2496,7.2496,7.2496,7.2496,7.2496,7.2496,7.2496,7.2496,7.2553,7.2723,7.2723,7.2779,7.2982,7.2982,7.2872,7.2779,7.3091,7.2945,7.2779,7.3091,7.3091,7.3037,7.3145,7.2945,7.2723,7.2927,7.2982,7.2982,7.2982,7.2872,7.2723,7.2723,7.3235,7.3927,7.4698,7.4882,7.5359,7.6974,7.6644,7.635,7.7194,7.7304,7.7304,7.7304,7.7304,7.7304,7.7304,7.7304,7.7402,7.762,7.762,7.7524,7.7341,7.7304,7.7304,7.7304,7.8112,7.8589,7.8589,7.936,7.97,7.9507,7.9507,7.9442,7.9245,7.8244,7.7813,7.7777,7.6741,7.6311,5.7327,5.7478,5.737,5.7905,5.6932,5.5847,5.5819,5.4124,5.2429,5.2096,5.1769,5.1668,5.2258,5.311,5.4202,5.5728,5.6368,5.7155,5.8615,6.0227,6.1609,6.2571,6.4786,6.6621,6.7662,6.8025,6.8703,6.9725,7.0159,7.0772,7.1728,7.2316,7.25,7.2129,7.2386,7.2496,7.2496,7.2496,7.2496,7.2496,7.2496,7.2496,7.2496,7.2496,7.2496,7.2496,7.2496,7.2496,7.2496,7.2496,7.2496,7.2553,7.2667,7.2835,7.2982,7.3091,7.3145,7.3162,7.3199,7.3199,7.3162,7.3091,7.3091,7.3145,7.3199,7.3091,7.2927,7.2982,7.2982,7.2982,7.2835,7.2835,7.3019,7.346,7.3811,7.4273,7.5084,7.5153,7.5426,7.6612,7.6397,7.641,7.7316,7.7524,7.7463,7.7304,7.7402,7.7463,7.7341,7.7487,7.7643,7.7584,7.7762,7.7783,7.7666,7.7584,7.7524,7.7524,7.8174,7.8589,7.8589,7.936,8.0057,8.0544,7.9865,7.9698,8.0047,7.9044,7.8613,7.8576,7.7575,7.7534,5.5466,5.6292,5.6639,5.6866,5.6047,0.0,5.5362,5.3704,5.2046,5.1644,5.1506,5.1555,5.1855,5.2885,5.4088,5.5282,5.6181,5.7155,5.8353,6.004,0.0,6.2977,6.5589,6.7455,6.7926,6.8333,6.8934,6.9747,7.0401,7.1048,7.1838,7.2353,7.261,7.2496,7.2496,7.2496,7.2496,7.2496,7.2496,7.2496,7.2496,7.2496,7.2496,7.2496,7.2496,7.2496,7.2496,7.2496,0.0,7.2553,7.2667,7.2779,7.2835,7.3037,7.3145,7.3252,7.3252,7.3252,7.3199,7.3252,7.3252,7.3091,7.3145,7.3252,7.3199,7.3199,7.3145,7.3145,7.3091,7.3111,7.3369,7.3425,7.3647,7.4403,7.4866,7.5235,7.5715,7.6027,7.6338,7.6855,7.681,7.6875,7.7389,7.7524,7.7524,7.7341,7.7463,7.7524,7.7341,7.7781,7.7975,7.768,7.8079,7.8233,7.7937,7.7703,7.762,7.762,7.821,7.8589,7.8589,7.936,8.0021,8.047,7.9828,7.9661,7.9974,7.8971,7.854,7.854,7.7792,7.8042,0.0,5.5025,5.6721,5.614,5.582,5.5497,5.478,5.3321,0.0,5.0967,5.0792,5.0997,5.1686,5.2615,5.3703,5.5024,5.6179,5.7414,5.899,6.0151,0.0,6.3562,6.5923,6.7306,6.7049,6.8494,6.9599,7.02,7.0993,7.1691,7.2386,7.2459,7.2496,7.2496,7.2496,7.2496,7.2496,7.2496,7.2496,7.2496,7.2496,7.2496,7.2496,7.2496,7.2496,7.2496,7.2496,7.2553,7.2723,7.2723,7.289,7.3199,7.3199,7.3305,7.341,7.3372,7.3252,7.3037,7.3145,7.3091,7.3037,7.3145,7.3305,7.3372,7.3252,7.3305,7.3372,7.3372,7.3305,7.3437,7.4323,7.4384,7.4441,7.544,7.6161,7.6639,7.6675,7.7266,7.7762,7.7643,7.7584,7.7524,7.7341,7.7463,7.7524,7.7341,7.7463,7.756,7.7414,7.8112,7.8419,7.7983,7.8596,7.8766,7.8162,7.7799,7.762,7.762,7.8137,7.8516,7.8516,7.9213,7.9553,7.9397,7.9397,7.9231,7.9062,7.8171,7.7777,7.7777,7.7611,7.8014,5.0799,0.0,5.2968,5.401,5.3783,5.3366,0.0,5.293,5.1926,5.0967,5.1217,5.1607,5.186,5.296,5.4048,5.4528,5.5805,5.734,5.9028,6.2663,0.0,6.399,6.6545,6.7821,6.6452,6.7592,6.8698,6.9495,7.0091,7.079,7.1541,7.2165,7.2496,7.2496,7.2496,7.2496,7.2496,7.2496,7.2496,7.2496,7.2496,7.2496,7.2496,7.2496,7.2496,7.2496,7.261,7.2667,7.2723,7.2872,7.2982,7.3037,7.3145,7.3199,7.3252,7.332,7.3305,7.3145,7.3199,7.3199,7.3199,7.3305,7.3372,7.3372,7.3252,7.3305,7.3372,7.3305,7.3252,7.3384,7.4253,7.4384,7.47,7.6162,7.6736,7.7126,7.7756,7.796,7.7957,7.79,7.7783,7.7703,7.7524,7.7762,7.7783,7.7584,7.7643,7.7924,7.837,7.8712,7.9127,7.9593,7.9379,7.9142,7.9014,7.8248,7.7703,7.762,7.7586,7.7635,7.7635,7.7818,7.8222,7.8783,7.8492,7.8033,7.7385,7.7492,7.7642,7.7813,7.8191,7.8847,5.0058,5.0871,5.2047,5.2902,5.312,5.3186,5.3429,5.284,5.1949,5.1058,5.1393,5.1898,5.1893,5.3815,5.5132,5.4383,5.6256,5.8466,6.0153,6.3259,6.5309,6.5073,6.6462,6.7402,6.7061,6.8023,6.8794,6.9184,7.0073,7.0844,7.1341,7.2112,7.2496,7.2496,7.2496,7.2496,7.2496,7.2438,7.2438,7.2496,7.2438,7.2438,7.2496,7.2496,7.2553,7.261,7.2667,7.2779,7.2945,7.3037,7.3145,7.3199,7.3252,7.3305,7.3305,7.3372,7.3305,7.3091,7.3199,7.3199,7.3199,7.3357,7.3372,7.3372,7.3252,7.3252,7.3305,7.3145,7.3145,7.3458,7.4643,7.494,7.5347,7.7089,7.7552,7.7756,7.8202,7.8221,7.8127,7.8014,7.7957,7.7842,7.7643,7.7783,7.79,7.7643,7.7762,7.8079,7.8688,7.9215,7.9704,8.0147,7.9875,7.9527,7.9157,7.8301,7.7643,7.7584,7.7402,7.7304,7.7304,7.7304,7.7463,7.7877,7.7651,7.7486,7.7348,7.7559,7.8073,7.8904,7.9133,7.968,4.9959,5.1266,5.2493,5.2409,5.3148,5.3756,5.3573,5.3013,5.2227,5.1307,0.0,5.2253,5.2451,5.4709,5.6101,5.4724,5.7342,6.0151,6.1799,6.3547,6.5073,6.6038,6.6342,6.6813,6.7677,6.8698,6.9221,6.9115,7.0459,7.1377,7.1453,7.2112,7.2496,7.2496,7.2496,7.2496,7.2496,7.2416,7.2416,7.2496,7.238,7.238,7.2496,7.2496,7.2553,7.2723,7.2723,7.289,7.3199,7.3199,7.3305,7.3372,7.3372,7.3372,7.3372,7.3372,7.3252,7.3037,7.3145,7.3199,7.3252,7.332,7.3424,7.3372,7.3252,7.3252,7.3252,7.3037,7.3091,7.3569,7.5162,7.5606,7.6069,7.7905,7.8276,7.8276,7.8276,7.8276,7.8221,7.8071,7.8014,7.7957,7.7643,7.7783,7.79,7.7643,7.7894,7.838,7.8994,7.9829,8.0503,8.0614,8.0392,7.9986,7.9261,7.8256,7.762,7.756,7.7402,7.7378,7.7524,7.7524,7.7463,7.7275,7.7385,7.7587,7.8005,7.8098,7.8867,8.0212,7.9967,8.0332,5.0101,5.137,5.2653,5.252,5.3166,5.384,5.3698,5.3497,5.3059,5.2265,5.2604,5.3527,5.4924,5.4969,5.516,5.6288,5.914,6.1796,6.336,6.6194,6.7419,6.5464,6.6928,6.7603,6.626,6.7982,6.9115,6.9115,7.0459,7.1321,7.1321,7.2055,7.2496,7.2496,7.2496,7.2496,7.2496,7.2496,7.2496,7.2496,7.2496,7.2496,7.2496,7.2496,7.2553,7.2723,7.2872,7.3037,7.3199,7.3357,7.3372,7.3372,7.3372,7.3372,7.3372,7.3372,7.3252,7.2982,7.3037,7.3199,7.3372,7.3372,7.3476,7.3527,7.3305,7.3357,7.3461,7.3091,7.2982,7.3461,7.5271,7.5716,7.6069,7.7905,7.8276,7.8276,7.8276,7.8276,7.8221,7.8071,7.8127,7.8108,7.768,7.7783,7.7957,7.782,7.8374,7.9172,8.0082,8.0955,8.1756,8.2422,8.1311,8.0363,8.011,7.8588,7.7524,7.7341,7.7341,7.7635,7.8369,7.8405,7.8343,7.8117,7.8646,7.8552,7.8005,7.9053,7.9819,8.0212,7.9967,8.0332,5.0139,5.1383,5.2793,5.3198,5.4275,5.5351,5.5692,5.5337,5.4708,5.3875,5.3905,5.442,5.5626,5.6504,5.7714,5.9701,6.1232,6.2612,6.368,6.5546,6.6657,6.6258,6.7083,6.7679,6.759,6.8873,6.9741,6.9741,7.068,7.1321,7.1434,7.1998,7.238,7.238,7.238,7.238,7.238,7.2438,7.2496,7.2496,7.2438,7.2438,7.2496,7.2553,7.2667,7.2872,7.3037,7.3199,7.3305,7.3372,7.3372,7.3372,7.3372,7.3372,7.3372,7.3357,7.3305,7.3305,7.3145,7.3252,7.3372,7.3372,7.3476,7.3564,7.3357,7.3372,7.3424,7.3305,7.3548,7.4179,7.5382,7.605,7.6736,7.8016,7.8276,7.8276,7.8276,7.8276,7.8276,7.8221,7.8221,7.8221,7.7842,7.8051,7.8108,7.7879,7.8581,7.9453,8.0267,8.1141,8.2015,8.2708,8.1747,8.0799,8.0174,7.8885,7.788,7.7341,7.7304,7.7488,7.7892,7.827,7.83,7.8171,7.8741,7.908,7.8981,7.9605,8.0185,8.069,8.0549,8.0766,5.0212,5.1585,5.3188,5.3875,5.508,5.6369,5.7308,5.6869,5.6088,5.5572,5.5334,5.5578,5.6564,5.8309,6.0228,6.2126,6.2757,6.3387,6.4488,6.5299,6.6175,6.7306,6.7531,6.7959,6.9004,6.9944,7.0533,7.0533,7.1194,7.1635,7.1747,7.2108,7.2358,7.2358,7.2299,7.2299,7.2299,7.238,7.2438,7.2496,7.2438,7.2438,7.2553,7.2723,7.2835,7.2982,7.3145,7.3252,7.3357,7.341,7.3372,7.3372,7.3372,7.3424,7.3461,7.3252,7.3357,7.3564,7.3305,7.3305,7.3372,7.3372,7.3476,7.3578,7.3424,7.3424,7.3461,7.3632,7.4264,7.5007,7.5531,7.6253,7.705,7.8053,7.8276,7.8276,7.8276,7.8276,7.8276,7.8276,7.8276,7.8221,7.8014,7.8127,7.8165,7.7879,7.8787,7.9675,8.011,8.1229,8.2116,8.2659,8.1957,8.101,7.9793,7.886,7.8002,7.7378,7.7304,7.7353,7.7536,7.8034,7.8244,7.8231,7.9117,7.978,8.0187,8.0368,8.0766,8.1382,8.0984,8.0911,5.0367,5.2141,5.4027,5.4153,5.4728,5.569,5.7156,5.6861,5.6421,5.6986,5.7003,5.7393,5.8945,5.9928,6.0754,6.1574,6.2874,6.4619,6.6909,6.7677,6.8087,6.8198,6.8646,6.8967,6.9115,7.0349,7.1211,7.1211,7.1945,7.2422,7.2422,7.2459,7.2496,7.2496,7.2321,7.2299,7.2299,7.2299,7.2416,7.2496,7.261,7.2667,7.2723,7.2927,7.2982,7.2982,7.3145,7.3199,7.3199,7.3357,7.3372,7.3372,7.3372,7.3476,7.3527,7.3305,7.3357,7.3564,7.3305,7.3305,7.3372,7.3372,7.3476,7.3578,7.3424,7.3513,7.3713,7.4354,7.5081,7.5713,7.5787,7.5824,7.6307,7.7905,7.8276,7.8276,7.8276,7.8276,7.8276,7.8276,7.8276,7.8221,7.8014,7.8014,7.7957,7.7783,7.9113,8.0147,8.0184,8.1625,8.2659,8.2696,8.1994,8.0788,7.902,7.7953,7.7378,7.7304,7.7304,7.7609,7.819,7.8263,7.8471,7.8904,8.043,8.116,8.102,8.1744,8.2143,8.2179,8.0694,8.0404,5.0344,5.2179,5.4104,5.4129,5.5097,5.6469,5.8043,5.8166,5.7802,5.746,5.7737,5.832,5.9321,6.1845,6.361,6.3102,6.4898,6.6612,6.7356,6.8118,6.8691,6.9125,6.9702,7.0249,7.0551,7.1563,7.2169,7.2169,7.2406,7.2553,7.261,7.2438,7.2416,7.2416,7.2358,7.2299,7.2299,7.238,7.2438,7.2496,7.2553,7.261,7.2723,7.2779,7.2927,7.3145,7.3199,7.3252,7.3357,7.3372,7.3372,7.3372,7.3372,7.3527,7.3715,7.3461,7.3513,7.3715,7.341,7.3357,7.3372,7.3372,7.3564,7.3715,7.3476,7.3899,7.4536,7.4681,7.5261,7.6043,7.651,7.6976,7.7496,7.8128,7.8276,7.8276,7.8276,7.8276,7.8276,7.8276,7.8276,7.8276,7.8221,7.8221,7.8108,7.7879,7.9187,8.0161,8.01,8.1538,8.2471,8.2471,8.1266,8.0173,7.9485,7.8075,7.7304,7.7304,7.7304,7.7389,7.7657,7.8455,7.8917,7.9111,8.0978,8.1888,8.1853,8.2143,8.2287,8.2251,8.1165,8.0802,5.1079,5.2394,5.3899,5.4702,5.5556,5.6622,5.8462,5.869,5.8432,5.8218,5.8759,5.9526,6.015,6.3012,6.5078,6.4449,6.6288,6.7815,6.7933,6.8362,6.89,6.9534,7.0198,7.084,7.1398,7.2188,7.2667,7.2779,7.261,7.2553,7.2723,7.2496,7.2321,7.2321,7.2358,7.2299,7.2299,7.238,7.2438,7.2438,7.2496,7.2553,7.2723,7.2779,7.2945,7.3145,7.3252,7.3305,7.3357,7.3372,7.341,7.3357,7.3372,7.3564,7.3715,7.3476,7.3564,7.3765,7.3476,7.3372,7.3372,7.3424,7.3615,7.3715,7.3564,7.3987,7.4648,7.5082,7.5641,7.6207,7.727,7.7791,7.8089,7.8312,7.8332,7.8332,7.8276,7.8276,7.8276,7.8276,7.8276,7.8276,7.8276,7.8276,7.8221,7.79,7.9025,7.9963,7.9977,8.1192,8.2113,8.2343,8.0782,7.98,7.98,7.8259,7.7304,7.7304,7.7561,7.7756,7.8013,7.8756,7.9397,7.9839,8.1452,8.2287,8.2287,8.2287,8.2287,8.2251,8.1454,8.1128,5.274,5.2947,5.3513,5.6078,5.595,5.5853,5.8258,5.8234,5.8111,5.9517,6.0402,6.1127,6.1883,6.3351,6.4627,6.5249,6.6743,6.8084,6.8809,6.8697,6.8754,6.942,6.9975,7.0624,7.1434,7.2132,7.261,7.2982,7.2667,7.2553,7.2723,7.2553,7.2496,7.2496,7.2358,7.2299,7.2299,7.2299,7.2299,7.2299,7.2438,7.2553,7.2723,7.3,7.3145,7.3037,7.3268,7.3357,7.3199,7.3357,7.3357,7.3199,7.3357,7.3476,7.3578,7.3424,7.3564,7.3765,7.3476,7.3372,7.3424,7.3564,7.3578,7.3665,7.3765,7.3715,7.4001,7.5706,7.6103,7.6409,7.8048,7.8006,7.7648,7.8363,7.8495,7.8495,7.8332,7.8276,7.8276,7.8276,7.8276,7.8276,7.8276,7.8276,7.8221,7.8014,7.8755,7.949,7.994,8.0713,8.146,8.2113,8.0755,7.98,7.98,7.8295,7.7341,7.7341,7.8148,7.8893,7.9471,7.9311,7.9943,8.1339,8.2033,8.2287,8.2287,8.2287,8.2287,8.2251,8.1454,8.1128,5.1101,5.2853,0.0,5.483,0.0,5.8054,5.8728,5.872,5.8863,5.9817,6.0951,6.1876,6.2032,6.4407,6.6249,6.6223,6.7648,6.8809,6.8884,6.9229,6.9755,7.0537,7.0998,7.1689,7.2593,7.2779,7.2927,7.3145,7.2835,7.2723,7.2927,7.261,7.2496,7.2496,7.2438,7.2438,7.2438,7.2438,7.2438,7.2438,7.2553,7.2723,7.2927,7.2835,7.3,7.3305,7.3252,7.3305,7.332,7.3372,7.3357,7.3199,7.3357,7.3424,7.3424,7.3424,7.3564,7.3765,7.3615,7.3578,7.3715,7.3715,7.3815,7.3912,7.3815,7.4237,7.496,7.6094,7.6755,7.7466,7.8616,7.8779,7.8565,7.8367,7.8441,7.8495,7.8332,7.8276,7.8276,7.8276,7.8276,7.8276,7.8127,7.8221,7.8221,7.79,7.8697,7.9675,8.0677,8.0956,8.137,8.2113,8.1269,8.0645,8.0645,7.9653,7.9066,7.9066,7.9837,8.0131,7.9737,7.9925,8.049,8.151,8.2067,8.2287,8.2287,8.2287,8.2287,8.2251,8.1454,8.1128,5.2158,5.3642,0.0,5.5847,5.7243,5.8711,5.968,5.9642,5.9824,6.1317,6.189,6.2478,6.3389,6.5424,6.6921,6.7005,6.8166,6.9027,6.8838,6.95,7.0273,7.0958,7.142,7.2113,7.3124,7.3037,7.2982,7.3252,7.289,7.2779,7.3037,7.2723,7.2553,7.2553,7.2553,7.2553,7.2496,7.2496,7.2496,7.2553,7.2667,7.2835,7.3091,7.2945,7.3,7.3252,7.3252,7.3357,7.3372,7.3372,7.3305,7.3145,7.3357,7.3372,7.3335,7.3424,7.3665,7.3864,7.3715,7.3765,7.3815,7.3864,7.3961,7.4009,7.3961,7.4298,7.4983,7.6193,7.6916,7.7554,7.8716,7.9116,7.9066,7.8655,7.8602,7.8655,7.8495,7.8386,7.8386,7.8386,7.8332,7.8276,7.8127,7.8221,7.8221,7.8051,7.8697,7.9579,8.0566,8.0919,8.1305,8.2113,8.1489,8.1012,8.1012,8.0241,7.991,8.0241,8.0718,8.1085,8.1232,8.1703,8.2158,8.2563,8.312,8.2831,8.1817,8.2143,8.2143,8.1817,8.1346,8.1128,5.4641,5.4886,5.5222,5.8148,5.8406,0.0,6.0974,6.0836,6.0919,6.3302,6.3027,6.3084,6.5388,6.6284,6.6941,6.7621,6.8451,6.8975,6.8856,6.9612,7.0385,7.092,7.1479,7.2187,7.3124,7.2945,7.2945,7.3372,7.3,7.289,7.3199,7.289,7.2723,7.2723,7.2723,7.2667,7.2496,7.2496,7.261,7.2723,7.2723,7.289,7.3199,7.3199,7.3145,7.3037,7.3268,7.3372,7.3372,7.3372,7.3252,7.3037,7.3305,7.3372,7.3298,7.3527,7.3765,7.3961,7.3864,7.3864,7.3864,7.4009,7.4056,7.4056,7.4151,7.4104,7.4356,7.6027,7.6488,7.6826,7.8329,7.8928,7.915,7.8854,7.884,7.8864,7.8708,7.8602,7.8495,7.8495,7.8386,7.8276,7.8276,7.8276,7.8276,7.8276,7.8586,7.9127,7.9793,8.0378,8.1085,8.1893,8.1379,8.1012,8.1012,8.0388,8.0314,8.1048,8.1195,8.1893,8.3361,8.3893,8.4158,8.4129,8.4645,8.3702,8.1237,8.1925,8.1889,8.1128,8.1128,8.1128,5.32,5.4752,0.0,5.7662,5.9261,6.0805,6.1983,6.2102,6.2102,6.2705,6.3419,6.4293,6.5497,6.6322,6.7297,6.8628,6.8959,6.9207,6.9696,7.0374,7.1008,7.1812,7.2368,7.2869,7.332,7.3199,7.3199,7.3372,7.3199,7.3145,7.3199,7.3037,7.2835,7.2723,7.2835,7.2816,7.2496,7.276,7.2872,7.2723,7.2982,7.3091,7.3037,7.3145,7.3252,7.3357,7.3372,7.3372,7.3372,7.3372,7.3252,7.3037,7.3305,7.3268,7.3108,7.3476,7.3715,7.3864,7.4056,7.4197,7.4289,7.4289,7.4289,7.4289,7.4197,7.4151,7.4376,7.5361,7.5709,7.6019,7.6792,7.7689,7.8274,7.7992,7.8428,7.8864,7.8708,7.8602,7.8495,7.8495,7.8386,7.8221,7.8071,7.8221,7.8221,7.8071,7.7968,7.8196,7.8946,7.9117,7.9433,8.0204,8.0718,8.1012,8.1012,8.1544,8.1838,8.1929,8.2647,8.3125,8.3398,8.3344,8.3642,8.4231,8.417,8.3483,8.2249,8.2287,8.1889,8.1128,8.1128,8.1128,5.3139,5.4752,0.0,5.8921,0.0,6.2129,6.2965,6.3432,6.363,6.3562,6.4029,6.501,6.6668,6.7187,6.7696,6.884,6.9319,6.9593,6.9852,7.0921,7.1603,7.1589,7.2087,7.2368,7.2258,7.2399,7.2659,7.2815,7.3082,7.3252,7.3305,7.3145,7.3037,7.2945,7.3037,7.2982,7.276,7.2927,7.2982,7.2945,7.3145,7.3199,7.3199,7.3199,7.3305,7.3372,7.3372,7.3372,7.3372,7.3476,7.341,7.3252,7.3513,7.3513,7.341,7.3765,7.3961,7.4104,7.4252,7.4425,7.4469,7.4425,7.438,7.438,7.4243,7.4197,7.4385,7.5173,7.5492,7.5764,7.6354,7.7276,7.8059,7.7729,7.8366,7.8966,7.8812,7.8708,7.8602,7.8495,7.8386,7.8276,7.8127,7.8221,7.8221,7.8014,7.79,7.8057,7.8688,7.8738,7.9007,7.969,8.0534,8.1012,8.1012,8.1774,8.2398,8.2737,8.2839,8.3059,8.3398,8.3698,8.3966,8.4264,8.4423,8.3809,8.2574,8.2432,8.1889,8.1128,8.1128,8.1309,5.3383,5.4891,5.669,6.0361,6.1919,6.2769,6.3492,6.4272,6.4929,6.5122,6.4936,6.5463,6.765,6.7931,6.8091,6.8817,6.9593,7.006,6.9967,7.1256,7.1963,7.1454,7.171,7.1821,7.1403,7.1858,7.2266,7.2369,7.2934,7.3305,7.3372,7.3305,7.3199,7.3199,7.3199,7.3145,7.2982,7.3037,7.3091,7.3199,7.3199,7.3305,7.3372,7.3305,7.3305,7.3372,7.3372,7.3424,7.3424,7.3527,7.3527,7.3424,7.3715,7.3765,7.3765,7.4056,7.4197,7.4335,7.4432,7.4519,7.4476,7.4425,7.4425,7.438,7.4243,7.4197,7.4347,7.5023,7.5267,7.5509,7.5979,7.6911,7.7645,7.7554,7.8191,7.8879,7.8878,7.876,7.8655,7.8549,7.8386,7.8276,7.8276,7.8276,7.8221,7.8014,7.8014,7.8159,7.8565,7.8578,7.8774,7.9286,8.0204,8.0791,8.0791,8.1636,8.248,8.3141,8.2553,8.248,8.3177,8.4095,8.4468,8.4149,8.4856,8.4425,8.2863,8.2504,8.1961,8.1128,8.1128,8.1454,5.2877,5.5224,5.7853,5.9786,6.1406,6.252,6.2572,6.3789,6.527,6.656,6.6181,6.5873,6.6845,6.7513,6.8178,6.8915,6.9602,7.0331,7.0809,7.1107,7.1789,7.3043,7.2708,7.2559,7.3155,7.3201,7.3224,7.3224,7.3335,7.3372,7.3372,7.3372,7.3357,7.3199,7.3305,7.3252,7.2982,7.3252,7.3305,7.3199,7.3305,7.3372,7.3372,7.3372,7.3372,7.3372,7.3372,7.3476,7.3578,7.3578,7.3615,7.3615,7.3578,7.3564,7.3513,7.3765,7.3864,7.3961,7.4342,7.4519,7.4519,7.4476,7.4476,7.4432,7.4243,7.4197,7.4235,7.4347,7.4485,7.462,7.4404,7.5229,7.6203,7.6579,7.7267,7.8054,7.8765,7.8708,7.8549,7.8495,7.8386,7.8276,7.8276,7.8165,7.8014,7.8014,7.79,7.7799,7.7768,7.785,7.7828,7.7635,7.9154,8.0073,7.9947,8.1434,8.2353,8.2333,8.2353,8.2353,8.2333,8.3801,8.4278,8.3514,8.4808,8.4929,8.3913,8.3009,8.2033,8.1128,8.1128,8.1165,5.3752,5.6027,5.8328,6.0379,6.1797,6.2794,6.3095,6.4158,6.5335,6.6333,6.6522,6.6896,6.8015,6.8579,6.8833,6.8952,7.0068,7.0798,7.0544,7.1328,7.1999,7.2261,7.195,7.1827,7.2162,7.2546,7.2704,7.2704,7.3149,7.3372,7.3372,7.3372,7.3372,7.3305,7.3424,7.3461,7.3252,7.341,7.3424,7.3305,7.3461,7.3476,7.3372,7.3476,7.3476,7.3372,7.3476,7.3564,7.3578,7.3728,7.3826,7.3826,7.3826,7.3826,7.3912,7.4019,7.416,7.4252,7.4606,7.4691,7.4691,7.4563,7.4519,7.4476,7.4243,7.4197,7.4197,7.4197,7.4335,7.4425,7.4197,7.5229,7.6375,7.6515,7.7504,7.8466,7.8738,7.8655,7.8495,7.8386,7.8332,7.8276,7.8276,7.8592,7.8684,7.8202,7.8479,7.857,7.7916,7.7783,7.785,7.8149,7.9191,8.0047,8.0424,8.159,8.2251,8.2186,8.2251,8.2251,8.2186,8.3324,8.3765,8.3434,8.4332,8.4378,8.3504,8.2424,8.1738,8.1234,8.1163,8.1346,5.4264,5.5963,5.7554,6.0208,6.1696,6.2666,6.3313,6.4339,6.5331,6.6143,6.6787,6.7694,6.9155,6.9416,6.9289,6.9072,7.0226,7.0929,7.0191,7.1312,7.2107,7.1696,7.1563,7.1589,7.1813,7.2311,7.2583,7.2532,7.3141,7.3513,7.3424,7.3476,7.3476,7.3476,7.3564,7.3564,7.3476,7.3615,7.3578,7.3424,7.3615,7.3615,7.3424,7.3615,7.3615,7.3513,7.3615,7.3665,7.3715,7.3912,7.4009,7.4056,7.4009,7.4056,7.4151,7.4206,7.4297,7.4432,7.4729,7.4812,7.4771,7.4606,7.4519,7.4476,7.4289,7.4197,7.4197,7.4197,7.4289,7.4418,7.4553,7.5492,7.6554,7.6874,7.7779,7.8551,7.8671,7.8602,7.8495,7.8386,7.8332,7.8332,7.8276,7.8796,7.9056,7.8648,7.9094,7.926,7.8623,7.8528,7.8611,7.8995,7.9742,8.0378,8.0938,8.1746,8.2186,8.2186,8.2186,8.2186,8.2186,8.2994,8.3324,8.3104,8.3741,8.3783,8.3093,8.1947,8.1445,8.1375,8.1163,8.1418,5.3551,5.4218,5.4993,5.8311,6.0251,6.1603,6.2368,6.3782,6.5308,6.6825,6.7278,6.7846,6.9315,6.9495,6.9289,6.9072,6.9776,7.033,7.0116,7.0957,7.1836,7.2501,7.2613,7.2913,7.3784,7.3752,7.3641,7.354,7.3678,7.3715,7.3615,7.3715,7.3765,7.3765,7.3665,7.3665,7.3765,7.3815,7.3715,7.3615,7.3715,7.3715,7.3578,7.3715,7.3815,7.3765,7.3815,7.3864,7.4009,7.4009,7.4056,7.4151,7.4056,7.4009,7.4009,7.3971,7.4056,7.4066,7.4432,7.4519,7.4563,7.4649,7.4606,7.4476,7.4425,7.4289,7.4197,7.4197,7.4289,7.4568,7.5321,7.5492,7.5934,7.7608,7.7779,7.7774,7.8559,7.8602,7.8495,7.8495,7.8495,7.8441,7.8332,7.8313,7.8611,7.9316,7.9465,7.9611,8.0059,8.023,8.0207,7.979,8.0551,8.1129,8.1012,8.1746,8.2186,8.2186,8.2186,8.2186,8.2186,8.2994,8.303,8.226,8.3067,8.3301,8.3093,8.2048,8.1547,8.1375,8.1163,8.1128,5.3642,5.4549,5.5427,5.7624,5.9836,6.1675,6.2389,6.4296,6.6319,6.7918,6.8223,6.849,6.947,6.9617,6.9495,6.9411,6.9998,7.0248,6.9729,7.0811,7.1741,7.2004,7.2445,7.3035,7.3934,7.3912,7.3765,7.3765,7.3765,7.3765,7.3715,7.3765,7.3815,7.3815,7.3864,7.3912,7.3961,7.3961,7.3815,7.3578,7.3815,7.3815,7.3615,7.3864,7.3961,7.3961,7.4009,7.4056,7.4009,7.4104,7.4151,7.4197,7.4056,7.4056,7.4151,7.4206,7.4206,7.4289,7.4644,7.4691,7.4649,7.4691,7.4606,7.4476,7.4425,7.4335,7.4402,7.4882,7.5125,7.5494,7.6286,7.6844,7.7476,7.8596,7.8616,7.849,7.8891,7.8812,7.8602,7.8549,7.8495,7.8441,7.8332,7.8722,7.9168,7.9465,7.9948,8.03,8.04,8.0341,8.0443,8.0688,8.0919,8.1259,8.1709,8.2039,8.2186,8.2186,8.2186,8.2186,8.2186,8.248,8.248,8.2186,8.248,8.2627,8.2561,8.1897,8.1615,8.1547,8.1234,8.1382,5.3249,5.4078,5.4981,5.7205,5.8968,6.0616,6.223,6.4068,6.6011,6.7952,6.8561,6.8905,6.9664,6.9776,6.9657,6.9536,6.9863,7.0041,6.9821,7.0862,7.1794,7.2094,7.2754,7.3307,7.3569,7.3559,7.3464,7.3415,7.3239,7.3314,7.3826,7.3613,7.3613,7.3864,7.4009,7.4056,7.4009,7.4056,7.3961,7.3665,7.4009,7.3961,7.3715,7.4009,7.4104,7.4056,7.4151,7.4151,7.4056,7.4151,7.4197,7.4197,7.4104,7.4104,7.4197,7.4297,7.4342,7.4425,7.4729,7.4733,7.4691,7.4691,7.4606,7.4476,7.4425,7.438,7.4568,7.5267,7.563,7.6029,7.7168,7.8074,7.8783,7.9161,7.9165,7.9066,7.9116,7.8915,7.8708,7.8602,7.8549,7.8495,7.8332,7.8722,7.9279,7.9799,8.0357,8.0856,8.1215,8.1131,8.1194,8.1497,8.1443,8.1636,8.215,8.2186,8.2186,8.2186,8.2443,8.248,8.2186,8.2508,8.2508,8.2186,8.2251,8.2251,8.2186,8.1885,8.1683,8.1683,8.1375,8.1598,0.0,0.0,0.0,5.6872,5.7566,5.8318,6.1742,6.309,6.4355,6.6964,6.818,6.9015,6.9851,6.9929,6.9777,6.9457,6.9374,6.9633,7.0373,7.1193,7.1982,7.2733,7.3634,7.3822,7.2958,7.2845,7.2837,7.2698,7.2041,7.2387,7.3821,7.3288,7.3212,7.4019,7.4113,7.4113,7.4009,7.4151,7.4056,7.3815,7.4197,7.4197,7.3815,7.4243,7.4335,7.4197,7.4197,7.4197,7.4197,7.4197,7.4197,7.4197,7.4197,7.4197,7.4197,7.4335,7.438,7.4425,7.4606,7.4691,7.4691,7.4691,7.4606,7.4476,7.4425,7.438,7.4568,7.5359,7.5713,7.6262,7.7975,7.9078,7.9592,7.9214,7.9214,7.9263,7.9116,7.9016,7.8864,7.8708,7.8708,7.8602,7.8332,7.8276,7.8833,8.0431,8.0654,8.1132,8.2499,8.2659,8.2571,8.2251,8.2186,8.2186,8.2186,8.2186,8.2186,8.2186,8.292,8.303,8.2223,8.3116,8.3153,8.2223,8.2343,8.2343,8.2186,8.1989,8.1885,8.1885,8.1619,8.1813,5.2346,0.0,0.0,0.0,0.0,0.0,6.0425,6.2389,6.4495,6.7174,6.7791,6.8294,6.9737,6.951,6.9246,6.9701,6.9657,6.9652,6.9919,7.1035,7.1702,7.1412,7.2485,7.2966,7.2278,7.2234,7.2146,7.2102,7.1958,7.1989,7.2312,7.2215,7.283,7.435,7.3822,7.3785,7.4387,7.4387,7.4342,7.4168,7.4387,7.4387,7.4168,7.4387,7.4432,7.4432,7.4432,7.4432,7.4387,7.438,7.4289,7.4197,7.4289,7.4335,7.4335,7.4432,7.4476,7.4519,7.4771,7.4812,7.4691,7.4812,7.4691,7.4519,7.4476,7.4476,7.462,7.5359,7.6173,7.7219,7.8927,7.9532,7.9638,7.9453,7.9359,7.9263,7.9116,7.9066,7.9016,7.8864,7.876,7.8655,7.8495,7.8332,7.8648,7.9688,7.9837,8.0316,8.1686,8.1846,8.1944,8.2178,8.2186,8.2186,8.2186,8.2186,8.2186,8.2186,8.2406,8.2443,8.2186,8.2472,8.2472,8.2186,8.2251,8.2251,8.2186,8.1989,8.1885,8.1922,8.2679,8.3519,0.0,0.0,0.0,5.4737,0.0,0.0,6.0121,6.178,6.3726,6.7088,6.7707,6.8019,6.9312,6.9198,6.9046,6.9433,6.9702,6.9928,7.0153,7.0897,7.1417,7.1312,7.2009,7.2228,7.1534,7.1412,7.1369,7.1412,7.111,7.1073,7.1288,7.1751,7.2397,7.3425,7.335,7.3538,7.3991,7.4331,7.4438,7.4305,7.4482,7.4482,7.4305,7.4519,7.4563,7.4519,7.4519,7.4519,7.4519,7.4519,7.4469,7.4297,7.4425,7.4469,7.4432,7.4563,7.4606,7.4606,7.4812,7.4854,7.4812,7.4812,7.4691,7.4563,7.4519,7.4563,7.4714,7.5538,7.6721,7.8106,7.9469,7.981,7.9766,7.9546,7.9453,7.9359,7.9165,7.9116,7.9066,7.8915,7.8864,7.8708,7.8549,7.8441,7.8629,7.9354,7.9502,7.9871,8.0933,8.1414,8.1662,8.1764,8.2095,8.2251,8.2186,8.2186,8.2186,8.2186,8.281,8.2884,8.2223,8.2876,8.2949,8.2186,8.2251,8.2251,8.2186,8.2121,8.2135,8.2434,8.3402,8.4246,0.0,0.0,0.0,0.0,5.5,0.0,5.9954,6.0874,6.2053,6.6249,6.712,6.7393,6.8417,6.8493,6.846,6.8507,6.9195,7.0001,7.0723,7.0869,7.1052,7.1735,7.1798,7.153,7.0788,7.0592,7.055,7.0712,6.9992,6.9954,7.0784,7.1388,7.1845,7.2033,7.2713,7.3166,7.3355,7.4072,7.4406,7.435,7.4606,7.4606,7.4394,7.4606,7.4649,7.4563,7.4563,7.4563,7.4563,7.4649,7.4649,7.4519,7.4519,7.4519,7.4563,7.4649,7.4691,7.4733,7.4854,7.4895,7.4895,7.4774,7.4733,7.4691,7.4606,7.4649,7.4884,7.5717,7.7122,7.8685,7.9519,7.9822,7.9854,7.9592,7.95,7.9453,7.9165,7.9116,7.9066,7.8966,7.8915,7.8812,7.8602,7.8495,7.8664,7.9298,7.9354,7.9594,8.0274,8.0978,8.1377,8.1255,8.1855,8.227,8.2251,8.2186,8.2223,8.2333,8.3581,8.3728,8.237,8.3713,8.375,8.2223,8.2316,8.2279,8.2186,8.2296,8.2671,8.3276,8.3873,8.4534,0.0,0.0,0.0,0.0,0.0,0.0,5.6928,5.7832,5.9147,6.2124,6.2673,6.3328,6.5633,6.5416,6.5117,6.5906,6.6641,6.7867,7.0038,7.0801,7.0991,7.0609,7.0837,7.0911,7.0383,7.0081,6.9964,7.0042,6.9811,6.9995,7.0907,7.0415,7.0796,7.2278,7.1823,7.2162,7.3525,7.3677,7.4093,7.4812,7.4854,7.4854,7.4812,7.4854,7.4854,7.4812,7.4812,7.4812,7.4812,7.4854,7.4691,7.4519,7.4606,7.4691,7.4812,7.4733,7.4771,7.4854,7.4895,7.4895,7.4895,7.4937,7.4977,7.4937,7.4854,7.4857,7.5089,7.6002,7.6869,7.7813,7.8647,7.9367,7.9854,7.9683,7.9592,7.9453,7.9311,7.9165,7.9116,7.9066,7.8966,7.8864,7.8708,7.8602,7.8478,7.8555,7.8536,7.8777,7.9459,7.9681,8.0215,8.1305,8.1439,8.1708,8.2307,8.2251,8.248,8.3141,8.2847,8.281,8.3177,8.2847,8.2582,8.2186,8.2251,8.2251,8.2186,8.2847,8.3581,8.4321,8.4922,8.555,0.0,0.0,0.0,5.4215,0.0,0.0,0.0,5.732,5.8635,6.2175,6.2116,6.2247,6.4886,6.5009,6.4672,6.4772,6.6116,6.7311,6.7763,6.9116,7.0076,7.0185,7.0346,7.0384,7.0223,6.9966,6.9891,7.0041,6.9967,7.0119,7.0574,7.0194,7.0308,7.1181,7.1181,7.175,7.2999,7.3416,7.4061,7.4895,7.4895,7.4895,7.4895,7.4895,7.4895,7.4895,7.4895,7.4895,7.4895,7.4895,7.4854,7.4737,7.4774,7.4857,7.4937,7.4854,7.4857,7.4975,7.4895,7.4895,7.4895,7.4935,7.4977,7.5017,7.4937,7.4977,7.5169,7.6042,7.6834,7.7586,7.8382,7.9253,7.9854,7.9728,7.9638,7.9546,7.9359,7.9263,7.9214,7.9116,7.9066,7.8966,7.8812,7.876,7.8655,7.8495,7.8441,7.8535,7.8871,7.9186,7.9665,8.0341,8.0627,8.112,8.1745,8.1755,8.1994,8.2737,8.281,8.281,8.281,8.281,8.2627,8.2186,8.2186,8.2186,8.2186,8.3398,8.4205,8.4609,8.5211,8.5876,0.0,0.0,0.0,0.0,0.0,5.5282,0.0,0.0,0.0,6.2003,6.1602,6.1268,6.3628,6.3953,6.3732,6.3169,6.4947,6.6055,6.4929,6.665,6.8388,6.9417,6.9842,7.0071,7.0026,6.9766,6.9769,7.022,6.9915,6.9877,7.022,7.022,7.0185,7.0039,7.0723,7.1446,7.2167,7.2849,7.3608,7.4442,7.4442,7.4442,7.4442,7.4632,7.4667,7.4667,7.4819,7.4895,7.4895,7.4895,7.4935,7.4977,7.4935,7.4977,7.5056,7.4937,7.4937,7.5017,7.4935,7.4895,7.4935,7.4935,7.4937,7.5056,7.5095,7.5095,7.5208,7.5892,7.661,7.7362,7.7965,7.8874,7.9632,7.9501,7.9569,7.9638,7.9406,7.9359,7.9311,7.9214,7.9165,7.9116,7.8915,7.8915,7.8864,7.8708,7.8602,7.8549,7.8549,7.8999,7.9391,7.9611,8.0184,8.0844,8.1464,8.1513,8.1855,8.2655,8.3059,8.303,8.2663,8.2994,8.2884,8.2223,8.2186,8.2186,8.2186,8.3654,8.4389,8.4389,8.539,8.602,0.0,0.0,0.0,0.0,5.4155,0.0,0.0,0.0,5.5988,5.7156,0.0,5.7423,5.8536,0.0,0.0,5.8612,6.0102,6.144,6.1975,6.3676,6.5397,6.6911,6.9075,7.0178,6.9482,6.8623,6.875,7.0209,6.8913,6.8722,7.0175,7.0289,7.0255,7.0185,7.0299,7.0684,7.1446,7.1558,7.2053,7.2776,7.2889,7.2889,7.2814,7.3573,7.3837,7.3795,7.4553,7.4895,7.4895,7.4895,7.4895,7.4935,7.4977,7.5095,7.5208,7.5056,7.5056,7.5171,7.4975,7.4935,7.5017,7.5017,7.5056,7.5209,7.5394,7.5321,7.5171,7.5285,7.5893,7.642,7.6414,7.7548,7.8761,7.8761,7.9242,7.9683,7.9638,7.9546,7.9453,7.9453,7.9359,7.9214,7.8966,7.8915,7.8864,7.8708,7.8708,7.8655,7.8655,7.873,7.9311,8.0563,8.0711,8.1244,8.2547,8.261,8.3087,8.4404,8.3226,8.3051,8.4278,8.303,8.2296,8.2186,8.2186,8.2186,8.2186,8.3104,8.3544,8.3618,8.582,8.6379,0.0,0.0,0.0,0.0,0.0,0.0,5.4308,0.0,5.5656,0.0,0.0,0.0,0.0,0.0,0.0,0.0,5.9354,6.0414,6.025,6.2245,6.4238,6.5818,6.7408,6.8502,6.8655,6.874,6.9084,6.9774,6.9169,6.9253,7.0477,7.049,7.0424,7.0255,7.0255,7.0601,7.133,7.1367,7.1785,7.2623,7.266,7.266,7.251,7.289,7.3003,7.3002,7.3875,7.4254,7.4292,7.4865,7.5055,7.4977,7.5056,7.5171,7.5209,7.5133,7.5171,7.5246,7.5133,7.5017,7.5017,7.5095,7.5171,7.5247,7.5465,7.5394,7.5246,7.5209,7.5741,7.6268,7.6149,7.7358,7.8609,7.8609,7.921,7.981,7.9683,7.9638,7.9546,7.9406,7.9359,7.9263,7.9066,7.9016,7.9016,7.8966,7.8864,7.8812,7.8812,7.876,7.8917,7.9427,7.9446,7.9819,8.0718,8.1215,8.2055,8.3493,8.3382,8.3281,8.3309,8.2647,8.2316,8.2316,8.2251,8.2251,8.2316,8.3059,8.3177,8.2774,8.5196,8.6045,5.3244,0.0,0.0,0.0,0.0,0.0,0.0,0.0,0.0,0.0,0.0,0.0,0.0,0.0,5.7939,5.7379,0.0,5.9281,5.8655,6.0444,6.2478,6.4259,6.5542,6.6595,6.7438,6.7822,6.8272,6.8789,6.8579,6.8896,6.997,6.9988,7.0011,7.0042,7.0009,7.0396,7.1131,7.1131,7.1436,7.2048,7.2084,7.201,7.1901,7.2129,7.2357,7.2586,7.346,7.3954,7.422,7.4905,7.5133,7.5056,7.5171,7.5247,7.5247,7.5209,7.5284,7.5356,7.5247,7.5095,7.5017,7.5171,7.5209,7.5247,7.5465,7.5427,7.5356,7.5246,7.5628,7.6044,7.6114,7.721,7.8348,7.8533,7.9253,7.9898,7.981,7.9728,7.9683,7.9453,7.9406,7.9359,7.9214,7.9116,7.9116,7.9116,7.9016,7.8966,7.8966,7.8864,7.8835,7.8901,7.8885,7.9111,7.9628,8.0444,8.1459,8.2708,8.3534,8.3482,8.2571,8.2471,8.2471,8.2471,8.238,8.238,8.2407,8.2904,8.2839,8.226,8.4462,8.5453,0.0,0.0,0.0,5.437,0.0,0.0,0.0,0.0,5.527,0.0,0.0,0.0,0.0,5.5101,5.5576,5.5503,5.628,0.0,0.0,5.7646,5.924,6.162,6.3475,6.491,6.5717,6.5102,6.5333,6.6984,6.637,6.6638,6.829,6.8339,6.8695,6.9404,6.9352,6.968,7.0419,7.0457,7.0391,7.04,7.0429,7.0429,7.04,7.1239,7.2008,7.2735,7.3572,7.441,7.5171,7.5209,7.5209,7.5209,7.5283,7.532,7.5283,7.5247,7.5321,7.5465,7.5284,7.5095,7.5017,7.5171,7.5209,7.5247,7.5465,7.5501,7.5501,7.5356,7.532,7.5512,7.612,7.6916,7.7711,7.8462,7.9253,7.9898,7.9898,7.9898,7.9854,7.9683,7.9683,7.9592,7.9359,7.9214,7.9116,7.9116,7.9116,7.9116,7.9116,7.9116,7.9316,7.9791,7.9904,8.004,8.058,8.1434,8.2288,8.3069,8.3621,8.3571,8.2904,8.2758,8.2696,8.2696,8.2696,8.2571,8.2407,8.2444,8.2316,8.2223,8.3875,8.4646,0.0,0.0,5.6613,5.4898,0.0,0.0,0.0,0.0,0.0,0.0,0.0,0.0,0.0,5.4096,5.4503,5.3857,5.5025,5.5992,0.0,5.7267,5.8581,5.9403,6.1003,6.2373,6.3229,6.4114,6.51,6.6242,6.6563,6.7231,6.8385,6.8371,6.8702,6.9452,6.9462,6.9826,7.0578,7.0554,7.0554,7.0547,7.0451,7.0386,7.0353,7.0625,7.1166,7.2043,7.2843,7.3718,7.4593,7.5198,7.5427,7.5354,7.5462,7.5497,7.5497,7.5392,7.5465,7.5501,7.532,7.5246,7.5209,7.5246,7.5283,7.5283,7.5356,7.5427,7.5465,7.5283,7.5209,7.5399,7.616,7.6916,7.7669,7.8504,7.9296,7.9898,7.9898,7.9898,7.9854,7.9766,7.9683,7.9638,7.9453,7.9406,7.9311,7.9116,7.9116,7.9116,7.9116,7.9116,7.9091,7.9082,7.9119,7.9125,7.9149,8.0877,8.2161,8.2499,8.3566,8.3817,8.2941,8.2843,8.2843,8.2843,8.2758,8.2633,8.2633,8.2471,8.2343,8.2223,8.2867,8.3713,5.7654,5.8085,0.0,5.6367,5.7033,0.0,5.5797,0.0,5.5738,0.0,0.0,0.0,0.0,5.3874,5.3759,5.3445,5.415,5.4831,0.0,5.6198,5.7027,5.7357,5.8896,6.0381,6.1566,6.239,6.3608,6.5388,6.575,6.6357,6.7512,6.7564,6.7859,6.8625,6.8597,6.8992,6.9817,7.0064,7.0187,7.0248,7.04,7.0483,7.0515,7.0386,7.0811,7.1718,7.2219,7.2979,7.3921,7.4829,7.514,7.5107,7.548,7.5633,7.5633,7.5566,7.5532,7.5532,7.5392,7.5356,7.5356,7.532,7.5283,7.5283,7.532,7.5356,7.5392,7.5246,7.5475,7.5931,7.6694,7.7414,7.8128,7.9084,7.9609,7.9946,7.9946,7.9946,7.986,7.9728,7.9766,7.9683,7.9546,7.9546,7.95,7.9214,7.9165,7.9165,7.9116,7.9116,7.9016,7.8812,7.8708,7.8714,7.874,8.0228,8.1437,8.2146,8.3074,8.3403,8.3143,8.3084,8.3024,8.3084,8.2941,8.2819,8.2696,8.2571,8.2444,8.2251,8.2675,8.3586]},{"header":{"parameterUnit":"m.s-1","parameterCategory":1,"la1":30.6,"la2":29.2853,"lo1":-89.7004,"lo2":-87.6739,"dy":0.0162,"dx":0.0183,"nx":112,"ny":82,"refTime":"2023-08-28T06:00:00:Z","depth":0,"parameterNumber":3,"parameterNumberName":"V-component_of_WINDS"},"data":[0.0,0.0,0.0,0.0,0.0,0.0,0.0,0.0,0.0,0.0,0.0,0.0,0.0,0.0,0.0,0.0,0.0,0.0,0.0,0.0,0.0,0.0,0.0,0.0,0.0,0.0,0.0,0.0,0.0,0.0,0.0,0.0,0.0,0.0,0.0,0.0,0.0,0.0,0.0,0.0,0.0,0.0,0.0,0.0,0.0,0.0,0.0,0.0,0.0,0.0,0.0,0.0,0.0,0.0,0.0,0.0,0.0,0.0,0.0,0.0,0.0,0.0,0.0,0.0,0.0,0.0,0.0,0.0,0.0,0.0,0.0,0.0,0.0,0.0,0.0,0.0,0.0,0.0,0.0,0.0,0.0,0.0,0.0,0.0,0.0,0.0,0.0,0.0,0.0,0.0,1.1706,1.2417,1.3094,1.3568,1.3711,1.3838,1.3689,1.2862,0.0,0.0,0.0,0.0,0.0,0.0,0.0,0.0,0.0,0.0,0.0,0.0,0.0,0.0,0.0,0.0,0.0,0.0,0.0,0.0,0.0,0.0,0.0,0.0,0.0,0.0,0.0,0.0,0.0,0.0,0.0,0.0,0.0,0.0,0.0,0.0,0.0,0.0,0.0,0.0,0.0,0.0,0.0,0.0,0.0,0.0,0.0,0.0,0.0,0.0,0.0,0.0,0.0,0.0,0.0,0.0,0.0,0.0,0.0,0.0,0.0,0.0,0.0,0.0,0.0,0.0,0.0,0.0,0.0,0.0,0.0,0.0,0.0,0.0,0.0,0.0,0.0,0.0,0.0,0.0,0.0,0.0,0.0,0.0,0.0,0.0,0.0,0.0,0.0,0.0,0.0,0.0,0.0,0.0,0.0,0.0,0.0,0.0,0.0,0.0,0.0,0.0,0.0,0.0,1.2505,1.3857,1.3847,1.4015,1.4457,1.4485,1.4247,1.3574,0.0,0.0,0.0,0.0,0.0,0.0,0.0,0.0,0.0,0.0,0.0,0.0,0.0,0.0,0.0,0.0,0.0,0.0,0.0,0.0,0.0,0.0,0.0,0.0,0.0,0.0,0.0,0.0,0.0,0.0,0.0,0.0,0.0,0.0,0.0,0.0,0.0,0.0,0.0,0.0,0.0,0.0,0.0,0.0,0.0,0.0,0.0,0.0,0.0,0.0,0.0,0.0,0.0,0.0,0.0,0.0,0.0,0.0,0.0,0.0,0.0,0.0,0.0,0.0,0.0,0.0,0.0,0.0,0.0,0.0,0.0,0.0,0.0,0.0,0.0,0.0,0.0,0.0,0.0,0.0,0.0,0.0,0.0,0.0,0.0,0.0,0.0,0.0,0.0,0.0,0.0,0.0,0.0,0.0,0.0,0.0,0.0,0.0,0.0,0.0,0.0,0.0,0.0,1.2459,1.3329,1.4402,1.4596,1.4642,1.4934,1.5134,1.4961,1.4164,1.4183,0.0,0.0,0.0,0.0,0.0,0.0,0.0,0.0,0.0,0.0,0.0,0.0,0.0,0.0,0.0,0.0,0.0,0.0,0.0,0.0,0.0,0.0,0.0,0.0,0.0,0.0,0.0,0.0,0.0,0.0,0.0,0.0,0.0,0.0,0.0,0.0,0.0,0.0,0.0,0.0,0.0,0.0,0.0,0.0,0.0,0.0,0.0,0.0,0.0,0.0,0.0,0.0,0.0,0.0,0.0,0.0,0.0,0.0,0.0,0.0,0.0,0.0,0.0,0.0,0.0,0.0,0.0,0.0,0.0,0.0,0.0,0.0,0.0,0.0,0.0,0.0,0.0,0.0,0.0,0.0,0.0,0.0,0.0,0.0,0.0,0.0,0.0,0.0,0.0,0.0,0.0,0.0,0.0,0.0,0.0,0.0,0.0,0.0,0.0,0.0,0.0,0.0,1.3625,1.4139,1.5001,1.5258,1.5446,1.5479,1.5796,1.5569,1.4643,1.4933,0.0,0.0,0.0,0.0,0.0,0.0,0.0,0.0,0.0,0.0,0.0,0.0,0.0,0.0,0.0,0.0,0.0,0.0,0.0,0.0,0.0,0.0,0.0,0.0,0.0,0.0,0.0,0.0,0.0,0.0,0.0,0.0,0.0,0.0,0.0,0.0,0.0,0.0,0.0,0.0,0.0,0.0,0.0,0.0,0.0,0.0,0.0,0.0,0.0,0.0,0.0,0.0,0.0,0.0,0.0,0.0,0.0,0.0,0.0,0.0,0.0,0.0,0.0,0.0,0.0,0.0,0.0,0.0,0.0,0.0,0.0,0.0,0.0,0.0,0.0,0.0,0.0,0.0,0.0,0.0,0.0,0.0,0.0,0.0,0.0,0.0,0.0,0.0,0.0,0.0,0.0,0.0,0.0,0.0,0.0,0.0,0.0,0.0,0.0,0.0,0.0,0.0,1.4549,1.5267,1.6114,1.6235,1.6343,1.6617,1.6407,1.5901,1.503,1.5021,0.0,0.0,0.0,0.0,0.0,0.0,0.0,0.0,0.0,0.0,0.0,0.0,0.0,0.0,0.0,0.0,0.0,0.0,0.0,0.0,0.0,0.0,0.0,0.0,0.0,0.0,0.0,0.0,0.0,0.0,0.0,0.0,0.0,0.0,0.0,0.0,0.0,0.0,0.0,0.0,0.0,0.0,0.0,0.0,0.0,0.0,0.0,0.0,0.0,0.0,0.0,0.0,0.0,0.0,0.0,0.0,0.0,0.0,0.0,0.0,0.0,0.0,0.0,0.0,0.0,0.0,0.0,0.0,0.0,0.0,0.0,0.0,0.0,0.0,0.0,0.0,0.0,0.0,0.0,0.0,0.0,0.0,0.0,0.0,0.0,0.0,0.0,0.0,0.0,0.0,0.0,0.0,0.0,0.0,0.0,0.0,0.0,0.0,0.0,0.0,0.0,0.0,1.5191,1.5779,1.6698,1.687,1.6869,1.6705,1.6963,1.6733,1.6035,0.0,0.0,0.0,0.0,0.0,0.0,0.0,0.0,0.0,0.0,0.0,0.0,0.0,0.0,0.0,0.0,0.0,0.0,0.0,0.0,0.0,0.0,0.0,0.0,0.0,0.0,0.0,0.0,0.0,0.0,0.0,0.0,0.0,0.0,0.0,0.0,0.0,0.0,0.0,0.0,0.0,0.0,0.0,0.0,0.0,0.0,0.0,0.0,0.0,0.0,0.0,0.0,0.0,0.0,0.0,0.0,0.0,0.0,0.0,0.0,0.0,0.0,0.0,0.0,0.0,0.0,0.0,0.0,0.0,0.0,0.0,0.0,0.0,0.0,0.0,0.0,0.0,0.0,0.0,0.0,0.0,0.0,0.0,0.0,0.0,0.0,0.0,0.0,0.0,0.0,0.0,0.0,0.0,0.0,0.0,0.0,0.0,0.0,0.0,0.0,0.0,0.0,1.5281,1.5737,1.632,1.7204,1.7378,1.7415,1.7215,1.7421,1.7248,1.6657,0.0,0.0,0.0,0.0,0.0,0.0,0.0,0.0,0.0,0.0,0.0,0.0,0.0,0.0,0.0,0.0,0.0,0.0,0.0,0.0,0.0,0.0,0.0,0.0,0.0,0.0,0.0,0.0,0.0,0.0,0.0,0.0,0.0,0.0,0.0,0.0,0.0,0.0,0.0,0.0,0.0,0.0,0.0,0.0,0.0,0.0,0.0,0.0,0.0,0.0,0.0,0.0,0.0,0.0,0.0,0.0,0.0,0.0,0.0,0.0,0.0,0.0,0.0,0.0,0.0,0.0,0.0,0.0,0.0,0.0,0.0,0.0,0.0,0.0,0.0,0.0,0.0,0.0,0.0,0.0,0.0,0.0,0.0,0.0,0.0,0.0,0.0,0.0,0.0,0.0,0.0,0.0,0.0,0.0,0.0,0.0,0.0,0.0,0.0,0.0,0.0,0.0,1.5125,1.6272,1.7207,1.7551,1.7894,1.8122,1.8337,1.7886,1.7341,0.0,0.0,0.0,0.0,0.0,0.0,0.0,0.0,0.0,0.0,0.0,0.0,0.0,0.0,0.0,0.0,0.0,0.0,0.0,0.0,0.0,0.0,0.0,0.0,0.0,0.0,0.0,0.0,0.0,0.0,0.0,0.0,0.0,0.0,0.0,0.0,0.0,0.0,0.0,0.0,0.0,0.0,0.0,0.0,0.0,0.0,0.0,0.0,0.0,0.0,0.0,0.0,0.0,0.0,0.0,0.0,0.0,0.0,0.0,0.0,0.0,0.0,0.0,0.0,0.0,0.0,0.0,0.0,0.0,0.0,0.0,0.0,0.0,0.0,0.0,0.0,0.0,0.0,0.0,0.0,0.0,0.0,0.0,0.0,0.0,0.0,0.0,0.0,0.0,0.0,0.0,0.0,0.0,0.0,0.0,0.0,0.0,0.0,0.0,0.0,0.0,0.0,0.0,1.6405,1.7229,1.7972,1.8728,1.8707,1.8634,1.8764,1.8446,1.7873,1.7292,0.0,0.0,0.0,0.0,0.0,0.0,0.0,0.0,0.0,0.0,0.0,0.0,0.0,0.0,0.0,0.0,0.0,0.0,0.0,0.0,0.0,0.0,0.0,0.0,0.0,0.0,0.0,0.0,0.0,0.0,0.0,0.0,0.0,0.0,0.0,0.0,0.0,0.0,0.0,0.0,0.0,0.0,0.0,0.0,0.0,0.0,0.0,0.0,0.0,0.0,0.0,0.0,0.0,0.0,0.0,0.0,0.0,0.0,0.0,0.0,0.0,0.0,0.0,0.0,0.0,0.0,0.0,0.0,0.0,0.0,0.0,0.0,0.0,0.0,0.0,0.0,0.0,0.0,0.0,0.0,0.0,0.0,0.0,0.0,0.0,0.0,0.0,0.0,0.0,0.0,0.0,0.0,0.0,0.0,0.0,0.0,0.0,0.0,0.0,0.0,0.0,0.0,1.682,1.7692,1.847,1.9171,1.9159,1.9125,1.9194,1.9021,1.8619,1.8131,0.0,0.0,0.0,0.0,0.0,0.0,0.0,0.0,0.0,0.0,0.0,0.0,0.0,0.0,0.0,0.0,0.0,0.0,0.0,0.0,0.0,0.0,0.0,0.0,0.0,0.0,0.0,0.0,0.0,0.0,0.0,0.0,0.0,0.0,0.0,0.0,0.0,0.0,0.0,0.0,0.0,0.0,0.0,0.0,0.0,0.0,0.0,0.0,0.0,0.0,0.0,0.0,0.0,0.0,0.0,0.0,0.0,0.0,0.0,0.0,0.0,0.0,0.0,0.0,0.0,0.0,0.0,0.0,0.0,0.0,0.0,0.0,0.0,0.0,0.0,0.0,0.0,0.0,0.0,0.0,0.0,0.0,0.0,0.0,0.0,0.0,0.0,0.0,0.0,0.0,0.0,0.0,0.0,0.0,0.0,0.0,0.0,0.0,0.0,0.0,0.0,0.0,1.6838,1.7817,1.8659,1.9296,1.9395,1.9434,1.9907,1.9586,1.9279,1.8985,0.0,0.0,0.0,0.0,0.0,0.0,0.0,0.0,0.0,0.0,0.0,0.0,0.0,0.0,0.0,0.0,0.0,0.0,0.0,0.0,0.0,0.0,0.0,0.0,0.0,0.0,0.0,0.0,0.0,0.0,0.0,0.0,0.0,0.0,0.0,0.0,0.0,0.0,0.0,0.0,0.0,0.0,0.0,0.0,0.0,0.0,0.0,0.0,0.0,0.0,0.0,0.0,0.0,0.0,0.0,0.0,0.0,0.0,0.0,0.0,0.1834,0.1851,0.0,0.0,0.0,0.0,0.0,0.0,0.0,0.0,0.0,0.0,0.0,0.0,0.0,0.0,0.0,0.0,0.0,0.0,0.0,0.0,0.0,0.0,0.0,0.0,0.0,0.0,0.0,0.0,0.0,0.0,0.0,0.0,0.0,0.0,0.0,0.0,0.0,0.0,0.0,0.0,1.7565,1.8345,1.9098,2.0151,1.9923,1.9807,2.0494,1.976,1.9455,1.9639,1.8974,0.0,0.0,0.0,0.0,0.0,0.0,0.0,0.0,0.0,0.0,0.0,0.0,0.0,0.0,0.0,0.0,0.0,0.0,0.0,0.0,0.0,0.0,0.0,0.0,0.0,0.0,0.0,0.0,0.0,0.0,0.0,0.0,0.0,0.0,0.0,0.0,0.0,0.0,0.0,0.0,0.0,0.0,0.0,0.0,0.0,0.0,0.0,0.0,0.0,0.0,0.0,0.0,0.0,0.0,0.0,0.0,0.0,0.0,0.0,0.2664,0.2496,0.0,0.0,0.0,0.0,0.0,0.0,0.0,0.0,0.0,0.0,0.0,0.0,0.0,0.0,0.0,0.0,0.0,0.0,0.0,0.0,0.0,0.0,0.0,0.0,0.0,0.0,0.0,0.0,0.0,0.0,0.0,0.0,0.0,0.0,0.0,0.0,0.0,0.0,0.0,0.0,1.8117,1.9018,2.0026,2.0703,2.0589,2.0589,2.1096,2.0557,2.0347,2.0684,2.0089,0.0,0.0,0.0,0.0,0.0,0.0,0.0,0.0,0.0,0.0,0.0,0.0,0.0,0.0,0.0,0.0,0.0,0.0,0.0,0.0,0.0,0.0,0.0,0.0,0.0,0.0,0.0,0.0,0.0,0.0,0.0,0.0,0.0,0.0,0.0,0.0,0.0,0.0,0.0,0.0,0.0,0.0,0.0,0.0,0.0,0.0,0.0,0.0,0.0,0.0,0.0,0.0,0.0,0.398,0.3987,0.3987,0.3987,0.4025,0.4073,0.3659,0.3413,0.3316,0.3538,0.0,0.0,0.0,0.0,0.0,0.0,0.0,0.0,0.0,0.0,0.0,0.0,0.0,0.0,0.0,0.0,0.0,0.0,0.0,0.0,0.0,0.0,1.2083,1.2495,1.3225,1.3702,1.343,0.0,0.0,0.0,0.0,0.0,0.0,0.0,0.0,0.0,0.0,0.0,1.8725,1.9811,2.0641,2.1243,2.1225,2.1214,2.155,2.1323,2.1289,2.1614,2.1213,2.0991,0.0,0.0,0.0,0.0,0.0,0.0,0.0,0.0,0.0,0.0,0.0,0.0,0.0,0.0,0.0,0.0,0.0,0.0,0.0,0.0,0.0,0.0,0.0,0.0,0.0,0.0,0.0,0.0,0.0,0.0,0.0,0.0,0.3011,0.2953,0.0,0.0,0.0,0.0,0.0,0.0,0.0,0.0,0.0,0.0,0.0,0.0,0.0,0.3629,0.3827,0.4164,0.4398,0.4697,0.4966,0.5195,0.5195,0.5195,0.5204,0.5214,0.5521,0.0,0.4286,0.4344,0.0,0.0,0.0,0.0,0.0,0.0,0.0,0.0,0.0,0.0,0.0,0.0,0.0,0.0,0.0,0.0,0.0,0.0,0.0,0.0,0.0,0.0,1.3292,1.3527,1.4289,1.4938,1.5302,1.4683,1.4256,1.485,1.512,1.5515,0.0,0.0,0.0,0.0,0.0,0.0,1.9755,2.0039,2.0657,2.1817,2.1648,2.1437,2.1577,2.151,2.1632,2.2006,2.174,2.1526,2.1618,2.1277,0.0,0.0,0.0,0.0,0.0,0.0,0.0,0.0,0.0,0.0,0.0,0.0,0.0,0.0,0.0,0.0,0.0,0.0,0.0,0.0,0.0,0.0,0.0,0.0,0.0,0.0,0.0,0.0,0.0,0.305,0.3139,0.3214,0.2672,0.235,0.0,0.0,0.0,0.0,0.0,0.0,0.0,0.0,0.0,0.3555,0.3832,0.4173,0.4506,0.4835,0.5107,0.5513,0.566,0.5785,0.5785,0.5785,0.578,0.5982,0.6134,0.63,0.6283,0.5831,0.5629,0.5473,0.0,0.0,0.0,0.0,0.7231,0.7695,0.8311,0.8555,0.8733,0.9299,0.0,0.0,0.0,0.0,0.0,0.0,0.0,1.2262,1.3057,1.3691,1.4316,1.4842,1.5384,1.5911,1.6648,1.6282,1.5919,1.6156,1.6074,1.6202,1.7173,1.749,0.0,0.0,0.0,1.9784,2.0579,2.107,2.1674,2.2205,2.2098,2.2111,2.2285,2.2403,2.2386,2.2497,2.2619,2.2384,2.1973,2.1612,2.0943,0.0,0.0,0.0,0.0,0.0,0.0,0.0,0.0,0.0,0.0,0.0,0.0,0.0,0.0,0.0,0.0,0.0,0.0,0.0,0.0,0.0,0.0,0.0,0.0,0.0,0.0,0.0,0.0,0.3259,0.3336,0.3494,0.2985,0.2668,0.0,0.0,0.0,0.0,0.0,0.0,0.3579,0.3857,0.4096,0.4223,0.451,0.4797,0.5209,0.5417,0.5798,0.6061,0.6273,0.6273,0.6273,0.6378,0.659,0.6695,0.6828,0.7246,0.7817,0.7105,0.6672,0.6549,0.6821,0.6942,0.6936,0.7636,0.8146,0.8571,0.945,0.9641,0.9642,1.0306,1.0356,1.0322,1.1034,0.0,0.0,0.0,0.0,1.2999,1.3922,1.4522,1.5013,1.5693,1.6205,1.67,1.7457,1.743,1.7436,1.7665,1.7258,1.7322,1.8313,1.8677,0.0,1.9706,2.0307,2.0895,2.1483,2.2124,2.2592,2.2752,2.2766,2.2819,2.2966,2.3052,2.2998,2.2821,2.3089,2.3008,2.2243,2.1962,2.1385,2.0531,0.0,0.0,0.0,0.0,0.0,0.0,0.0,0.0,0.0,0.0,0.0,0.0,0.0,0.0,0.0,0.0,0.0,0.0,0.0,0.0,0.0,0.0,0.0,0.0,0.0,0.0,0.0,0.0,0.0,0.3565,0.3633,0.0,0.0,0.0,0.0,0.3664,0.3671,0.3864,0.4283,0.4586,0.4997,0.5483,0.5807,0.5922,0.5941,0.6253,0.6363,0.6373,0.6901,0.7112,0.7112,0.7434,0.7651,0.7657,0.7999,0.8301,0.8374,0.7614,0.7626,0.8309,0.8201,0.8414,0.8803,0.8967,0.9236,0.947,0.945,0.9623,0.9808,0.9941,1.0371,1.1024,1.2125,1.2181,0.0,0.0,1.3625,1.3933,1.4643,1.5063,1.541,1.5909,1.6503,1.7126,1.7631,1.7829,1.8219,1.905,1.8957,1.8957,1.9588,0.0,2.0027,2.0895,2.0828,2.1189,2.2592,2.2806,2.306,2.3634,2.3701,2.3594,2.3327,2.3287,2.3033,2.2458,2.2687,2.2804,2.2462,2.2549,2.2216,2.1586,2.1157,0.0,0.0,0.0,0.0,0.0,0.0,0.0,0.0,0.0,0.0,0.0,0.0,0.0,0.0,0.0,0.0,0.0,0.0,0.0,0.0,0.0,0.0,0.0,0.0,0.0,0.0,0.0,0.0,0.3688,0.3789,0.0,0.3954,0.4088,0.4182,0.4368,0.472,0.496,0.5163,0.5578,0.5935,0.6157,0.6658,0.7061,0.7133,0.7436,0.7627,0.7708,0.7933,0.8045,0.8045,0.8158,0.8276,0.8507,0.8897,0.9222,0.9615,0.9615,0.9233,0.882,0.9131,0.9198,0.9263,0.9951,1.033,1.0485,1.1116,1.1227,1.1236,1.1836,1.2356,1.2989,1.3658,1.3566,1.3444,1.4203,1.4457,1.4744,1.5769,1.6158,1.6529,1.7396,1.7877,1.8216,1.858,1.9001,1.9572,2.0229,1.9676,1.922,2.0267,2.0521,2.0882,2.1563,2.1911,2.2338,2.3073,2.3327,2.3527,2.3754,2.3768,2.3728,2.3621,2.3749,2.3574,2.2743,2.3255,2.3038,2.2151,2.2297,2.2318,2.191,2.1673,2.1155,0.0,0.0,0.0,0.0,0.0,0.0,0.0,0.0,0.0,0.0,0.0,0.0,0.0,0.0,0.0,0.0,0.0,0.0,0.0,0.0,0.0,0.0,0.0,0.0,0.0,0.417,0.4296,0.4122,0.4353,0.4497,0.4729,0.4814,0.5052,0.5385,0.5779,0.6144,0.632,0.6758,0.6997,0.7144,0.7558,0.7868,0.7951,0.8382,0.8475,0.8561,0.8678,0.8794,0.8794,0.891,0.9142,0.9497,0.9613,1.0077,1.0647,1.0763,1.0498,0.9977,1.0309,1.0409,1.0417,1.1084,1.1345,1.1498,1.2208,1.2411,1.2551,1.3136,1.364,1.4002,1.4292,1.4261,1.4355,1.497,1.5243,1.5561,1.656,1.7089,1.7505,1.8201,1.8741,1.9125,1.9385,2.0042,2.0709,2.1267,2.0472,2.006,2.1015,2.1283,2.1537,2.2055,2.262,2.2979,2.3426,2.3674,2.3955,2.4048,2.4062,2.4062,2.4062,2.4018,2.3714,2.304,2.3313,2.2881,2.2043,2.2028,2.1912,2.1595,2.1582,2.1124,2.008,0.0,0.0,0.0,0.0,0.0,0.0,0.0,0.0,0.0,0.0,0.0,0.0,0.0,0.0,0.0,0.0,0.0,0.0,0.0,0.0,0.0,0.0,0.0,0.43,0.4562,0.4753,0.4935,0.5309,0.5702,0.5916,0.6008,0.6221,0.6758,0.6774,0.7095,0.7897,0.7908,0.8082,0.8555,0.8561,0.8567,0.8567,0.8923,0.8923,0.858,0.9169,0.9525,0.9525,0.9873,1.0338,1.0794,1.0562,1.0794,1.1372,1.1025,1.1256,1.1718,1.1816,1.1914,1.2259,1.2259,1.2267,1.2276,1.263,1.3212,1.369,1.369,1.3794,1.4053,1.4265,1.4405,1.4656,1.5472,1.5839,1.6369,1.7241,1.7608,1.799,1.8638,1.9283,1.9799,1.9931,2.0874,2.1554,2.1828,2.1684,2.1634,2.2017,2.2017,2.2149,2.2413,2.2795,0.0,2.3732,2.4004,2.4329,2.4596,2.4623,2.4623,2.4623,2.3813,2.3327,2.3601,2.2819,2.2328,2.2179,2.1823,2.1382,2.0971,2.0958,2.0674,2.0005,0.0,0.0,0.0,0.0,0.0,0.0,0.0,0.0,0.0,0.0,0.0,0.0,0.0,0.0,0.0,0.0,0.0,0.0,0.0,0.0,0.0,0.5133,0.5264,0.5266,0.5464,0.5629,0.5656,0.5812,0.6047,0.6548,0.6721,0.7073,0.7656,0.7945,0.8082,0.8268,0.8506,0.8762,0.9142,0.9483,0.978,1.0016,1.0598,1.0837,1.0716,1.1325,1.1626,1.1626,1.1626,1.1749,1.1996,1.2119,1.2242,1.2496,1.2856,1.3101,1.317,1.2363,1.2259,1.2488,1.2717,1.3142,1.376,1.3986,1.467,1.5186,1.5186,1.5314,1.5547,1.5731,1.5709,1.5825,1.6731,1.6931,1.7276,1.8101,1.8641,1.8924,1.9517,2.0206,2.0605,2.0755,2.1434,2.2057,2.1867,2.244,2.2749,2.2659,2.2619,2.2699,2.3063,2.346,2.3861,2.4098,2.4289,2.4462,2.4342,2.4329,2.4329,2.4329,2.4037,2.3826,2.3614,2.3393,2.3054,2.2497,2.214,2.1772,2.142,2.1306,2.1066,0.0,0.0,0.0,0.0,0.0,0.0,0.0,0.0,0.0,0.0,0.0,0.0,0.0,0.0,0.0,0.0,0.0,0.0,0.0,0.0,0.0,0.0,0.6012,0.6302,0.6649,0.6253,0.6163,0.6364,0.6483,0.6827,0.7205,0.7561,0.801,0.8521,0.8671,0.8934,0.9407,0.954,0.9813,1.0236,1.0451,1.0738,1.1103,1.1789,1.2142,1.2142,1.2616,1.28,1.28,1.275,1.2868,1.3052,1.3256,1.35,1.3555,1.3922,1.4229,1.4257,0.0,0.0,0.0,0.0,1.4461,1.4923,1.5044,1.5585,1.6064,1.6064,1.6092,1.6241,1.6585,1.6575,1.6552,1.7532,1.7848,1.8165,1.8976,1.9474,1.9979,2.0295,2.1084,2.1569,2.1473,2.2093,2.2696,2.2691,2.3134,0.0,2.3434,2.3327,2.326,2.3453,2.3964,2.4155,2.4179,2.4382,2.4569,2.4396,2.4382,2.4382,2.4382,2.413,0.0,0.0,0.0,2.2883,2.2162,2.1864,0.0,0.0,0.0,2.1346,2.1053,2.1133,0.0,0.0,1.8865,1.8547,0.0,0.0,0.0,0.0,0.0,0.0,0.0,0.0,0.0,0.0,0.0,0.0,0.0,0.0,0.0,0.0,0.7292,0.7721,0.8066,0.71,0.6569,0.6992,0.7361,0.7629,0.809,0.8457,0.887,0.9374,0.94,0.9895,1.0805,1.082,0.0,0.0,0.0,1.1664,1.2162,1.2817,1.3078,1.3204,1.3483,1.3744,1.3627,1.3576,1.3687,1.4014,1.4363,1.4463,1.4644,1.4673,1.4915,1.5317,1.4711,1.4635,1.5011,1.5388,1.5628,1.5888,1.6013,0.0,0.0,1.6387,1.6377,1.6512,1.7096,1.711,1.7089,1.8089,1.8572,1.8986,1.9625,2.054,2.1098,2.1163,2.1819,2.235,2.2159,2.2717,2.346,2.3714,2.3794,2.3901,2.4155,2.3995,2.387,2.3882,2.4044,2.4313,2.4371,2.4515,2.469,2.469,2.4541,0.0,2.469,2.4009,2.3689,2.4123,2.319,2.2337,2.1765,2.1302,2.1148,2.1148,2.1549,2.166,2.1474,2.2169,2.2169,2.145,1.9745,1.909,0.0,0.0,0.0,0.0,0.0,0.0,0.0,0.0,0.0,0.0,0.0,0.0,0.0,0.0,0.0,0.709,0.751,0.7856,0.8194,0.8166,0.8117,0.8171,0.8292,0.8421,0.8684,0.9131,0.9731,1.0492,1.0867,1.1402,1.198,1.1988,1.2255,1.2548,1.2548,1.2926,1.3555,1.4088,1.4426,1.4817,1.5248,0.0,1.5465,1.5692,1.5662,1.5604,1.6002,1.5952,1.5744,1.6105,1.6175,1.6034,1.5804,1.5853,1.5853,1.624,1.6368,1.6497,1.7011,1.7,1.6872,1.7129,1.7125,1.7096,1.7393,1.761,0.0,1.9088,1.9575,1.9928,2.0541,2.1254,2.1885,2.2093,2.2427,2.2913,2.3407,2.3607,2.3701,2.3754,2.3955,2.4142,2.4195,2.4155,2.4102,2.4179,2.4329,2.4623,2.4945,2.493,2.4997,2.4997,2.4684,2.4534,2.4997,2.4181,2.3971,2.4709,2.3644,2.2744,2.2189,2.1824,2.1716,2.1716,2.1931,2.1857,2.1474,2.1906,2.1894,2.1474,2.1432,2.131,0.0,0.0,0.0,0.0,0.0,0.0,0.0,0.0,0.0,0.0,0.0,0.6537,0.0,0.0,0.7528,0.8119,0.8568,0.9076,0.9469,0.9737,0.9533,0.8915,0.9078,0.9394,0.9707,1.0214,1.0703,1.1402,1.1612,1.1988,1.2673,1.2936,1.3233,1.3585,1.385,1.4107,1.4747,1.5206,1.5704,1.6104,1.647,1.6635,1.6748,1.6848,1.6692,1.649,1.7097,1.6994,1.6604,1.7214,1.7297,1.7193,1.7183,1.6901,1.6374,1.6623,1.6827,1.7064,1.7587,1.7664,1.7752,1.8027,1.8211,1.8381,1.8769,1.9018,1.9377,2.0295,2.0513,2.0694,2.1253,2.1805,2.2268,2.2717,2.3067,2.3394,2.3701,2.3888,2.4035,2.4168,2.4436,2.469,2.4836,2.4863,2.4756,2.4462,2.4676,2.4917,2.5064,2.5211,2.5139,2.4987,2.4987,2.4987,2.4987,2.4531,2.4583,2.4892,2.415,2.3554,2.3265,2.2978,2.2753,2.2753,2.2645,2.251,2.2066,2.2362,2.2227,2.2066,2.2202,2.1983,0.0,0.0,0.0,0.0,0.0,0.0,0.0,0.0,0.6802,0.7178,0.7354,0.7563,0.7958,0.8513,0.8927,0.9245,0.9845,1.0405,1.0815,1.0986,1.0747,0.9882,0.9957,1.0327,1.0703,1.121,1.168,1.2091,1.2218,1.2681,1.3517,1.394,1.4289,1.4725,1.5026,1.5449,1.5833,1.6277,1.6635,1.7044,1.7286,1.7497,1.7686,1.7679,1.7529,1.7323,1.7778,1.7823,1.7686,1.8153,1.8335,1.8324,1.8552,1.8003,1.7029,1.715,1.7378,1.7651,1.8039,1.8262,1.8519,1.8933,1.9334,1.9638,2.0245,2.0429,2.0705,2.1213,2.1322,2.1283,2.1906,2.2316,2.2631,2.3267,2.3634,2.3808,2.3915,2.4168,2.4449,2.4676,2.4957,2.5237,2.5478,2.5518,2.5358,2.4877,2.501,2.5184,2.5251,2.5451,2.5458,2.5216,2.537,2.5216,2.4907,2.5062,2.5035,2.4829,2.4508,2.4329,2.4278,2.397,2.3816,2.3816,2.3438,2.3175,2.2882,2.2814,2.2814,2.273,2.2718,2.2229,0.7371,0.7517,0.7834,0.8099,0.8095,0.7945,0.0,0.0,0.8092,0.7991,0.7985,0.8374,0.9428,0.9311,0.9266,1.0281,1.0636,1.0822,1.0986,1.1158,1.1381,1.1469,1.1351,1.1121,1.1262,1.1783,1.2353,1.2909,1.3567,1.43,1.5154,1.5468,1.5717,1.6145,1.6335,1.6705,1.6975,1.7006,1.7286,1.7545,1.7938,1.8067,1.811,1.84,1.8475,1.825,1.8282,1.8671,1.9107,1.926,1.9138,1.8971,1.9509,1.9408,1.8688,1.8411,1.8164,1.815,1.8823,1.8958,1.8799,1.959,1.999,2.0402,2.0426,2.0693,2.1078,2.1369,2.1854,2.2369,2.2669,2.3046,2.328,2.3968,2.3928,2.3915,2.4422,2.477,2.4997,2.5024,2.5264,2.5478,2.5504,2.5518,2.5491,2.5424,2.5438,2.5558,2.5825,2.5568,2.5531,2.6109,2.5503,2.5199,2.5041,2.5503,2.5387,2.4815,2.4646,2.4532,2.429,2.4278,2.4278,2.4278,2.3778,2.3612,2.3612,2.3279,2.3125,2.2995,2.2995,2.2947,0.8683,0.8667,0.876,0.0,0.8726,0.8692,0.8657,0.8628,0.8582,0.8816,0.8857,0.911,0.9794,1.0047,1.0338,0.0,1.1316,1.1642,1.2178,1.2155,1.2234,1.2984,1.2742,1.2443,1.2339,1.2677,1.3285,1.415,1.452,1.5157,1.5913,1.6388,1.6644,1.6778,1.713,1.7453,1.7857,1.7998,1.8276,1.882,1.9077,1.9346,1.9625,1.9826,1.9871,1.9759,1.9625,1.9625,1.9858,1.9858,1.9791,1.9712,2.0112,1.9934,1.9667,1.9234,1.9167,1.9341,1.9749,2.0052,2.0064,2.0467,2.0833,2.1071,2.091,2.1394,2.2069,2.2206,2.2375,2.2749,2.334,2.3346,2.3443,2.417,2.4489,2.4649,2.5064,2.5237,2.5384,2.5558,2.5692,2.5825,2.5999,2.6026,2.6026,2.6026,2.5879,2.5812,2.5945,2.5949,2.6095,2.6373,2.5911,2.5594,2.5766,2.607,2.6017,2.5741,2.5728,2.5675,2.5557,2.5087,2.4774,2.4774,2.3984,2.3597,2.3597,2.2961,2.2973,2.3285,2.2972,2.32,0.9657,0.9482,0.0,0.9501,0.9381,0.9316,0.9316,0.925,0.9212,0.9655,0.9798,1.0024,1.0563,1.0894,1.1351,1.1736,1.2012,1.2482,1.3234,1.3155,1.3206,1.3857,1.3752,1.3726,1.3761,1.3884,1.4227,1.5147,1.5471,1.5998,1.6542,1.7027,1.7287,1.7423,1.7748,1.8085,1.8413,1.8738,1.9089,1.9617,2.0009,2.0283,2.0569,2.0637,2.0672,2.066,2.0557,2.0477,2.0554,2.0623,2.0612,2.0566,2.0781,2.0804,2.0612,2.0387,2.0283,2.0175,2.046,2.0816,2.1031,2.1124,2.1616,2.1848,2.1572,2.2293,2.2999,2.2907,2.3064,2.3443,2.3955,2.3931,2.3958,2.4608,2.4983,2.5157,2.5451,2.5571,2.5692,2.5919,2.6026,2.6146,2.636,2.6386,2.6386,2.6386,2.6279,2.6159,2.6092,2.6266,2.6228,2.607,2.607,2.607,2.6386,2.6228,2.6228,2.6386,2.6228,2.6228,2.6386,2.5766,2.5289,2.5289,2.4294,2.3879,2.3879,2.3357,2.3369,2.3721,2.3562,2.3512,0.9697,0.9689,0.9713,1.0372,1.0274,0.9976,0.9976,1.0109,1.0343,1.068,1.0818,1.128,1.2229,1.1963,1.191,1.3065,1.3035,1.3046,1.3813,1.3866,1.3875,1.3875,1.4146,1.4612,1.5196,1.5224,1.5367,1.5766,1.6375,1.6766,1.7183,1.7402,1.7803,1.8078,1.8293,1.8519,1.8745,1.9184,1.9448,1.9704,2.0388,2.0523,2.0318,2.0557,2.0672,2.0683,2.0934,2.121,2.1296,2.1543,2.1496,2.1296,2.1989,2.1936,2.1637,2.2073,2.1443,2.0283,2.0717,2.0995,2.1205,2.1475,2.2179,2.2688,2.2402,2.2994,2.3701,2.3407,2.3941,2.4596,2.4609,2.4823,2.5117,2.5411,2.5277,2.5157,2.5451,2.5745,2.5945,2.5959,2.6186,2.6373,2.6386,2.6386,2.6386,2.6386,2.6613,2.6694,2.6413,2.6386,2.607,2.5289,2.5924,2.6386,2.6386,2.607,2.5911,2.6386,2.607,2.5911,2.6386,2.607,2.5753,2.5753,2.5276,2.5117,2.5117,2.5104,2.4786,2.448,2.4798,2.4639,1.12,1.123,1.1274,1.155,1.1578,1.1518,1.1518,1.1343,1.1385,1.1611,1.1435,1.1396,1.2107,1.2098,1.2251,1.2934,1.3204,1.3585,1.4101,1.4385,1.4554,1.495,1.531,1.5854,1.6308,1.5909,1.5968,1.6654,1.7015,1.7423,1.7833,1.8047,1.825,1.8552,1.8757,1.9182,1.9737,2.0009,2.0422,2.1143,2.155,2.1781,2.1698,2.1781,2.1977,2.2126,2.2223,2.2509,2.2719,2.2521,2.2509,2.2287,2.2372,2.2259,2.2109,2.2259,2.2001,2.1698,2.2141,2.2227,2.2263,2.2513,2.2739,2.2832,2.2537,2.3015,2.3642,2.3733,2.4263,2.4676,2.4877,2.501,2.5157,2.5451,2.5585,2.5745,2.6026,2.6172,2.6239,2.6239,2.6319,2.6453,2.664,2.668,2.6747,2.6934,2.7216,2.7189,2.6961,2.7297,2.7136,2.665,2.6812,2.6974,2.6974,2.6812,2.665,2.6502,2.6326,2.6326,2.6164,2.6002,2.575,2.557,2.557,2.532,2.513,2.513,2.5072,2.5248,2.541,2.535,1.2119,1.2009,1.1859,1.2293,1.2259,1.2144,1.2144,1.2312,1.2365,1.2481,1.2258,1.216,1.257,1.2675,1.2785,1.3233,1.3663,1.397,1.4502,1.4913,1.5394,1.5688,1.6201,1.6746,1.7223,1.6944,1.7016,1.7444,1.8078,1.8346,1.8218,1.8714,1.891,1.9063,1.9282,1.9735,2.0432,2.0705,2.1269,2.2301,2.2238,2.2275,2.2559,2.2423,2.2571,2.3016,2.3103,2.3154,2.3154,2.3005,2.2856,2.2868,2.2518,2.2554,2.2542,2.2542,2.2765,2.2814,2.293,2.2732,2.2534,2.2797,2.2879,2.2998,2.2663,2.3378,2.4114,2.4446,2.4794,2.5157,2.5496,2.563,2.5598,2.5785,2.5972,2.6159,2.6346,2.6386,2.6386,2.6386,2.6466,2.66,2.6787,2.6907,2.7081,2.7375,2.7595,2.7663,2.7091,2.7431,2.7595,2.7105,2.7268,2.7268,2.7268,2.7091,2.6941,2.679,2.6626,2.6462,2.6449,2.5956,2.588,2.5852,2.5852,2.5775,2.5583,2.5744,2.5834,2.6015,2.6177,2.6118,1.2478,1.2019,1.1716,1.2497,1.2542,1.2312,1.2321,1.2929,1.3292,1.3048,1.3156,1.3447,0.0,0.0,1.3398,1.3986,1.4213,1.4496,1.4903,1.5623,1.6044,0.0,0.0,0.0,0.0,0.0,1.8523,1.827,1.9022,1.9284,1.8455,1.939,1.9667,1.9382,2.0036,2.042,2.0683,2.1137,2.187,2.2868,2.2337,2.2362,2.3095,2.2668,2.2802,2.3095,2.3362,2.3328,2.303,2.3042,2.3055,2.2918,2.2876,2.2973,2.3265,2.3265,2.3438,2.3587,2.3229,2.2558,2.2269,2.2557,2.2988,2.3288,2.2844,2.3849,2.5104,2.5117,2.5531,2.6114,2.6452,2.65,2.6386,2.6386,2.6386,2.6386,2.6386,2.6386,2.6386,2.6386,2.664,2.6854,2.6867,2.7108,2.7402,2.7682,2.8068,2.796,2.6843,2.7144,2.7144,2.6639,2.698,2.7308,2.7308,2.6967,2.6803,2.7308,2.6501,2.6501,2.7308,2.6159,2.5817,2.6613,2.6311,2.6298,2.66,2.7091,2.7105,2.6613,2.7118,2.6639,1.3334,1.3334,1.3343,1.3742,1.3761,1.3565,1.3713,1.391,1.3986,1.3555,1.3258,1.3119,1.3249,1.324,1.3444,1.4175,1.4666,1.5224,1.5759,1.633,0.0,1.7318,0.0,1.8622,1.8913,1.9347,1.968,1.9442,1.9379,1.9271,1.9129,1.9216,1.9424,1.9892,2.0218,2.0658,2.1405,2.2043,2.2476,2.27,2.3138,2.3352,2.3504,2.3808,2.3845,2.3667,2.425,2.4402,2.4083,2.4289,2.4227,2.3922,2.3525,2.3255,2.3089,2.3396,2.3599,2.3791,2.4265,2.4276,2.416,2.4612,2.4763,2.4913,2.4763,2.5073,2.5451,2.6139,2.6148,2.6168,2.6697,2.6648,2.6386,2.6386,2.6386,2.6386,2.6386,2.6386,2.6386,2.6386,2.68,2.7215,2.7442,2.7722,2.7949,2.8016,2.8197,2.8171,2.7755,2.7909,2.7742,2.7252,2.7084,2.7084,2.7433,2.7252,2.7252,2.742,2.7265,2.7097,2.6916,2.6916,2.6993,2.6939,2.7092,2.7152,2.7091,2.7268,2.7211,2.6926,2.7423,2.721,1.4328,1.4358,1.4348,1.4471,1.4471,1.427,1.4175,1.4375,1.429,1.3665,1.3348,1.3236,1.3452,1.3466,1.3704,0.0,0.0,0.0,1.604,1.7005,1.7665,0.0,1.8677,0.0,1.9347,1.9982,2.0345,2.0486,2.0071,1.969,1.9515,1.9904,2.0241,2.066,2.0943,2.1413,2.2126,2.2846,2.3285,2.3438,2.3741,2.4124,2.4431,2.4585,2.4648,2.467,2.498,2.4953,2.467,2.4827,2.4739,2.4598,2.425,2.4146,2.4146,2.4301,2.4532,2.4621,2.5281,2.563,2.5838,2.5451,2.5317,2.5344,2.5312,2.5445,2.5772,2.6378,2.6302,2.6343,2.6833,2.6702,2.6386,2.6386,2.6386,2.6386,2.6386,2.6386,2.6466,2.672,2.7041,2.7402,2.7816,2.803,2.8136,2.8136,2.7981,2.7812,2.7812,2.7968,2.7968,2.7304,2.7304,2.7474,2.7487,2.7643,2.7812,2.7812,2.7643,2.7474,2.7461,2.7304,2.7227,2.7574,2.7561,2.7649,2.7655,2.749,2.7403,2.7561,2.7561,2.7486,1.536,1.5202,1.4942,1.4886,1.4866,1.4798,1.4251,1.4576,1.4632,1.375,1.3479,1.346,1.38,1.374,1.3937,1.4817,0.0,1.6044,1.6244,1.7391,1.8233,1.81,1.8982,1.9552,1.9726,2.0215,2.0663,2.116,2.0888,2.041,1.9904,2.075,2.1343,2.1502,2.2186,2.2591,2.2858,2.3575,2.402,2.4329,2.4521,2.4855,2.5471,2.5163,2.5291,2.5418,2.5611,2.5291,2.4957,2.4996,2.5009,2.5035,2.4959,2.5062,2.5218,2.5374,2.5531,2.5872,2.5949,2.65,2.6738,2.5657,2.5251,2.5304,2.5085,2.5502,2.6066,2.6477,2.6386,2.6544,2.6874,2.6702,2.6386,2.6386,2.6386,2.64,2.644,2.648,2.6653,2.7161,2.7295,2.7495,2.8043,2.8136,2.8136,2.8136,2.7812,2.7487,2.7474,2.7812,2.763,2.6783,2.7461,2.7812,2.7474,2.7812,2.815,2.8136,2.7812,2.7812,2.815,2.7461,2.7304,2.815,2.7812,2.7812,2.8136,2.7812,2.7838,2.8203,2.7825,2.7526,1.5594,1.571,1.5648,1.5396,1.5475,1.5453,1.5023,1.5031,0.0,1.433,1.3818,1.3585,1.3929,1.3645,1.3981,1.5573,1.5813,1.6201,1.7374,1.7746,1.8186,0.0,1.8982,1.9492,2.0262,2.0462,2.0816,2.1691,2.1436,2.1167,2.1067,2.13,2.1984,2.2953,2.3468,2.377,2.4048,2.4326,2.4621,2.4621,2.5322,2.5596,2.5767,2.6082,2.5949,2.5426,2.5976,2.5936,2.5426,2.5976,2.5924,2.5609,2.5661,2.5358,2.5212,2.5516,2.5714,2.5898,2.6175,2.6346,2.6517,2.6213,2.6472,2.6643,2.6226,2.6279,2.6477,2.686,2.6702,2.6544,2.6874,2.6702,2.6386,2.6386,2.6386,2.6453,2.6694,2.6934,2.7148,2.7241,2.7455,2.7736,2.8083,2.8136,2.8136,2.8136,2.7812,2.7304,2.6965,2.6953,2.6783,2.6273,2.6443,2.6613,2.6965,2.6965,2.7304,2.8136,2.8136,2.815,2.8136,2.7968,2.7968,2.8136,2.8136,2.8136,2.8136,2.815,2.8101,2.7997,2.8087,2.7722,1.6233,1.6371,1.6308,1.59,1.5941,1.5987,1.5252,0.0,0.0,1.4427,1.4019,1.3908,1.4364,1.4112,1.4299,1.5788,1.6085,1.65,1.76,1.8207,1.8563,1.8714,1.9104,1.9651,2.0202,2.06,2.1159,2.1848,2.2126,2.2211,2.1781,2.2335,2.283,2.3555,2.4163,2.4521,2.4494,2.5087,2.5229,2.5229,2.5846,2.607,2.607,2.6386,2.6148,2.5872,2.6333,2.6148,2.5872,2.6333,2.6228,2.607,2.607,2.5911,2.5766,2.607,2.607,2.607,2.6386,2.6544,2.6716,2.6386,2.6544,2.6702,2.6386,2.6386,2.6386,2.6702,2.6544,2.6386,2.6702,2.6544,2.6386,2.6386,2.6507,2.6613,2.66,2.6827,2.7081,2.7241,2.7375,2.7615,2.807,2.8136,2.815,2.7812,2.7643,2.7304,2.6796,2.7122,2.7122,2.6273,2.6783,2.7122,2.7135,2.7474,2.7799,2.8136,2.8136,2.8136,2.8136,2.8136,2.8136,2.8136,2.8487,2.8487,2.8487,2.8487,2.8555,2.869,2.8541,2.8466,1.6797,1.7001,1.6829,1.6264,1.6358,1.6316,1.5381,1.5064,0.0,1.4559,1.4178,1.422,1.4729,1.4575,1.4691,1.6045,1.6322,1.6614,1.7444,1.8378,1.8659,1.8433,1.9215,0.0,2.0009,2.0712,2.1443,2.1945,2.2842,2.3166,2.2643,2.3229,2.3817,2.425,2.484,2.5127,2.5087,2.5635,2.5911,2.5911,2.6228,2.6386,2.6386,2.6386,2.6386,2.6386,2.6386,2.6386,2.6386,2.6386,2.6386,2.6386,2.6386,2.6386,2.6386,2.6386,2.6386,2.6386,2.6228,2.6544,2.686,2.6386,2.6386,2.6544,2.6386,2.6386,2.6386,2.6386,2.6386,2.6386,2.6386,2.6386,2.6386,2.6386,2.6613,2.676,2.6533,2.6707,2.7001,2.7295,2.7362,2.7522,2.8056,2.8136,2.815,2.7643,2.7474,2.7304,2.6965,2.7461,2.763,2.6443,2.7461,2.7981,2.7474,2.7812,2.815,2.8136,2.8136,2.8136,2.8136,2.8136,2.8136,2.8136,2.8487,2.8655,2.8655,2.8824,2.9019,2.9411,2.9187,2.9257,1.6379,1.6753,1.6872,1.6602,1.6732,1.669,1.5627,0.0,1.5376,1.4895,1.4393,1.426,1.5055,1.4676,1.4867,1.6391,1.6435,1.6644,1.7823,1.811,1.8207,1.8412,0.0,0.0,2.0238,2.095,2.1502,2.2211,2.3242,2.4009,2.4285,2.4436,2.4717,2.5312,2.5758,2.6052,2.6188,2.6373,2.6386,2.6386,2.6386,2.6386,2.6386,2.6386,2.6386,2.6386,2.6386,2.6386,2.6386,2.6386,2.6386,2.6386,2.6386,2.6386,2.6386,2.6386,2.6386,2.6386,2.5911,2.607,2.6386,2.5911,2.6386,2.6874,2.6544,2.6386,2.6386,2.6386,2.6386,2.6386,2.6386,2.6386,2.6386,2.6386,2.6613,2.6814,2.6787,2.7014,2.7308,2.7602,2.7655,2.7762,2.8083,2.8136,2.815,2.8136,2.7812,2.7474,2.7487,2.7474,2.7474,2.7304,2.7799,2.7968,2.7474,2.7474,2.7812,2.8136,2.8136,2.8136,2.8136,2.8136,2.8136,2.8136,2.8318,2.8305,2.8305,2.8655,2.896,2.9405,2.9453,2.9589,1.6152,1.6364,1.6322,1.6316,1.6402,1.6392,1.583,0.0,1.5099,1.4908,1.4572,1.4509,1.4835,1.5014,1.5438,1.6344,1.6444,1.6765,1.7572,1.8042,1.8397,1.8484,1.939,2.0192,2.0573,2.1249,2.1912,2.2778,2.3493,2.4086,2.4723,2.504,2.5325,2.5772,2.5892,2.6092,2.6386,2.6386,2.6386,2.6386,2.6386,2.6386,2.6386,2.6386,2.6386,2.6386,2.6386,2.6386,2.6386,2.6386,2.6386,2.6386,2.6386,2.6228,2.607,2.607,2.5911,2.5607,2.5448,2.5448,2.5607,2.5753,2.607,2.6228,2.607,2.6228,2.6386,2.607,2.6228,2.6386,2.6386,2.6386,2.6386,2.6386,2.6613,2.6774,2.66,2.6787,2.7081,2.7375,2.7442,2.7589,2.8056,2.8136,2.815,2.7812,2.7812,2.7812,2.7474,2.7643,2.7812,2.7981,2.8136,2.8136,2.7981,2.7981,2.7981,2.815,2.8323,2.8417,2.8417,2.8591,2.8684,2.8684,2.9028,2.9186,2.9528,3.0055,3.0453,3.0738,3.0624,3.0652,1.5812,1.6053,1.6193,1.6028,1.6191,1.615,0.0,0.0,1.4877,1.4688,1.4603,1.453,1.4835,1.5269,1.5677,1.6349,1.6577,1.6754,1.7434,1.8061,1.8461,1.8753,1.9712,2.0422,2.0861,2.1502,2.2404,2.3504,2.3833,2.4291,2.5281,2.5617,2.5825,2.5959,2.6039,2.6186,2.6386,2.6386,2.6386,2.6386,2.6386,2.6386,2.6386,2.6386,2.6386,2.6386,2.6386,2.6386,2.6386,2.6386,2.6386,2.6228,2.6228,2.5911,2.5594,2.5594,2.5435,2.5289,2.497,2.513,2.5289,2.5435,2.5435,2.5594,2.5435,2.5753,2.607,2.5753,2.5753,2.6083,2.6083,2.607,2.6228,2.6228,2.6454,2.6787,2.668,2.68,2.7068,2.7455,2.7455,2.7549,2.8056,2.8136,2.815,2.7812,2.7981,2.815,2.7812,2.7968,2.8136,2.7981,2.7981,2.7981,2.815,2.8136,2.8136,2.8136,2.843,2.8604,2.8604,2.8885,2.9032,2.9206,2.9553,2.9886,3.0405,3.0838,3.1138,3.148,3.1222,3.1049,1.5463,1.607,1.6364,1.6104,1.6316,1.6412,1.5575,1.5353,1.5066,1.4593,1.4473,1.4676,1.5149,1.5246,1.5601,1.6675,1.656,1.6686,1.7784,1.7895,1.8217,1.9107,1.9681,2.0321,2.0826,2.1798,2.2778,2.4227,2.4278,2.4985,2.6346,2.6386,2.6253,2.5959,2.6239,2.6386,2.6386,2.6386,2.6386,2.6386,2.6386,2.6386,2.6386,2.6386,2.6386,2.6386,2.6386,2.6386,2.6386,2.6386,2.6228,2.5753,2.5753,2.5594,2.513,2.513,2.5448,2.5594,2.4811,2.5117,2.5594,2.4811,2.4811,2.497,2.4652,2.5117,2.5753,2.5289,2.513,2.513,2.513,2.5448,2.5753,2.5753,2.6294,2.6907,2.7188,2.7255,2.7428,2.8016,2.7896,2.7789,2.8096,2.8136,2.8136,2.8136,2.8136,2.8136,2.8136,2.8136,2.7981,2.7487,2.7487,2.7643,2.815,2.8136,2.8136,2.8136,2.843,2.8604,2.8604,2.8885,2.9206,2.9727,2.9727,2.99,3.0419,3.0624,3.0651,3.0637,3.0811,3.0832,1.4692,1.4731,1.4837,1.511,1.5122,1.5095,1.5349,1.4883,1.4417,1.4448,1.46,1.4815,1.4738,1.5732,1.6442,1.6243,1.6697,1.7066,1.7085,1.7697,1.8396,1.913,2.0427,2.1486,2.1822,2.2596,2.3154,2.3668,2.4329,2.5062,2.5753,2.5964,2.603,2.6253,2.6346,2.6386,2.6386,2.6386,2.6386,2.6386,2.6386,2.6386,2.6386,2.6386,2.6386,2.6386,2.6386,2.6386,2.6386,2.6386,2.6386,2.6228,2.5911,2.5435,2.513,2.4811,2.4652,2.448,2.4492,2.4492,2.448,2.4811,2.4811,2.4652,2.4492,2.4811,2.5289,2.513,2.513,2.513,2.5435,2.5435,2.5499,2.6013,2.5957,2.5937,2.6221,2.6613,2.6895,2.6942,2.7429,2.7622,2.7759,2.7643,2.7812,2.8136,2.7981,2.7812,2.815,2.763,2.7304,2.7474,2.6965,2.6783,2.7122,2.7474,2.7643,2.7643,2.826,2.8604,2.8604,2.8885,2.9138,2.9515,2.9662,2.9996,3.0727,3.0937,3.0966,3.0952,3.1146,3.0933,1.4086,1.4166,1.4385,1.4442,1.4495,0.0,1.5093,1.4641,1.4189,1.4322,1.4526,1.4783,1.4869,1.5665,1.6279,1.6375,1.6641,1.693,1.7008,1.7642,0.0,1.9404,2.0995,2.208,2.2399,2.303,2.3568,2.3846,2.4585,2.5334,2.5792,2.5977,2.607,2.6386,2.6386,2.6386,2.6386,2.6386,2.6386,2.6386,2.6386,2.6386,2.6386,2.6386,2.6386,2.6386,2.6386,2.6386,0.0,2.6228,2.5911,2.5594,2.5435,2.497,2.4652,2.4332,2.4332,2.4332,2.4492,2.4332,2.4332,2.4811,2.4652,2.4332,2.4492,2.4492,2.4652,2.4652,2.4811,2.4996,2.5084,2.5282,2.5359,2.5801,2.5778,2.5906,2.6071,2.6364,2.6659,2.6839,2.72,2.7601,2.7786,2.7643,2.7643,2.815,2.7812,2.7643,2.815,2.7735,2.7421,2.7317,2.6885,2.6556,2.6456,2.7135,2.7487,2.7487,2.8273,2.8604,2.8604,2.8885,2.9125,2.9488,2.9648,2.9982,3.0699,3.0909,3.0938,3.0938,3.1233,3.1135,0.0,1.4231,1.4537,1.4127,1.4436,1.4741,1.455,1.4412,0.0,1.4134,1.4325,1.4744,1.531,1.5336,1.5653,1.6691,1.6508,1.6599,1.7334,1.7817,0.0,1.9889,2.1102,2.2032,2.2434,2.2918,2.3795,2.4687,2.514,2.574,2.6346,2.6373,2.6386,2.6386,2.6386,2.6386,2.6386,2.6386,2.6386,2.6386,2.6386,2.6386,2.6386,2.6386,2.6386,2.6386,2.6386,2.6228,2.5753,2.5753,2.5276,2.4492,2.4492,2.4172,2.3852,2.384,2.4332,2.497,2.4652,2.4811,2.497,2.4652,2.4172,2.384,2.4332,2.4172,2.384,2.384,2.4172,2.4394,2.4328,2.4889,2.5451,2.5425,2.5853,2.6389,2.6401,2.6605,2.6965,2.7304,2.7474,2.7643,2.815,2.7812,2.7643,2.815,2.7812,2.7656,2.8177,2.843,2.8155,2.7042,2.7063,2.6929,2.6153,2.6978,2.7487,2.7487,2.8247,2.8577,2.8577,2.8831,2.9152,2.9685,2.9685,3.0018,3.0349,3.0596,3.0637,3.0637,3.116,3.152,1.2783,0.0,1.2961,1.3466,1.341,1.3306,0.0,1.4059,1.4035,1.4134,1.4686,1.5164,1.4993,1.5687,1.6138,1.5893,1.6398,1.6713,1.7065,1.8413,0.0,1.9564,2.0822,2.171,2.1752,2.278,2.3655,2.4099,2.4993,2.5591,2.6039,2.6266,2.6386,2.6386,2.6386,2.6386,2.6386,2.6386,2.6386,2.6386,2.6386,2.6386,2.6386,2.6386,2.6386,2.6386,2.607,2.5911,2.5753,2.5448,2.513,2.497,2.4652,2.4492,2.4332,2.4,2.4172,2.4652,2.4492,2.4492,2.4492,2.4172,2.384,2.384,2.4332,2.4172,2.384,2.4172,2.4332,2.4554,2.4665,2.4889,2.5176,2.5483,2.549,2.5432,2.564,2.5896,2.6273,2.6443,2.6783,2.7135,2.7643,2.6965,2.6783,2.7474,2.7304,2.7212,2.7945,2.768,2.7439,2.7406,2.6946,2.6673,2.6438,2.6752,2.7135,2.7487,2.8047,2.8257,2.8257,2.8323,2.847,2.887,2.9542,2.9759,2.9705,3.072,3.0976,3.0651,3.1393,3.1856,1.2365,1.233,1.2616,1.3067,1.2998,1.2892,1.3693,1.3788,1.3798,1.38,1.4494,1.5004,1.488,1.5686,1.6331,1.6109,1.6664,1.718,1.7533,1.8738,1.9656,1.9895,2.0955,2.1738,2.2276,2.3091,2.3856,2.416,2.5159,2.5785,2.579,2.6069,2.6386,2.6386,2.6386,2.6386,2.6386,2.6544,2.6544,2.6386,2.6544,2.6544,2.6386,2.6386,2.6228,2.607,2.5911,2.5594,2.5117,2.497,2.4652,2.4492,2.4332,2.4172,2.4172,2.384,2.4172,2.4811,2.4492,2.4492,2.4492,2.4012,2.384,2.384,2.4332,2.4332,2.4172,2.4652,2.4652,2.4579,2.4975,2.5074,2.5211,2.542,2.5385,2.5264,2.5409,2.5604,2.5763,2.6103,2.6273,2.6613,2.7304,2.6783,2.6443,2.7304,2.6965,2.6885,2.7865,2.7663,2.7444,2.7597,2.7308,2.6996,2.687,2.6961,2.7304,2.7474,2.7981,2.8136,2.8136,2.8136,2.8386,2.873,2.9226,2.955,2.9691,3.0551,3.0951,3.1081,3.1771,3.2193,1.211,1.219,1.2602,1.2946,1.2882,1.303,1.3606,1.3587,1.3507,1.3628,0.0,1.4614,1.4916,1.5688,1.6219,1.647,1.7122,1.7817,1.8306,1.9277,1.9895,2.0347,2.1077,2.2032,2.3138,2.3655,2.4173,2.4475,2.5471,2.5803,2.5478,2.6069,2.6386,2.6386,2.6386,2.6386,2.6386,2.6716,2.6716,2.6386,2.6702,2.6702,2.6386,2.6386,2.6228,2.5753,2.5753,2.5276,2.4492,2.4492,2.4172,2.384,2.384,2.384,2.384,2.384,2.4332,2.497,2.4652,2.4492,2.4332,2.4,2.368,2.384,2.4332,2.4332,2.4332,2.497,2.4811,2.4616,2.5149,2.5298,2.5268,2.5313,2.5433,2.5433,2.5433,2.5433,2.5604,2.5933,2.6103,2.6273,2.7304,2.6783,2.6443,2.7304,2.6821,2.6607,2.7586,2.7682,2.7523,2.7561,2.7485,2.7346,2.7292,2.7328,2.7487,2.7656,2.7981,2.8163,2.8217,2.8217,2.8386,2.8892,2.8933,2.9395,2.9943,3.0567,3.1067,3.1596,3.2106,3.2456,1.1682,1.1742,1.1914,1.2488,1.2641,1.2678,1.3264,1.3586,1.3722,1.3517,1.4218,1.4844,1.5361,1.5632,1.5817,1.6273,1.7378,1.8452,1.922,2.0238,2.0773,2.0484,2.1424,2.2129,2.2331,2.3574,2.4475,2.4475,2.5471,2.5959,2.5959,2.6226,2.6386,2.6386,2.6386,2.6386,2.6386,2.6386,2.6386,2.6386,2.6386,2.6386,2.6386,2.6386,2.6228,2.5753,2.5448,2.497,2.4492,2.4012,2.384,2.384,2.384,2.384,2.384,2.384,2.4332,2.513,2.497,2.4492,2.384,2.384,2.352,2.3359,2.4172,2.4012,2.3692,2.4811,2.513,2.4937,2.4821,2.4967,2.5268,2.5313,2.5433,2.5433,2.5433,2.5433,2.5604,2.5933,2.5763,2.5945,2.7317,2.6783,2.6273,2.6796,2.6986,2.7068,2.7184,2.7284,2.7355,2.7578,2.7206,2.7084,2.7584,2.7444,2.7643,2.815,2.815,2.8257,2.8524,2.8537,2.8708,2.9207,2.9796,3.0153,2.9943,3.1339,3.1845,3.1596,3.2106,3.2456,1.1345,1.1509,1.1825,1.216,1.253,1.2906,1.3499,1.3797,1.3894,1.3683,1.4192,1.4837,1.5165,1.5803,1.6686,1.7684,1.8429,1.8993,1.9773,2.0352,2.0857,2.1209,2.1959,2.2645,2.3273,2.422,2.4696,2.4696,2.5551,2.5959,2.5647,2.6383,2.6702,2.6702,2.6702,2.6702,2.6702,2.6544,2.6386,2.6386,2.6544,2.6544,2.6386,2.6228,2.5911,2.5448,2.497,2.4492,2.4172,2.384,2.384,2.384,2.384,2.384,2.384,2.4012,2.4172,2.4172,2.4652,2.4332,2.384,2.384,2.352,2.3371,2.4012,2.384,2.368,2.4172,2.4431,2.464,2.4857,2.5078,2.5118,2.5349,2.5433,2.5433,2.5433,2.5433,2.5433,2.5604,2.5604,2.5604,2.6613,2.6116,2.5945,2.6626,2.6866,2.6971,2.7247,2.7346,2.7442,2.8076,2.7749,2.7624,2.7998,2.8128,2.8154,2.815,2.8136,2.8203,2.835,2.8681,2.9275,2.9616,3.0423,3.0951,3.1311,3.1961,3.2193,3.2192,3.2544,3.2632,1.1017,1.1318,1.167,1.182,1.2337,1.3014,1.3626,1.3784,1.3854,1.3984,1.4439,1.4892,1.5289,1.6308,1.7555,1.8846,1.9187,1.9531,2.0333,2.0746,2.1342,2.2032,2.2596,2.34,2.4436,2.494,2.515,2.515,2.5737,2.5896,2.5583,2.6423,2.6874,2.6874,2.7032,2.7032,2.7032,2.6702,2.6544,2.6386,2.6544,2.6544,2.6228,2.5753,2.5435,2.513,2.4652,2.4332,2.4012,2.3852,2.384,2.384,2.384,2.368,2.3692,2.4332,2.4012,2.3371,2.4172,2.4172,2.384,2.384,2.352,2.3199,2.368,2.368,2.3692,2.3925,2.413,2.4371,2.4906,2.496,2.5035,2.5361,2.5433,2.5433,2.5433,2.5433,2.5433,2.5433,2.5433,2.5604,2.6103,2.5763,2.5775,2.6626,2.6745,2.7046,2.7584,2.7573,2.7875,2.8462,2.822,2.8092,2.8256,2.8314,2.839,2.8163,2.8136,2.8345,2.8413,2.8982,2.9644,3.0226,3.0966,3.1627,3.2398,3.2471,3.2632,3.288,3.2719,3.269,1.0476,1.0964,1.1484,1.1264,1.1758,1.2474,1.359,1.3651,1.3806,1.4605,1.5008,1.5513,1.6208,1.6901,1.7564,1.8239,1.9073,1.991,2.1096,2.2153,2.2781,2.2819,2.3804,2.4423,2.4475,2.5431,2.5919,2.5919,2.6186,2.636,2.636,2.6373,2.6386,2.6386,2.686,2.7032,2.7032,2.7032,2.6716,2.6386,2.607,2.5911,2.5753,2.5289,2.513,2.513,2.4652,2.4492,2.4492,2.4012,2.384,2.384,2.384,2.352,2.3359,2.4172,2.4012,2.3371,2.4172,2.4172,2.384,2.384,2.352,2.3199,2.368,2.3532,2.3419,2.398,2.4395,2.4601,2.4625,2.4637,2.4794,2.5313,2.5433,2.5433,2.5433,2.5433,2.5433,2.5433,2.5433,2.5604,2.6103,2.6103,2.6273,2.6783,2.7241,2.7597,2.761,2.8106,2.8462,2.8474,2.8233,2.8015,2.7982,2.818,2.8163,2.8136,2.8136,2.8439,2.9234,2.9261,2.9926,3.1081,3.1682,3.2174,3.2734,3.3027,3.3188,3.3202,3.2602,3.2485,1.0586,1.0972,1.15,1.1382,1.1711,1.239,1.34,1.3562,1.3744,1.4326,1.4663,1.5219,1.6312,1.7297,1.809,1.8992,1.9532,2.0206,2.1237,2.1805,2.2319,2.2627,2.3491,2.4189,2.4983,2.5518,2.5911,2.5911,2.6175,2.6228,2.607,2.6544,2.6716,2.6716,2.6874,2.7032,2.7032,2.6702,2.6544,2.6386,2.6228,2.607,2.5753,2.5594,2.5289,2.4652,2.4492,2.4332,2.4012,2.384,2.384,2.384,2.384,2.3359,2.2889,2.3692,2.3532,2.2889,2.3852,2.4012,2.384,2.384,2.3371,2.2889,2.352,2.3478,2.3144,2.3726,2.4091,2.4341,2.4675,2.5011,2.518,2.5385,2.5433,2.5433,2.5433,2.5433,2.5433,2.5433,2.5433,2.5433,2.5604,2.5604,2.5945,2.6626,2.7266,2.7797,2.7972,2.8474,2.9002,2.9002,2.8778,2.8588,2.8538,2.8417,2.8136,2.8136,2.8136,2.8359,2.8649,2.9528,3.0293,3.0765,3.2102,3.2877,3.3071,3.3188,3.3246,3.3232,3.2793,3.2646,1.0508,1.0898,1.1334,1.1503,1.1809,1.2423,1.3497,1.355,1.3625,1.4515,1.4923,1.5394,1.654,1.7475,1.8354,1.9397,1.9793,2.041,2.1094,2.1554,2.2055,2.2761,2.3488,2.4392,2.5283,2.5741,2.5911,2.5594,2.607,2.6228,2.5753,2.6386,2.686,2.686,2.6874,2.7032,2.7032,2.6702,2.6544,2.6544,2.6386,2.6228,2.5753,2.5594,2.5117,2.4652,2.4332,2.4172,2.4012,2.384,2.3852,2.4012,2.384,2.3371,2.2889,2.352,2.3371,2.2728,2.352,2.384,2.384,2.368,2.3211,2.2889,2.3371,2.3328,2.3179,2.3493,2.3668,2.4211,2.4734,2.4901,2.4996,2.5068,2.5263,2.5263,2.5433,2.5433,2.5433,2.5433,2.5433,2.5433,2.5433,2.5433,2.5604,2.6443,2.7018,2.7533,2.8321,2.8752,2.9078,2.9362,2.9203,2.9045,2.9045,2.8484,2.8136,2.8136,2.823,2.8493,2.8587,2.9838,3.0676,3.1048,3.2496,3.3246,3.3246,3.3246,3.3246,3.3232,3.291,3.2778,1.0371,1.0532,1.0887,1.1409,1.202,1.2638,1.3852,1.3444,1.3282,1.5115,1.5903,1.6522,1.7016,1.7569,1.8227,1.9173,1.977,2.0329,2.1037,2.166,2.2505,2.3228,2.4265,2.5009,2.5296,2.5898,2.607,2.513,2.5911,2.6228,2.5753,2.6228,2.6386,2.6386,2.6874,2.7032,2.7032,2.7032,2.7032,2.7032,2.6544,2.6228,2.5753,2.4958,2.4652,2.497,2.416,2.4012,2.4492,2.4012,2.4012,2.4492,2.4012,2.352,2.3199,2.368,2.3371,2.2728,2.352,2.384,2.368,2.3371,2.3199,2.305,2.2728,2.2889,2.3155,2.3326,2.3631,2.4092,2.4608,2.4221,2.3925,2.452,2.4749,2.4749,2.5263,2.5433,2.5433,2.5433,2.5433,2.5433,2.5433,2.5433,2.5604,2.6103,2.6351,2.6983,2.8308,2.8582,2.9047,2.9887,2.9392,2.9045,2.9045,2.8497,2.815,2.815,2.8444,2.891,2.9713,3.0246,3.0888,3.204,3.2728,3.3246,3.3246,3.3246,3.3246,3.3232,3.291,3.2778,1.0397,1.0993,0.0,1.1654,0.0,1.3003,1.3559,1.3422,1.3319,1.4223,1.5338,1.6291,1.6766,1.7409,1.8373,1.9459,1.9878,2.0219,2.106,2.1662,2.2329,2.2579,2.3928,2.4685,2.4819,2.5238,2.5289,2.4652,2.5435,2.5753,2.5289,2.607,2.6386,2.6386,2.6544,2.6544,2.6544,2.6544,2.6544,2.6544,2.6228,2.5753,2.5289,2.5435,2.4958,2.4172,2.4332,2.4172,2.4,2.384,2.4012,2.4492,2.4012,2.368,2.368,2.368,2.3371,2.2728,2.3211,2.3199,2.2889,2.2889,2.2567,2.2245,2.2567,2.252,2.256,2.2721,2.3101,2.3315,2.3287,2.3148,2.3458,2.4897,2.4921,2.4749,2.5263,2.5433,2.5433,2.5433,2.5433,2.5433,2.5763,2.5604,2.5604,2.6443,2.6523,2.7046,2.8569,2.9066,2.9415,2.9887,2.9579,2.9352,2.9352,2.8991,2.8778,2.8778,2.9058,2.9165,2.9219,3.0281,3.1099,3.1493,3.2534,3.3246,3.3246,3.3246,3.3246,3.3232,3.291,3.2778,1.0493,1.1036,0.0,1.2126,1.269,1.3285,1.3778,1.3769,1.3674,1.4156,1.5287,1.6303,1.6985,1.7837,1.8874,1.9848,2.0192,2.0447,2.121,2.158,2.1989,2.2543,2.3897,2.4655,2.4467,2.497,2.513,2.4332,2.5276,2.5594,2.497,2.5753,2.6228,2.6228,2.6228,2.6228,2.6386,2.6386,2.6386,2.6228,2.5911,2.5435,2.4811,2.5117,2.4958,2.4332,2.4332,2.4012,2.384,2.384,2.4172,2.4652,2.4012,2.384,2.3828,2.368,2.305,2.2406,2.2889,2.2728,2.2567,2.2406,2.2084,2.1922,2.2084,2.2184,2.2211,2.2389,2.2419,2.2605,2.2944,2.2686,2.2859,2.4235,2.4407,2.4235,2.4749,2.5092,2.5092,2.5092,2.5263,2.5433,2.5763,2.5604,2.5604,2.6116,2.6523,2.7207,2.853,2.9053,2.9593,2.9887,2.9659,2.9486,2.9486,2.9205,2.9085,2.9205,2.9379,2.9513,2.9566,3.0547,3.1332,3.1693,3.2742,3.3256,3.3056,3.3188,3.3188,3.3056,3.2866,3.2778,1.0621,1.0793,1.111,1.2758,1.3216,0.0,1.4077,1.4325,1.4485,1.476,1.5569,1.6609,1.7521,1.8538,1.9511,2.0513,2.0601,2.0759,2.1545,2.1615,2.2023,2.3043,2.409,2.468,2.4467,2.5117,2.5117,2.384,2.4958,2.5276,2.4492,2.5276,2.5753,2.5753,2.5753,2.5911,2.6386,2.6386,2.607,2.5753,2.5753,2.5276,2.4492,2.4492,2.4652,2.497,2.416,2.384,2.384,2.384,2.4332,2.497,2.4172,2.384,2.3816,2.3359,2.2728,2.2084,2.2406,2.2406,2.2406,2.1922,2.1761,2.1761,2.1438,2.1599,2.1849,2.198,2.1933,2.2029,2.3016,2.2632,2.2136,2.317,2.3354,2.3548,2.4064,2.4407,2.4749,2.4749,2.5092,2.5433,2.5433,2.5433,2.5433,2.5433,2.6485,2.7439,2.8256,2.9057,2.9513,2.9806,2.9619,2.9486,2.9486,2.9259,2.9232,2.9499,2.9553,2.9806,3.0341,3.1158,3.1675,3.2084,3.2917,3.3182,3.2822,3.31,3.3085,3.2778,3.2778,3.2778,1.0461,1.1264,0.0,1.2783,1.3682,1.4458,1.4738,1.4909,1.4909,1.4909,1.6254,1.7679,1.8164,1.8549,1.898,2.0003,2.0263,2.0664,2.1475,2.2189,2.2901,2.3333,2.439,2.4736,2.4,2.4492,2.4492,2.384,2.4492,2.4652,2.4492,2.497,2.5435,2.5753,2.5435,2.5607,2.6386,2.5766,2.5448,2.5753,2.513,2.4811,2.497,2.4652,2.4332,2.4012,2.384,2.384,2.384,2.384,2.4332,2.497,2.4172,2.416,2.4639,2.352,2.2889,2.2406,2.1761,2.1276,2.0952,2.0952,2.0952,2.0952,2.1276,2.1438,2.1503,2.1609,2.1531,2.144,2.2565,2.2277,2.2076,2.2917,2.3232,2.3548,2.4064,2.4407,2.4749,2.4749,2.5092,2.5604,2.5933,2.5604,2.5604,2.5933,2.6847,2.7499,2.7956,2.8406,2.8911,2.9192,2.9379,2.9486,2.9486,2.9277,2.9383,2.982,2.9673,2.9845,3.0354,3.0954,3.1272,3.1702,3.2521,3.2885,3.2606,3.3038,3.3085,3.2778,3.2778,3.2778,1.057,1.1264,0.0,1.3062,0.0,1.4629,1.4826,1.5229,1.557,1.5848,1.6857,1.7724,1.8176,1.8791,1.9572,2.0391,2.0698,2.1277,2.2024,2.2531,2.3092,2.3261,2.412,2.439,2.3478,2.4049,2.4135,2.3659,2.4099,2.4332,2.4172,2.4652,2.497,2.5117,2.497,2.513,2.5766,2.5289,2.513,2.5117,2.4652,2.4492,2.4492,2.4492,2.4172,2.384,2.384,2.384,2.384,2.352,2.3852,2.4332,2.3532,2.3532,2.3852,2.2728,2.2084,2.1599,2.0941,2.0465,2.0303,2.0465,2.0627,2.0627,2.1114,2.1276,2.133,2.1556,2.1291,2.1189,2.2255,2.2159,2.1831,2.284,2.3027,2.3204,2.372,2.4064,2.4407,2.4749,2.5092,2.5433,2.5763,2.5604,2.5604,2.6103,2.6443,2.7068,2.7865,2.8076,2.8366,2.9005,2.9312,2.9486,2.9486,2.9561,2.9787,3.0114,2.9946,3.0026,3.0354,3.067,3.1185,3.1505,3.2407,3.2802,3.2527,3.2887,3.3085,3.2778,3.2778,3.2851,1.074,1.1168,1.1921,1.3244,1.4153,1.4636,1.4804,1.5579,1.6339,1.669,1.7248,1.7694,1.8285,1.9319,2.0169,2.0876,2.1277,2.1754,2.2565,2.2638,2.2863,2.3045,2.3646,2.3683,2.32,2.3695,2.383,2.3514,2.405,2.4172,2.384,2.4172,2.4492,2.4492,2.4492,2.4652,2.513,2.497,2.4811,2.4492,2.4492,2.4172,2.384,2.4172,2.4172,2.384,2.384,2.368,2.368,2.3359,2.3359,2.368,2.2889,2.2728,2.2728,2.1761,2.1276,2.079,2.0292,1.9967,2.013,2.0465,2.0465,2.0627,2.1114,2.1276,2.1319,2.1513,2.1227,2.0941,2.2146,2.1872,2.1715,2.2605,2.2791,2.2804,2.3365,2.3892,2.4235,2.4578,2.5092,2.5433,2.5433,2.5433,2.5604,2.6103,2.6103,2.6531,2.7628,2.7826,2.8089,2.8858,2.9192,2.9406,2.9406,2.9713,3.002,3.0261,3.0047,3.002,3.0274,3.0608,3.0953,3.1253,3.2149,3.2619,3.2432,3.2916,3.2907,3.2778,3.2778,3.291,1.0278,1.1487,1.2826,1.3665,1.4459,1.501,1.5456,1.5904,1.6425,1.7214,1.7733,1.8268,1.8852,1.9359,1.9872,2.0414,2.1114,2.167,2.2496,2.2591,2.2635,2.3206,2.3099,2.3052,2.3241,2.3608,2.3792,2.3792,2.3828,2.384,2.384,2.384,2.4012,2.4492,2.4172,2.4332,2.513,2.4332,2.4172,2.4492,2.4172,2.384,2.384,2.384,2.384,2.384,2.384,2.352,2.3199,2.3199,2.3211,2.3211,2.3199,2.3371,2.3532,2.2728,2.2406,2.2084,2.0617,1.9967,1.9967,2.013,2.013,2.0292,2.1114,2.1276,2.1286,2.1319,2.0832,2.0344,2.1687,2.1217,2.0775,2.2321,2.2888,2.3121,2.3331,2.4064,2.4578,2.4749,2.5092,2.5433,2.5433,2.5775,2.6103,2.6103,2.6443,2.6978,2.7539,2.7187,2.7369,2.8257,2.8419,2.8749,2.9098,2.9238,2.9568,2.9967,2.9568,2.9568,2.9967,3.0501,3.0675,3.0603,3.1498,3.2177,3.2211,3.2489,3.2728,3.2778,3.2778,3.2793,1.0692,1.1654,1.2664,1.3524,1.3983,1.4353,1.5293,1.5551,1.5836,1.7,1.7514,1.8081,1.9022,1.918,1.9575,2.0425,2.0921,2.1476,2.1905,2.2148,2.2356,2.2437,2.2513,2.2647,2.2753,2.3222,2.3623,2.3623,2.3768,2.384,2.384,2.384,2.384,2.4172,2.368,2.3692,2.4332,2.3852,2.368,2.4172,2.3692,2.352,2.384,2.352,2.352,2.384,2.352,2.3371,2.3199,2.2717,2.2395,2.2395,2.2395,2.2395,2.2245,2.175,2.1265,2.0941,1.9642,1.9316,1.9316,1.9805,1.9967,2.013,2.1114,2.1276,2.1276,2.1276,2.079,2.0465,2.1276,2.1217,2.1181,2.2121,2.2774,2.3243,2.3697,2.4235,2.4749,2.5092,2.5263,2.5433,2.5433,2.5726,2.5946,2.5787,2.6068,2.6289,2.6639,2.6783,2.7187,2.7866,2.8432,2.8937,2.9272,2.9495,2.9734,2.9913,2.9734,2.9734,2.9913,3.0327,3.0488,3.0368,3.1321,3.1757,3.1637,3.2053,3.2198,3.2409,3.2586,3.2866,1.0917,1.1768,1.2365,1.321,1.3537,1.4036,1.5054,1.5298,1.5685,1.6952,1.7272,1.7665,1.8854,1.9088,1.9542,2.0296,2.0802,2.1179,2.146,2.1802,2.1873,2.1749,2.205,2.2229,2.2298,2.28,2.3234,2.3392,2.3413,2.3532,2.368,2.352,2.352,2.352,2.3371,2.3371,2.352,2.3211,2.3199,2.368,2.3211,2.3211,2.368,2.3211,2.3211,2.3532,2.3211,2.305,2.2889,2.2245,2.1922,2.1761,2.1922,2.1761,2.1438,2.1103,2.0779,2.0292,1.9326,1.9,1.9163,1.9642,1.9967,2.013,2.0952,2.1276,2.1276,2.1276,2.0952,2.0638,2.1026,2.1291,2.141,2.1862,2.267,2.3641,2.4052,2.4407,2.4749,2.5092,2.5263,2.5263,2.5433,2.5602,2.5687,2.5554,2.5699,2.5944,2.6498,2.6657,2.726,2.8168,2.863,2.9057,2.9459,2.9753,2.9913,2.9913,2.9913,2.9913,2.9913,3.0207,3.0327,3.0247,3.0894,3.1117,3.1067,3.1662,3.1877,3.2054,3.2586,3.2895,1.0895,1.1524,1.2192,1.2927,1.391,1.4647,1.4973,1.5607,1.6434,1.7282,1.7086,1.7231,1.8411,1.8946,1.9542,2.0296,2.0669,2.1,2.1437,2.1356,2.1279,2.1648,2.1681,2.1771,2.1856,2.2372,2.2866,2.3187,2.2878,2.2889,2.3211,2.2889,2.2728,2.2728,2.305,2.305,2.2728,2.2567,2.2889,2.3211,2.2889,2.2889,2.3199,2.2889,2.2567,2.2728,2.2567,2.2406,2.1922,2.1922,2.1761,2.1438,2.1761,2.1922,2.1922,2.1911,2.1761,2.1588,2.0292,1.9967,1.9805,1.9479,1.9642,2.013,2.0465,2.0952,2.1276,2.1276,2.0952,2.068,2.0888,2.1291,2.1595,2.1705,2.267,2.3778,2.4018,2.4407,2.4749,2.4749,2.4749,2.4921,2.5263,2.5446,2.5542,2.5771,2.582,2.6252,2.7371,2.7234,2.7422,2.8844,2.8921,2.8929,2.9486,2.9753,2.9913,2.9913,2.9913,2.9913,2.9913,3.0207,3.0221,2.994,3.0234,3.0731,3.1067,3.129,3.1507,3.2054,3.2586,3.2778,1.1036,1.147,1.2034,1.2775,1.3265,1.3814,1.4547,1.514,1.5922,1.6619,1.6852,1.7235,1.8128,1.8491,1.8946,1.9249,1.9906,2.0309,1.9994,2.0472,2.0911,2.0987,2.1287,2.1634,2.19,2.2245,2.2728,2.2728,2.2728,2.2728,2.2889,2.2728,2.2567,2.2567,2.2406,2.2245,2.2084,2.2084,2.2567,2.3199,2.2567,2.2567,2.3211,2.2406,2.2084,2.2084,2.1922,2.1761,2.1922,2.1599,2.1438,2.1276,2.1761,2.1761,2.1438,2.1103,2.1103,2.0952,1.9652,1.9316,1.9479,1.9316,1.9642,2.013,2.0465,2.079,2.0984,2.1295,2.1011,2.0405,2.0619,2.095,2.1304,2.1797,2.2729,2.3436,2.3181,2.372,2.4407,2.4578,2.4749,2.4921,2.5263,2.5578,2.5723,2.582,2.5977,2.6285,2.7097,2.7272,2.7699,2.8771,2.9053,2.9375,2.974,2.986,2.9913,2.9913,2.9913,2.9913,2.9913,3.002,3.002,2.9913,3.002,3.0074,3.0254,3.1028,3.1329,3.1507,3.2409,3.288,1.1197,1.1618,1.2063,1.2682,1.3208,1.3716,1.4367,1.5086,1.5696,1.6314,1.6618,1.702,1.7531,1.7883,1.8339,1.8795,1.9375,1.9754,1.9527,2.0152,2.0587,2.0673,2.1206,2.1541,2.1618,2.1789,2.211,2.227,2.2042,2.2065,2.2395,2.2155,2.2155,2.2406,2.1922,2.1761,2.1922,2.1761,2.2084,2.305,2.1922,2.2084,2.2889,2.1922,2.1599,2.1761,2.1438,2.1438,2.1761,2.1438,2.1276,2.1276,2.1599,2.1599,2.1276,2.0779,2.0617,2.0465,1.9326,1.9153,1.9316,1.9316,1.9642,2.013,2.0465,2.0627,2.068,2.1227,2.0797,2.0372,2.0497,2.0737,2.111,2.1953,2.2514,2.2859,2.2686,2.3376,2.4064,2.4407,2.4578,2.4749,2.5263,2.5578,2.5759,2.5928,2.6109,2.6467,2.7371,2.7738,2.8156,2.906,2.9442,2.9713,2.99,2.9913,2.9913,2.9913,3.0007,3.002,2.9913,2.9827,2.9827,2.9913,2.9734,2.9734,2.9913,3.0616,3.1151,3.1151,3.2054,3.2761,0.0,0.0,0.0,1.2738,1.3555,1.427,1.4396,1.5147,1.5896,1.6077,1.6368,1.6569,1.677,1.7111,1.7721,1.8936,1.9239,1.9475,2.0013,2.0414,2.064,2.0856,2.1114,2.1168,2.092,2.0888,2.1058,2.1534,2.0998,2.0928,2.1867,2.1188,2.1166,2.175,2.1427,2.1427,2.1922,2.1438,2.1761,2.2567,2.1276,2.1276,2.2567,2.1114,2.079,2.1276,2.1276,2.1276,2.1276,2.1276,2.1276,2.1276,2.1276,2.1276,2.1276,2.079,2.0627,2.0465,1.9642,1.9316,1.9316,1.9316,1.9642,2.013,2.0465,2.0627,2.068,2.0899,2.0642,2.0256,2.0347,2.0451,2.0955,2.2341,2.2341,2.2168,2.2686,2.3031,2.3548,2.4064,2.4064,2.4407,2.5263,2.5433,2.5615,2.6134,2.6206,2.6753,2.8205,2.8462,2.8835,2.9734,2.9913,2.9913,2.9913,2.9913,2.9913,2.9913,3.0181,3.0221,2.9927,2.9637,2.965,2.9927,2.9362,2.9362,2.9913,3.0451,3.0616,3.0616,3.1535,3.2433,1.1126,0.0,0.0,0.0,0.0,0.0,1.3673,1.4547,1.5484,1.5354,1.5807,1.6396,1.6742,1.6848,1.6944,1.7702,1.8339,1.8663,1.8571,1.9533,2.0053,1.9637,2.0443,2.075,1.9875,2.0032,2.0347,2.0505,2.0294,2.0473,2.0906,2.0537,2.0369,2.0444,2.0299,2.0289,2.0455,2.0455,2.0617,2.1092,2.0455,2.0455,2.1092,2.0455,2.0292,2.0292,2.0292,2.0292,2.0455,2.0627,2.0952,2.1276,2.0952,2.079,2.079,2.0292,2.013,1.9967,1.9163,1.9,1.9316,1.9,1.9316,1.9967,2.013,2.013,2.0344,2.0899,2.0589,2.015,2.0412,2.0568,2.0781,2.1475,2.1822,2.2168,2.2686,2.2859,2.3031,2.3548,2.3892,2.4235,2.4749,2.5263,2.5554,2.5892,2.594,2.6484,2.7927,2.8182,2.8616,2.9707,2.9913,2.9913,2.9913,2.9913,2.9913,2.9913,2.9993,3.0007,2.9913,2.9814,2.9814,2.9913,2.9734,2.9734,2.9913,3.0451,3.0616,3.0629,3.2152,3.2899,0.0,0.0,0.0,1.226,0.0,0.0,1.3604,1.4405,1.5005,1.5027,1.5476,1.586,1.6161,1.6135,1.6099,1.6669,1.7217,1.776,1.8143,1.8997,1.947,1.9108,1.997,2.02,1.9335,1.9637,1.9792,1.9637,1.9554,1.9543,1.9937,1.973,1.9738,1.9674,1.9654,1.9705,1.9826,1.9917,2.012,2.0607,1.9957,1.9957,2.0607,1.9967,1.9805,1.9967,1.9967,1.9967,1.9967,1.9967,2.0303,2.0779,2.0465,2.0303,2.0292,1.9805,1.9642,1.9642,1.9,1.8837,1.9,1.9,1.9316,1.9805,1.9967,1.9805,1.9845,2.024,2.0199,1.9836,2.0183,2.0269,2.0443,2.1128,2.1475,2.1822,2.2514,2.2686,2.2859,2.3376,2.3548,2.4064,2.4578,2.4921,2.5359,2.5784,2.5832,2.6338,2.7473,2.7636,2.8118,2.9356,2.9475,2.9734,2.9913,2.9913,2.9913,2.9913,3.014,3.0167,2.9927,2.996,2.9986,2.9913,2.9734,2.9734,2.9913,3.0093,3.0505,3.0821,3.2015,3.2973,0.0,0.0,0.0,0.0,1.3204,0.0,1.3979,1.4334,1.4611,1.4839,1.488,1.5095,1.5168,1.5185,1.5334,1.5659,1.5975,1.6644,1.7961,1.8493,1.8872,1.8886,1.9406,1.9501,1.8802,1.908,1.9234,1.8782,1.8754,1.8744,1.8967,1.9128,1.9083,1.9133,1.9313,1.9434,1.9484,1.9674,1.9937,2.0444,1.9642,1.9642,2.0282,1.9642,1.9479,1.9805,1.9805,1.9805,1.9805,1.9479,1.9479,1.9967,1.9967,1.9967,1.9805,1.9479,1.9316,1.9153,1.8837,1.8673,1.8673,1.899,1.9153,1.9316,1.9642,1.9479,1.9192,1.9406,1.9586,1.9618,1.9826,1.9902,2.0095,2.0955,2.1302,2.1475,2.2514,2.2686,2.2859,2.3204,2.3376,2.372,2.4407,2.4749,2.4992,2.5574,2.5784,2.6054,2.6859,2.7095,2.7624,2.8574,2.8986,2.9335,2.9734,2.9913,2.9927,2.9967,3.0421,3.0474,2.998,3.0056,3.0069,2.9927,2.9554,2.9541,2.9913,2.9953,3.0294,3.1136,3.1986,3.2662,0.0,0.0,0.0,0.0,0.0,0.0,1.3536,1.3618,1.3655,1.3773,1.4182,1.4475,1.455,1.4802,1.4884,1.4762,1.5232,1.5824,1.6492,1.7161,1.7371,1.6789,1.799,1.8174,1.6897,1.7636,1.8094,1.7788,1.8217,1.8591,1.8503,1.8375,1.8309,1.8188,1.8074,1.8327,1.8673,1.8711,1.8817,1.9,1.8837,1.8837,1.9,1.8837,1.8837,1.9,1.9,1.9,1.9,1.8837,1.9316,1.9967,1.9642,1.9316,1.9,1.9153,1.9163,1.8837,1.8673,1.8673,1.8673,1.8337,1.8174,1.8337,1.8837,1.8664,1.8374,1.8422,1.8988,1.9401,1.9609,1.9788,2.0095,2.0607,2.0955,2.1475,2.1995,2.2514,2.2686,2.2859,2.3204,2.3548,2.4064,2.4407,2.4932,2.5335,2.5518,2.5786,2.6587,2.6661,2.7034,2.8194,2.8639,2.8934,2.9349,2.9734,3.002,3.0261,3.0154,3.014,3.0274,3.0154,2.9853,2.9913,2.9734,2.9734,2.9913,3.0154,3.0421,3.0899,3.1751,3.2412,0.0,0.0,0.0,1.2268,0.0,0.0,0.0,1.3233,1.3268,1.3358,1.3629,1.3942,1.394,1.4115,1.419,1.3915,1.4355,1.4922,1.4868,1.5798,1.6501,1.6203,1.7051,1.7223,1.6212,1.6959,1.7264,1.6815,1.7121,1.732,1.7269,1.7176,1.7204,1.7418,1.7418,1.7723,1.8201,1.8305,1.8465,1.8673,1.8673,1.8673,1.8673,1.8673,1.8673,1.8673,1.8673,1.8673,1.8673,1.8673,1.8837,1.8981,1.899,1.8664,1.8337,1.8837,1.8664,1.8346,1.8673,1.8673,1.8673,1.851,1.8174,1.801,1.8337,1.8174,1.8046,1.8256,1.8801,1.9344,1.9543,1.976,2.0095,2.0434,2.0781,2.1128,2.1822,2.2168,2.2341,2.2686,2.2859,2.3204,2.372,2.3892,2.4235,2.4749,2.4921,2.5139,2.5627,2.592,2.6462,2.7272,2.7762,2.813,2.8947,2.9152,2.9641,3.0114,3.014,3.014,3.014,3.014,3.0074,2.9913,2.9913,2.9913,2.9913,3.0354,3.0648,3.0795,3.1647,3.2322,0.0,0.0,0.0,0.0,0.0,1.2509,0.0,0.0,0.0,1.3038,1.3234,1.3303,1.309,1.3448,1.3547,1.2995,1.3657,1.389,1.3358,1.4471,1.5475,1.5707,1.6124,1.6177,1.5845,1.6107,1.6268,1.605,1.5981,1.5972,1.605,1.605,1.6203,1.6653,1.6816,1.7153,1.7826,1.7995,1.8182,1.8388,1.8388,1.8388,1.8388,1.8435,1.8617,1.8617,1.8654,1.8673,1.8673,1.8673,1.851,1.8174,1.851,1.8174,1.7846,1.8337,1.8337,1.801,1.851,1.8673,1.851,1.851,1.8337,1.7846,1.7682,1.7682,1.7882,1.8045,1.8569,1.9109,1.9439,1.9666,1.9855,2.0375,2.0578,2.0781,2.1649,2.1822,2.1995,2.2341,2.2514,2.2686,2.3376,2.3376,2.3548,2.4064,2.4407,2.4578,2.4578,2.5098,2.5796,2.6252,2.6635,2.7246,2.8449,2.8665,2.8986,2.988,3.0026,3.0221,3.0087,3.0207,3.0167,2.9927,2.9913,2.9913,2.9913,3.0448,3.0715,3.0715,3.1502,3.2162,0.0,0.0,0.0,0.0,1.1635,0.0,0.0,0.0,1.2028,1.254,0.0,1.2599,1.2442,0.0,0.0,1.2458,1.2775,1.3059,1.3173,1.3245,1.3603,1.4375,1.4525,1.4597,1.4294,1.4586,1.4927,1.5565,1.5278,1.5235,1.5718,1.5744,1.5897,1.6203,1.623,1.6644,1.7153,1.685,1.6966,1.7472,1.7163,1.7163,1.7481,1.7663,1.8068,1.8399,1.8588,1.8673,1.8673,1.8673,1.8673,1.851,1.8174,1.751,1.7018,1.7846,1.7846,1.7527,1.8346,1.851,1.801,1.801,1.7846,1.7363,1.6542,1.6871,1.7527,1.7554,1.787,1.8523,1.8875,1.9335,1.9637,1.9637,2.0125,2.0607,2.0781,2.1128,2.1475,2.1475,2.1822,2.2341,2.3204,2.3376,2.3548,2.4064,2.4064,2.4235,2.4235,2.4258,2.4627,2.5595,2.603,2.679,2.782,2.8243,2.9015,3.0096,2.9677,2.9818,3.0675,3.0221,2.9953,2.9913,2.9913,2.9913,2.9913,3.0247,3.0408,3.0434,3.1236,3.1867,0.0,0.0,0.0,0.0,0.0,0.0,1.1667,0.0,1.2084,0.0,0.0,0.0,0.0,0.0,0.0,0.0,1.2346,1.2429,1.2258,1.224,1.2632,1.369,1.3714,1.3626,1.3656,1.3829,1.3898,1.4037,1.4073,1.4247,1.4499,1.4822,1.513,1.5897,1.5897,1.6137,1.6796,1.664,1.6738,1.71,1.6942,1.6942,1.7408,1.7499,1.7695,1.7864,1.8077,1.817,1.8179,1.7973,1.8019,1.8174,1.7846,1.7355,1.7191,1.7519,1.7355,1.7026,1.7691,1.801,1.801,1.7682,1.7527,1.7199,1.6213,1.6542,1.7026,1.7363,1.7835,1.8486,1.881,1.9288,1.9599,1.9599,1.9933,2.0269,2.0607,2.0781,2.1128,2.1649,2.1822,2.2168,2.2859,2.3031,2.3031,2.3204,2.3548,2.372,2.372,2.3892,2.4316,2.5043,2.524,2.5742,2.7008,2.7371,2.8054,2.9157,2.9118,2.9287,2.9911,2.9673,2.9554,2.9554,2.9734,2.9734,2.9554,3.0026,3.0274,3.0127,3.1009,3.1531,0.891,0.0,0.0,0.0,0.0,0.0,0.0,0.0,0.0,0.0,0.0,0.0,0.0,0.0,1.2051,1.1674,0.0,1.1926,1.1667,1.1476,1.1862,1.2928,1.2888,1.2794,1.2956,1.303,1.2962,1.2749,1.302,1.3236,1.3442,1.3763,1.4244,1.5048,1.5201,1.5445,1.6095,1.6095,1.6164,1.6468,1.6311,1.6459,1.693,1.6984,1.7038,1.7259,1.7467,1.7584,1.7647,1.7465,1.7519,1.7846,1.7355,1.7199,1.7199,1.7363,1.7035,1.6534,1.7199,1.7682,1.801,1.7527,1.7363,1.7199,1.6213,1.6205,1.6534,1.7026,1.746,1.8081,1.8625,1.9072,1.9353,1.9581,1.976,1.9921,2.0269,2.0434,2.0607,2.1475,2.1649,2.1822,2.2341,2.2686,2.2686,2.2686,2.3031,2.3204,2.3204,2.3548,2.3914,2.4499,2.4683,2.5134,2.645,2.6721,2.7256,2.8076,2.8559,2.8949,2.8835,2.9002,2.9002,2.9002,2.9375,2.9375,2.9182,2.9766,2.9946,2.994,3.0742,3.1102,0.0,0.0,0.0,0.9954,0.0,0.0,0.0,0.0,1.0868,0.0,0.0,0.0,0.0,1.0711,1.0929,1.1292,1.1195,0.0,0.0,1.1336,1.1113,1.1978,1.2051,1.203,1.218,1.2066,1.2109,1.2415,1.2301,1.2351,1.2657,1.282,1.3042,1.3491,1.3952,1.4494,1.4968,1.4976,1.5283,1.5607,1.5292,1.5292,1.5607,1.5793,1.6294,1.6792,1.6986,1.7179,1.7355,1.7363,1.7363,1.7363,1.6862,1.6698,1.6862,1.7199,1.6871,1.6213,1.7035,1.7682,1.801,1.7527,1.7363,1.7199,1.6213,1.6048,1.6048,1.6534,1.6698,1.6913,1.8099,1.8466,1.8836,1.9381,1.976,1.9921,1.9921,1.9921,2.0095,2.0607,2.0607,2.0955,2.1822,2.2341,2.2686,2.2686,2.2686,2.2686,2.2686,2.2686,2.3119,2.4395,2.4429,2.5045,2.6182,2.646,2.6737,2.6991,2.8182,2.8572,2.7739,2.8294,2.8474,2.8474,2.8474,2.8835,2.9182,2.9195,2.9554,2.9927,3.0528,3.0808,0.0,0.0,0.9601,0.9433,0.0,0.0,0.0,0.0,0.0,0.0,0.0,0.0,0.0,1.076,1.0718,1.0957,1.0696,1.063,0.0,1.0614,1.0593,1.0876,1.1031,1.1138,1.1007,1.1161,1.1186,1.1234,1.1438,1.1703,1.1904,1.221,1.2578,1.3029,1.3188,1.3573,1.4199,1.4515,1.4515,1.4353,1.4814,1.5122,1.5275,1.5496,1.594,1.6137,1.6316,1.6343,1.6366,1.6155,1.6205,1.6361,1.604,1.5875,1.5875,1.6369,1.6213,1.6048,1.6698,1.7026,1.7191,1.7026,1.6862,1.6862,1.6534,1.6205,1.6213,1.6862,1.7191,1.7234,1.7758,1.8466,1.9006,1.921,1.9587,1.9921,1.9921,1.9921,2.0095,2.0443,2.0607,2.0781,2.1475,2.1649,2.1995,2.2686,2.2686,2.2686,2.2686,2.2686,2.3053,2.4178,2.4189,2.4569,2.5526,2.6278,2.6498,2.621,2.7354,2.7842,2.7752,2.792,2.792,2.792,2.8294,2.8655,2.8655,2.9002,2.9362,2.9927,2.9752,3.0056,0.7975,0.8811,0.0,0.918,0.9928,0.0,0.9964,0.0,1.0708,0.0,0.0,0.0,0.0,1.0472,1.045,1.0631,1.0281,1.0039,0.0,1.0162,1.0184,1.0114,1.0385,1.0511,1.0303,1.0581,1.0644,1.0649,1.0855,1.1253,1.1449,1.161,1.1965,1.2564,1.2714,1.2943,1.3413,1.3778,1.3961,1.3655,1.4483,1.4661,1.4507,1.5122,1.5375,1.5244,1.5515,1.5512,1.5207,1.5054,1.5287,1.5451,1.5185,1.5216,1.5216,1.5546,1.5711,1.5711,1.6369,1.6534,1.6534,1.6698,1.6862,1.6862,1.6698,1.6534,1.6369,1.7026,1.7078,1.7007,1.7354,1.8229,1.8937,1.8804,1.9296,1.9563,1.9563,1.9563,1.9911,2.0434,2.0443,2.0607,2.1128,2.1128,2.1302,2.2341,2.2514,2.2514,2.2686,2.2686,2.3031,2.372,2.4064,2.4441,2.5395,2.5874,2.6068,2.5901,2.6592,2.7099,2.7015,2.7196,2.7377,2.7196,2.7752,2.8113,2.8474,2.8835,2.9195,2.9734,2.948,2.9599]}]]